[[{"header":{"parameterUnit":"m.s-1","parameterCategory":1,"la1":30.6,"la2":29.2853,"lo1":-89.7004,"lo2":-87.6739,"dx":0.0162,"dy":0.0183,"nx":112,"ny":82,"refTime":"2023-01-06T06:00:00:Z","depth":0,"parameterNumber":2,"parameterNumberName":"U-component_of_WINDS"},"data":[0.0,0.0,0.0,0.0,0.0,0.0,0.0,0.0,0.0,0.0,0.0,0.0,0.0,0.0,0.0,0.0,0.0,0.0,0.0,0.0,0.0,0.0,0.0,0.0,0.0,0.0,0.0,0.0,0.0,0.0,0.0,0.0,0.0,0.0,0.0,0.0,0.0,0.0,0.0,0.0,0.0,0.0,0.0,0.0,0.0,0.0,0.0,0.0,0.0,0.0,0.0,0.0,0.0,0.0,0.0,0.0,0.0,0.0,0.0,0.0,0.0,0.0,0.0,0.0,0.0,0.0,0.0,0.0,0.0,0.0,0.0,0.0,0.0,0.0,0.0,0.0,0.0,0.0,0.0,0.0,0.0,0.0,0.0,0.0,0.0,0.0,0.0,0.0,0.0,0.0,-1.5935,-1.5399,-1.5604,-1.5939,-1.6069,-1.4011,-1.2744,-1.2803,0.0,0.0,0.0,0.0,0.0,0.0,0.0,0.0,0.0,0.0,0.0,0.0,0.0,0.0,0.0,0.0,0.0,0.0,0.0,0.0,0.0,0.0,0.0,0.0,0.0,0.0,0.0,0.0,0.0,0.0,0.0,0.0,0.0,0.0,0.0,0.0,0.0,0.0,0.0,0.0,0.0,0.0,0.0,0.0,0.0,0.0,0.0,0.0,0.0,0.0,0.0,0.0,0.0,0.0,0.0,0.0,0.0,0.0,0.0,0.0,0.0,0.0,0.0,0.0,0.0,0.0,0.0,0.0,0.0,0.0,0.0,0.0,0.0,0.0,0.0,0.0,0.0,0.0,0.0,0.0,0.0,0.0,0.0,0.0,0.0,0.0,0.0,0.0,0.0,0.0,0.0,0.0,0.0,0.0,0.0,0.0,0.0,0.0,0.0,0.0,0.0,0.0,0.0,0.0,-1.532,-1.603,-1.5145,-1.4746,-1.5121,-1.317,-1.1742,-1.1506,0.0,0.0,0.0,0.0,0.0,0.0,0.0,0.0,0.0,0.0,0.0,0.0,0.0,0.0,0.0,0.0,0.0,0.0,0.0,0.0,0.0,0.0,0.0,0.0,0.0,0.0,0.0,0.0,0.0,0.0,0.0,0.0,0.0,0.0,0.0,0.0,0.0,0.0,0.0,0.0,0.0,0.0,0.0,0.0,0.0,0.0,0.0,0.0,0.0,0.0,0.0,0.0,0.0,0.0,0.0,0.0,0.0,0.0,0.0,0.0,0.0,0.0,0.0,0.0,0.0,0.0,0.0,0.0,0.0,0.0,0.0,0.0,0.0,0.0,0.0,0.0,0.0,0.0,0.0,0.0,0.0,0.0,0.0,0.0,0.0,0.0,0.0,0.0,0.0,0.0,0.0,0.0,0.0,0.0,0.0,0.0,0.0,0.0,0.0,0.0,0.0,0.0,0.0,-1.4971,-1.5349,-1.5499,-1.4871,-1.4413,-1.4295,-1.2576,-1.1475,-1.1371,-0.9244,0.0,0.0,0.0,0.0,0.0,0.0,0.0,0.0,0.0,0.0,0.0,0.0,0.0,0.0,0.0,0.0,0.0,0.0,0.0,0.0,0.0,0.0,0.0,0.0,0.0,0.0,0.0,0.0,0.0,0.0,0.0,0.0,0.0,0.0,0.0,0.0,0.0,0.0,0.0,0.0,0.0,0.0,0.0,0.0,0.0,0.0,0.0,0.0,0.0,0.0,0.0,0.0,0.0,0.0,0.0,0.0,0.0,0.0,0.0,0.0,0.0,0.0,0.0,0.0,0.0,0.0,0.0,0.0,0.0,0.0,0.0,0.0,0.0,0.0,0.0,0.0,0.0,0.0,0.0,0.0,0.0,0.0,0.0,0.0,0.0,0.0,0.0,0.0,0.0,0.0,0.0,0.0,0.0,0.0,0.0,0.0,0.0,0.0,0.0,0.0,0.0,0.0,-1.4887,-1.4974,-1.4604,-1.4193,-1.3739,-1.348,-1.1993,-1.1001,-1.099,-0.9314,0.0,0.0,0.0,0.0,0.0,0.0,0.0,0.0,0.0,0.0,0.0,0.0,0.0,0.0,0.0,0.0,0.0,0.0,0.0,0.0,0.0,0.0,0.0,0.0,0.0,0.0,0.0,0.0,0.0,0.0,0.0,0.0,0.0,0.0,0.0,0.0,0.0,0.0,0.0,0.0,0.0,0.0,0.0,0.0,0.0,0.0,0.0,0.0,0.0,0.0,0.0,0.0,0.0,0.0,0.0,0.0,0.0,0.0,0.0,0.0,0.0,0.0,0.0,0.0,0.0,0.0,0.0,0.0,0.0,0.0,0.0,0.0,0.0,0.0,0.0,0.0,0.0,0.0,0.0,0.0,0.0,0.0,0.0,0.0,0.0,0.0,0.0,0.0,0.0,0.0,0.0,0.0,0.0,0.0,0.0,0.0,0.0,0.0,0.0,0.0,0.0,0.0,-1.3219,-1.3324,-1.3746,-1.2401,-1.1725,-1.246,-1.1024,-0.9947,-0.969,-0.8928,0.0,0.0,0.0,0.0,0.0,0.0,0.0,0.0,0.0,0.0,0.0,0.0,0.0,0.0,0.0,0.0,0.0,0.0,0.0,0.0,0.0,0.0,0.0,0.0,0.0,0.0,0.0,0.0,0.0,0.0,0.0,0.0,0.0,0.0,0.0,0.0,0.0,0.0,0.0,0.0,0.0,0.0,0.0,0.0,0.0,0.0,0.0,0.0,0.0,0.0,0.0,0.0,0.0,0.0,0.0,0.0,0.0,0.0,0.0,0.0,0.0,0.0,0.0,0.0,0.0,0.0,0.0,0.0,0.0,0.0,0.0,0.0,0.0,0.0,0.0,0.0,0.0,0.0,0.0,0.0,0.0,0.0,0.0,0.0,0.0,0.0,0.0,0.0,0.0,0.0,0.0,0.0,0.0,0.0,0.0,0.0,0.0,0.0,0.0,0.0,0.0,0.0,-1.3229,-1.3039,-1.2665,-1.1913,-1.1544,-1.1645,-1.0645,-1.0006,-0.9837,0.0,0.0,0.0,0.0,0.0,0.0,0.0,0.0,0.0,0.0,0.0,0.0,0.0,0.0,0.0,0.0,0.0,0.0,0.0,0.0,0.0,0.0,0.0,0.0,0.0,0.0,0.0,0.0,0.0,0.0,0.0,0.0,0.0,0.0,0.0,0.0,0.0,0.0,0.0,0.0,0.0,0.0,0.0,0.0,0.0,0.0,0.0,0.0,0.0,0.0,0.0,0.0,0.0,0.0,0.0,0.0,0.0,0.0,0.0,0.0,0.0,0.0,0.0,0.0,0.0,0.0,0.0,0.0,0.0,0.0,0.0,0.0,0.0,0.0,0.0,0.0,0.0,0.0,0.0,0.0,0.0,0.0,0.0,0.0,0.0,0.0,0.0,0.0,0.0,0.0,0.0,0.0,0.0,0.0,0.0,0.0,0.0,0.0,0.0,0.0,0.0,0.0,-1.2292,-1.2416,-1.2292,-1.1736,-1.1253,-1.0941,-1.0898,-1.0223,-0.978,-0.9588,0.0,0.0,0.0,0.0,0.0,0.0,0.0,0.0,0.0,0.0,0.0,0.0,0.0,0.0,0.0,0.0,0.0,0.0,0.0,0.0,0.0,0.0,0.0,0.0,0.0,0.0,0.0,0.0,0.0,0.0,0.0,0.0,0.0,0.0,0.0,0.0,0.0,0.0,0.0,0.0,0.0,0.0,0.0,0.0,0.0,0.0,0.0,0.0,0.0,0.0,0.0,0.0,0.0,0.0,0.0,0.0,0.0,0.0,0.0,0.0,0.0,0.0,0.0,0.0,0.0,0.0,0.0,0.0,0.0,0.0,0.0,0.0,0.0,0.0,0.0,0.0,0.0,0.0,0.0,0.0,0.0,0.0,0.0,0.0,0.0,0.0,0.0,0.0,0.0,0.0,0.0,0.0,0.0,0.0,0.0,0.0,0.0,0.0,0.0,0.0,0.0,0.0,-1.0711,-1.0711,-1.0837,-1.1067,-1.0112,-0.9696,-1.021,-0.9768,-0.9145,0.0,0.0,0.0,0.0,0.0,0.0,0.0,0.0,0.0,0.0,0.0,0.0,0.0,0.0,0.0,0.0,0.0,0.0,0.0,0.0,0.0,0.0,0.0,0.0,0.0,0.0,0.0,0.0,0.0,0.0,0.0,0.0,0.0,0.0,0.0,0.0,0.0,0.0,0.0,0.0,0.0,0.0,0.0,0.0,0.0,0.0,0.0,0.0,0.0,0.0,0.0,0.0,0.0,0.0,0.0,0.0,0.0,0.0,0.0,0.0,0.0,0.0,0.0,0.0,0.0,0.0,0.0,0.0,0.0,0.0,0.0,0.0,0.0,0.0,0.0,0.0,0.0,0.0,0.0,0.0,0.0,0.0,0.0,0.0,0.0,0.0,0.0,0.0,0.0,0.0,0.0,0.0,0.0,0.0,0.0,0.0,0.0,0.0,0.0,0.0,0.0,0.0,0.0,-1.0473,-1.0332,-1.0193,-0.9911,-0.9573,-0.9327,-0.9574,-0.9099,-0.8762,-0.8996,0.0,0.0,0.0,0.0,0.0,0.0,0.0,0.0,0.0,0.0,0.0,0.0,0.0,0.0,0.0,0.0,0.0,0.0,0.0,0.0,0.0,0.0,0.0,0.0,0.0,0.0,0.0,0.0,0.0,0.0,0.0,0.0,0.0,0.0,0.0,0.0,0.0,0.0,0.0,0.0,0.0,0.0,0.0,0.0,0.0,0.0,0.0,0.0,0.0,0.0,0.0,0.0,0.0,0.0,0.0,0.0,0.0,0.0,0.0,0.0,0.0,0.0,0.0,0.0,0.0,0.0,0.0,0.0,0.0,0.0,0.0,0.0,0.0,0.0,0.0,0.0,0.0,0.0,0.0,0.0,0.0,0.0,0.0,0.0,0.0,0.0,0.0,0.0,0.0,0.0,0.0,0.0,0.0,0.0,0.0,0.0,0.0,0.0,0.0,0.0,0.0,0.0,-0.9315,-0.976,-0.9662,-0.8332,-0.8072,-0.8054,-0.7985,-0.7483,-0.7343,-0.7473,0.0,0.0,0.0,0.0,0.0,0.0,0.0,0.0,0.0,0.0,0.0,0.0,0.0,0.0,0.0,0.0,0.0,0.0,0.0,0.0,0.0,0.0,0.0,0.0,0.0,0.0,0.0,0.0,0.0,0.0,0.0,0.0,0.0,0.0,0.0,0.0,0.0,0.0,0.0,0.0,0.0,0.0,0.0,0.0,0.0,0.0,0.0,0.0,0.0,0.0,0.0,0.0,0.0,0.0,0.0,0.0,0.0,0.0,0.0,0.0,0.0,0.0,0.0,0.0,0.0,0.0,0.0,0.0,0.0,0.0,0.0,0.0,0.0,0.0,0.0,0.0,0.0,0.0,0.0,0.0,0.0,0.0,0.0,0.0,0.0,0.0,0.0,0.0,0.0,0.0,0.0,0.0,0.0,0.0,0.0,0.0,0.0,0.0,0.0,0.0,0.0,0.0,-0.7634,-0.8813,-0.8879,-0.6389,-0.6252,-0.6134,-0.5855,-0.561,-0.5374,-0.5051,0.0,0.0,0.0,0.0,0.0,0.0,0.0,0.0,0.0,0.0,0.0,0.0,0.0,0.0,0.0,0.0,0.0,0.0,0.0,0.0,0.0,0.0,0.0,0.0,0.0,0.0,0.0,0.0,0.0,0.0,0.0,0.0,0.0,0.0,0.0,0.0,0.0,0.0,0.0,0.0,0.0,0.0,0.0,0.0,0.0,0.0,0.0,0.0,0.0,0.0,0.0,0.0,0.0,0.0,0.0,0.0,0.0,0.0,0.0,0.0,-0.4922,-0.4952,0.0,0.0,0.0,0.0,0.0,0.0,0.0,0.0,0.0,0.0,0.0,0.0,0.0,0.0,0.0,0.0,0.0,0.0,0.0,0.0,0.0,0.0,0.0,0.0,0.0,0.0,0.0,0.0,0.0,0.0,0.0,0.0,0.0,0.0,0.0,0.0,0.0,0.0,0.0,0.0,-0.7012,-0.6707,-0.6226,-0.539,-0.5499,-0.5479,-0.4889,-0.5007,-0.5097,-0.5054,-0.4801,0.0,0.0,0.0,0.0,0.0,0.0,0.0,0.0,0.0,0.0,0.0,0.0,0.0,0.0,0.0,0.0,0.0,0.0,0.0,0.0,0.0,0.0,0.0,0.0,0.0,0.0,0.0,0.0,0.0,0.0,0.0,0.0,0.0,0.0,0.0,0.0,0.0,0.0,0.0,0.0,0.0,0.0,0.0,0.0,0.0,0.0,0.0,0.0,0.0,0.0,0.0,0.0,0.0,0.0,0.0,0.0,0.0,0.0,0.0,-0.5359,-0.5239,0.0,0.0,0.0,0.0,0.0,0.0,0.0,0.0,0.0,0.0,0.0,0.0,0.0,0.0,0.0,0.0,0.0,0.0,0.0,0.0,0.0,0.0,0.0,0.0,0.0,0.0,0.0,0.0,0.0,0.0,0.0,0.0,0.0,0.0,0.0,0.0,0.0,0.0,0.0,0.0,-0.6223,-0.5481,-0.4558,-0.368,-0.3671,-0.3727,-0.3325,-0.3498,-0.3586,-0.3541,-0.3332,0.0,0.0,0.0,0.0,0.0,0.0,0.0,0.0,0.0,0.0,0.0,0.0,0.0,0.0,0.0,0.0,0.0,0.0,0.0,0.0,0.0,0.0,0.0,0.0,0.0,0.0,0.0,0.0,0.0,0.0,0.0,0.0,0.0,0.0,0.0,0.0,0.0,0.0,0.0,0.0,0.0,0.0,0.0,0.0,0.0,0.0,0.0,0.0,0.0,0.0,0.0,0.0,0.0,-0.6061,-0.6086,-0.5854,-0.5866,-0.5665,-0.5409,-0.5899,-0.5558,-0.4652,-0.4986,0.0,0.0,0.0,0.0,0.0,0.0,0.0,0.0,0.0,0.0,0.0,0.0,0.0,0.0,0.0,0.0,0.0,0.0,0.0,0.0,0.0,0.0,-0.3838,-0.3556,-0.3885,-0.4023,-0.3265,0.0,0.0,0.0,0.0,0.0,0.0,0.0,0.0,0.0,0.0,0.0,-0.523,-0.4398,-0.3289,-0.209,-0.1986,-0.2004,-0.2031,-0.203,-0.1994,-0.1921,-0.1873,-0.1801,0.0,0.0,0.0,0.0,0.0,0.0,0.0,0.0,0.0,0.0,0.0,0.0,0.0,0.0,0.0,0.0,0.0,0.0,0.0,0.0,0.0,0.0,0.0,0.0,0.0,0.0,0.0,0.0,0.0,0.0,0.0,0.0,-0.4615,-0.4445,0.0,0.0,0.0,0.0,0.0,0.0,0.0,0.0,0.0,0.0,0.0,0.0,0.0,-0.5205,-0.5318,-0.5407,-0.5455,-0.5455,-0.5684,-0.5725,-0.5742,-0.6156,-0.6246,-0.6246,-0.631,0.0,-0.5261,-0.4527,0.0,0.0,0.0,0.0,0.0,0.0,0.0,0.0,0.0,0.0,0.0,0.0,0.0,0.0,0.0,0.0,0.0,0.0,0.0,0.0,0.0,0.0,-0.2408,-0.2165,-0.2164,-0.2176,-0.2085,-0.2787,-0.3688,-0.3864,-0.36,-0.3662,0.0,0.0,0.0,0.0,0.0,0.0,-0.3664,-0.2875,-0.2142,-0.197,-0.2022,-0.2064,-0.2094,-0.2074,-0.2053,-0.2041,-0.1939,-0.1861,-0.1819,-0.1714,0.0,0.0,0.0,0.0,0.0,0.0,0.0,0.0,0.0,0.0,0.0,0.0,0.0,0.0,0.0,0.0,0.0,0.0,0.0,0.0,0.0,0.0,0.0,0.0,0.0,0.0,0.0,0.0,0.0,-0.412,-0.4504,-0.4029,-0.4372,-0.4481,0.0,0.0,0.0,0.0,0.0,0.0,0.0,0.0,0.0,-0.5259,-0.5714,-0.5853,-0.5835,-0.6109,-0.619,-0.6104,-0.6198,-0.6333,-0.6339,-0.6545,-0.6643,-0.6643,-0.6643,-0.6432,-0.5975,-0.5333,-0.4908,-0.4792,0.0,0.0,0.0,0.0,-0.484,-0.4833,-0.4023,-0.3648,-0.3518,-0.2915,0.0,0.0,0.0,0.0,0.0,0.0,0.0,-0.1984,-0.1993,-0.2142,-0.2183,-0.1877,-0.1825,-0.1829,-0.1843,-0.2242,-0.2804,-0.321,-0.2809,-0.2674,-0.343,-0.3063,0.0,0.0,0.0,-0.2692,-0.3441,-0.2588,-0.194,-0.2018,-0.2049,-0.2083,-0.2131,-0.2106,-0.2075,-0.2041,-0.1974,-0.1907,-0.1843,-0.1441,-0.1068,0.0,0.0,0.0,0.0,0.0,0.0,0.0,0.0,0.0,0.0,0.0,0.0,0.0,0.0,0.0,0.0,0.0,0.0,0.0,0.0,0.0,0.0,0.0,0.0,0.0,0.0,0.0,0.0,-0.4015,-0.4402,-0.3723,-0.4206,-0.45,0.0,0.0,0.0,0.0,0.0,0.0,-0.4613,-0.5261,-0.5773,-0.5885,-0.641,-0.6635,-0.6514,-0.6894,-0.7044,-0.6862,-0.685,-0.6893,-0.6893,-0.6893,-0.6893,-0.6792,-0.6792,-0.6738,-0.661,-0.5764,-0.5373,-0.5256,-0.4809,-0.4801,-0.4936,-0.4853,-0.482,-0.4667,-0.3782,-0.3487,-0.3339,-0.2521,-0.2253,-0.2218,-0.217,0.0,0.0,0.0,0.0,-0.1493,-0.1798,-0.1995,-0.2192,-0.196,-0.1885,-0.1888,-0.1895,-0.1885,-0.1964,-0.2427,-0.2036,-0.1797,-0.2356,-0.2061,0.0,-0.2999,-0.239,-0.2211,-0.3072,-0.2523,-0.1974,-0.2056,-0.2071,-0.2097,-0.215,-0.2127,-0.209,-0.2045,-0.1499,-0.1215,-0.129,-0.0457,0.0222,0.0648,0.0,0.0,0.0,0.0,0.0,0.0,0.0,0.0,0.0,0.0,0.0,0.0,0.0,0.0,0.0,0.0,0.0,0.0,0.0,0.0,0.0,0.0,0.0,0.0,0.0,0.0,0.0,0.0,0.0,-0.3876,-0.4306,0.0,0.0,0.0,0.0,-0.4882,-0.5183,-0.5277,-0.4969,-0.593,-0.6364,-0.6315,-0.7015,-0.751,-0.766,-0.7481,-0.7454,-0.7575,-0.7249,-0.7138,-0.7138,-0.7138,-0.7033,-0.6932,-0.6932,-0.6826,-0.6654,-0.5271,-0.527,-0.5906,-0.4693,-0.4219,-0.4215,-0.421,-0.3589,-0.2735,-0.2657,-0.2657,-0.2657,-0.2345,-0.2189,-0.2053,-0.1902,-0.1726,0.0,0.0,-0.1431,-0.1236,-0.2249,-0.2141,-0.1911,-0.185,-0.1885,-0.1894,-0.1922,-0.1883,-0.185,-0.1872,-0.1874,-0.1873,-0.1992,0.0,-0.1877,-0.1996,-0.1881,-0.1895,-0.1925,-0.1955,-0.1997,-0.2057,-0.209,-0.212,-0.2151,-0.2127,-0.2108,-0.2105,-0.0252,0.0614,-0.0123,0.1409,0.2044,0.1452,0.1317,0.0,0.0,0.0,0.0,0.0,0.0,0.0,0.0,0.0,0.0,0.0,0.0,0.0,0.0,0.0,0.0,0.0,0.0,0.0,0.0,0.0,0.0,0.0,0.0,0.0,0.0,0.0,0.0,-0.3779,-0.4175,0.0,-0.449,-0.4534,-0.467,-0.4882,-0.541,-0.5883,-0.6233,-0.681,-0.7298,-0.7638,-0.773,-0.7768,-0.7645,-0.7621,-0.7573,-0.7387,-0.735,-0.7388,-0.7388,-0.6694,-0.6699,-0.7174,-0.5894,-0.5054,-0.4309,-0.3914,-0.3985,-0.4268,-0.4204,-0.4238,-0.443,-0.443,-0.4272,-0.4023,-0.3341,-0.307,-0.3004,-0.2234,-0.1938,-0.1925,-0.186,-0.1831,-0.1798,-0.1875,-0.176,-0.1682,-0.2069,-0.1325,-0.0823,-0.1709,-0.124,-0.0875,-0.1762,-0.2,-0.1988,-0.1999,-0.1922,-0.1862,-0.1883,-0.1885,-0.1885,-0.1885,-0.1903,-0.1926,-0.1956,-0.1986,-0.2034,-0.2114,-0.2132,-0.1754,-0.0827,-0.0687,-0.0273,0.0811,0.198,0.2323,0.1902,0.3422,0.4184,0.416,0.4472,0.4772,0.0,0.0,0.0,0.0,0.0,0.0,0.0,0.0,0.0,0.0,0.0,0.0,0.0,0.0,0.0,0.0,0.0,0.0,0.0,0.0,0.0,0.0,0.0,0.0,0.0,0.0,-0.3371,-0.3551,-0.3899,-0.4121,-0.3989,-0.3986,-0.4107,-0.4268,-0.5055,-0.5766,-0.6382,-0.7188,-0.7604,-0.7656,-0.785,-0.7897,-0.7795,-0.7772,-0.7597,-0.7519,-0.7606,-0.7406,-0.7045,-0.6327,-0.609,-0.6094,-0.4777,-0.3561,-0.2706,-0.2926,-0.2883,-0.2928,-0.3611,-0.4003,-0.4111,-0.4111,-0.4032,-0.3853,-0.3086,-0.2886,-0.2694,-0.2058,-0.184,-0.1827,-0.1868,-0.1847,-0.1824,-0.1513,-0.1255,-0.1107,-0.0783,-0.0237,-0.0126,-0.1014,-0.0895,-0.0774,-0.1297,-0.1423,-0.1293,-0.0783,-0.1372,-0.1925,-0.1956,-0.1593,-0.1472,-0.2099,-0.112,-0.0628,-0.1398,-0.0901,-0.0525,-0.054,-0.068,-0.0275,0.0839,0.0281,0.0699,0.2606,0.2999,0.349,0.4047,0.5117,0.5812,0.591,0.6253,0.6411,0.6312,0.0,0.0,0.0,0.0,0.0,0.0,0.0,0.0,0.0,0.0,0.0,0.0,0.0,0.0,0.0,0.0,0.0,0.0,0.0,0.0,0.0,0.0,0.0,-0.2617,-0.3315,-0.3647,-0.3183,-0.3595,-0.3458,-0.2527,-0.2406,-0.2633,-0.3199,-0.416,-0.4817,-0.5138,-0.6893,-0.7337,-0.6198,-0.7134,-0.7812,-0.7937,-0.7703,-0.7643,-0.7872,-0.7888,-0.7276,-0.6403,-0.6039,-0.5176,-0.382,-0.3451,-0.2837,-0.1974,-0.2431,-0.2295,-0.2044,-0.2972,-0.3362,-0.3362,-0.3362,-0.2692,-0.18,-0.18,-0.1801,-0.1805,-0.1835,-0.1729,-0.1734,-0.188,-0.1771,-0.1535,-0.059,-0.0,0.0494,0.148,0.1009,0.0258,0.0129,-0.0903,-0.1556,-0.0263,-0.013,0.0261,0.2007,-0.0,-0.1948,-0.1973,-0.0659,-0.0397,-0.2284,0.0403,0.0,-0.0,0.136,0.2468,0.2471,0.2361,0.238,0.2521,0.0709,0.0564,0.3023,0.319,0.4139,0.6183,0.6715,0.6805,0.6435,0.6428,0.649,0.687,0.0,0.0,0.0,0.0,0.0,0.0,0.0,0.0,0.0,0.0,0.0,0.0,0.0,0.0,0.0,0.0,0.0,0.0,0.0,0.0,0.0,0.0,-0.2484,-0.2779,-0.2879,-0.2794,-0.2455,-0.2494,-0.2298,-0.1655,-0.1535,-0.1695,-0.2149,-0.2543,-0.3067,-0.361,-0.3841,-0.3917,-0.385,-0.3798,-0.4172,-0.5011,-0.5011,-0.5884,-0.7894,-0.6903,-0.6407,-0.6403,-0.4803,-0.4066,-0.382,-0.2837,-0.2222,-0.1975,-0.209,-0.2333,-0.2691,-0.2714,-0.2556,-0.2324,-0.2324,-0.2109,-0.1896,-0.1919,-0.1926,-0.1928,-0.1936,-0.1332,-0.0484,-0.0486,0.0245,0.1113,0.136,0.1504,0.1654,0.2035,0.258,0.2884,0.1986,0.2139,0.2434,0.1921,0.1646,0.1783,0.2211,0.165,0.1226,0.1205,0.1602,0.1738,0.1208,0.188,0.229,0.177,0.2188,0.2348,0.1972,0.1983,0.2564,0.4313,0.3754,0.4325,0.701,0.7248,0.7622,0.7855,0.8528,0.8839,0.8408,0.8007,0.8281,0.0,0.0,0.0,0.0,0.0,0.0,0.0,0.0,0.0,0.0,0.0,0.0,0.0,0.0,0.0,0.0,0.0,0.0,0.0,0.0,0.0,0.0,-0.1922,-0.1995,-0.2177,-0.2115,-0.1818,-0.1186,-0.1125,-0.0765,-0.0,-0.0,-0.0,0.0209,-0.0756,-0.1453,-0.1503,-0.161,-0.1873,-0.2086,-0.1564,-0.1802,-0.3071,-0.3444,-0.4429,-0.6035,-0.5921,-0.5671,-0.5172,-0.3204,-0.2466,-0.2714,-0.2097,-0.1605,-0.1482,-0.1852,-0.1852,-0.1726,0.0,0.0,0.0,0.0,-0.1934,-0.1952,-0.1724,-0.1482,-0.1357,-0.0987,-0.0248,0.0622,0.0622,0.1256,0.2034,0.2669,0.2839,0.3015,0.3539,0.4123,0.4195,0.3409,0.33,0.3326,0.3351,0.3077,0.3083,0.3947,0.4092,0.0,0.4177,0.3735,0.3174,0.2359,0.3473,0.4041,0.3231,0.3937,0.4244,0.3736,0.3743,0.433,0.5528,0.497,0.0,0.0,0.0,0.7819,0.8405,0.8949,0.0,0.0,0.0,0.8904,1.0317,1.0055,0.0,0.0,0.874,0.8292,0.0,0.0,0.0,0.0,0.0,0.0,0.0,0.0,0.0,0.0,0.0,0.0,0.0,0.0,0.0,0.0,-0.1589,-0.1161,-0.1097,-0.1098,-0.0734,0.0285,0.0384,0.0782,0.1921,0.1757,0.2001,0.2784,0.1101,0.0227,0.0823,0.0,0.0,0.0,0.0,-0.0238,-0.135,-0.2211,-0.2829,-0.3321,-0.457,-0.4573,-0.3334,-0.1487,-0.0744,-0.0993,-0.1116,-0.0992,-0.062,-0.1488,-0.0992,0.0124,-0.1236,-0.173,-0.173,-0.1856,-0.1733,-0.1486,-0.0868,0.0,0.0,0.0619,0.1376,0.2024,0.2024,0.2176,0.2593,0.3764,0.4234,0.4588,0.5669,0.5361,0.4756,0.4765,0.3507,0.2668,0.4356,0.4218,0.4233,0.5859,0.6301,0.6324,0.6253,0.5623,0.4307,0.2612,0.4944,0.6406,0.4657,0.5822,0.6845,0.641,0.6268,0.0,0.6559,0.529,0.5443,0.801,0.6901,0.679,0.8279,0.8775,0.8863,0.842,0.851,0.9394,1.1283,1.1408,1.2119,1.3259,1.2122,1.0885,0.0,0.0,0.0,0.0,0.0,0.0,0.0,0.0,0.0,0.0,0.0,0.0,0.0,0.0,0.0,-0.2167,-0.1703,-0.0998,-0.0188,0.0574,0.116,0.1363,0.1522,0.1988,0.2952,0.3146,0.3098,0.2996,0.2457,0.2049,0.2,0.1948,0.2087,0.2214,0.2751,0.2747,0.2341,0.2094,0.0369,-0.2708,-0.1248,0.0,-0.251,-0.1271,-0.064,-0.064,-0.0,0.0128,-0.0128,-0.0256,0.0511,0.1532,0.0125,-0.037,-0.0371,-0.0751,-0.0126,0.1005,0.1525,0.1913,0.2168,0.2676,0.3475,0.4302,0.4302,0.5308,0.0,0.6504,0.6582,0.6529,0.6114,0.5997,0.5758,0.5534,0.5263,0.4994,0.548,0.5493,0.5496,0.5801,0.5949,0.5956,0.597,0.625,0.6387,0.5963,0.6551,0.67,0.5974,0.6264,0.641,0.5974,0.5974,0.6264,0.7276,0.7144,0.7584,0.9018,0.8739,0.8749,0.9044,1.0311,1.0967,1.0715,1.1916,1.3311,1.4603,1.4738,1.5385,1.6686,1.3997,1.2767,0.0,0.0,0.0,0.0,0.0,0.0,0.0,0.0,0.0,0.0,0.0,-0.1976,0.0,0.0,-0.2433,-0.2463,-0.1902,-0.1042,-0.0,0.1005,0.184,0.2455,0.2621,0.2898,0.3493,0.3442,0.325,0.3138,0.2805,0.261,0.2326,0.2504,0.2651,0.2678,0.3098,0.3229,0.3207,0.259,0.1361,-0.0498,-0.0,-0.0127,-0.1147,-0.0129,0.0258,0.0258,0.0387,0.0645,0.116,0.116,0.1934,0.3093,0.2303,0.1777,0.1388,0.1144,0.1791,0.2703,0.2984,0.3528,0.3942,0.4336,0.5043,0.5774,0.6042,0.6405,0.6651,0.6656,0.6442,0.6226,0.5803,0.5831,0.5866,0.576,0.5627,0.5493,0.5818,0.5683,0.5538,0.5829,0.5825,0.5825,0.5825,0.6264,0.67,0.641,0.641,0.641,0.6413,0.6413,0.6268,0.6119,0.6119,0.641,0.699,0.761,0.8221,0.9102,1.024,1.0897,1.0897,1.2586,1.3473,1.3397,1.4131,1.5061,1.6453,1.6558,1.7275,1.8605,1.7208,1.5819,0.0,0.0,0.0,0.0,0.0,0.0,0.0,0.0,-0.0462,-0.1443,-0.1697,-0.1703,-0.1703,-0.1885,-0.1991,-0.2036,-0.1463,-0.0585,0.0405,0.1364,0.2358,0.3337,0.3447,0.3485,0.3578,0.3362,0.325,0.325,0.2917,0.2604,0.2424,0.2618,0.2538,0.2297,0.2624,0.2878,0.296,0.2103,0.1621,0.1387,0.0761,0.0384,0.0259,0.1039,0.13,0.13,0.039,0.0781,0.1959,0.2351,0.3138,0.4071,0.4248,0.397,0.3535,0.3525,0.3806,0.4237,0.4655,0.5098,0.5687,0.5957,0.6425,0.691,0.7328,0.6844,0.6215,0.6633,0.6118,0.5597,0.545,0.5493,0.5535,0.5535,0.5392,0.5247,0.5538,0.5538,0.5392,0.5683,0.5825,0.5825,0.5825,0.6119,0.6264,0.5974,0.5974,0.6119,0.6413,0.6413,0.6417,0.6432,0.6436,0.6593,0.6921,0.8145,0.9076,0.9552,1.1652,1.2971,1.2971,1.4637,1.5633,1.5599,1.5972,1.6679,1.7683,1.7859,1.8461,1.9499,1.9639,1.855,0.5152,0.3951,0.3549,0.3324,0.3305,0.3066,0.0,0.0,0.1558,0.0676,0.0383,0.0389,0.0389,0.0165,0.0087,0.0177,0.0857,0.1523,0.179,0.2692,0.3397,0.3561,0.3567,0.3572,0.3586,0.3586,0.3586,0.3586,0.3029,0.2843,0.3047,0.2545,0.2227,0.1964,0.2546,0.2788,0.259,0.25,0.1889,0.1009,0.1554,0.1576,0.1052,0.1732,0.201,0.201,0.067,0.0405,0.1365,0.2999,0.3707,0.4031,0.5144,0.5698,0.5822,0.5618,0.6138,0.6966,0.7479,0.7659,0.7521,0.7521,0.7454,0.7394,0.7818,0.7888,0.7972,0.8256,0.7688,0.6684,0.6391,0.5528,0.481,0.481,0.481,0.481,0.5247,0.5538,0.5683,0.5825,0.5825,0.5825,0.5825,0.5825,0.5974,0.6268,0.67,0.67,0.6413,0.6413,0.644,0.6507,0.6814,0.7621,0.8854,1.0283,1.1314,1.1894,1.3454,1.4432,1.4432,1.6107,1.688,1.6683,1.841,1.9275,1.9202,1.9223,1.9372,1.9488,1.9316,1.9223,0.7788,0.5688,0.0,0.0,0.4399,0.3645,0.2667,0.2304,0.1953,0.116,0.0898,0.0896,0.0986,0.0997,0.1018,0.0,0.1294,0.1761,0.2365,0.2522,0.2779,0.3471,0.3253,0.3253,0.3586,0.3474,0.3362,0.3362,0.2943,0.275,0.267,0.2564,0.2247,0.1947,0.2179,0.231,0.2222,0.2254,0.2027,0.1662,0.1958,0.1986,0.1736,0.2032,0.3012,0.4136,0.2478,0.2346,0.3332,0.4306,0.5438,0.645,0.6211,0.6653,0.7213,0.6983,0.7261,0.7725,0.7776,0.7832,0.7874,0.7732,0.7616,0.7652,0.8227,0.7972,0.757,0.8145,0.7711,0.6833,0.6494,0.6048,0.561,0.5282,0.5273,0.5273,0.5418,0.5557,0.598,0.7106,0.7106,0.7248,0.8232,0.8515,0.8515,0.8661,0.8145,0.8159,0.922,0.9275,0.8965,0.8568,0.8675,0.9313,1.0156,1.1992,1.3236,1.3461,1.5244,1.6393,1.6393,1.8133,1.9131,1.9039,1.9849,2.0221,2.0113,2.0113,2.0113,2.0113,2.0016,1.9928,0.9295,0.0,0.0,0.6185,0.5681,0.4709,0.3348,0.3023,0.2732,0.209,0.1891,0.1774,0.1971,0.2047,0.2148,0.2118,0.2161,0.2527,0.3585,0.3319,0.3354,0.403,0.3698,0.3474,0.3365,0.3138,0.3033,0.2934,0.2741,0.2541,0.2447,0.2358,0.2152,0.1943,0.1944,0.1958,0.1988,0.2016,0.2046,0.2076,0.2511,0.2812,0.2843,0.2745,0.3748,0.5747,0.4759,0.4768,0.535,0.5915,0.6778,0.7804,0.7153,0.7317,0.7884,0.7677,0.7837,0.7893,0.7469,0.7657,0.786,0.7566,0.7566,0.7711,0.8295,0.7842,0.7242,0.7958,0.7504,0.6757,0.6409,0.6111,0.5955,0.6178,0.6163,0.6302,0.6856,0.6996,0.7409,0.8788,0.8788,0.9065,1.031,1.0586,1.0711,1.1358,1.0631,1.0265,1.1138,1.1468,1.1415,1.1053,1.1085,1.1482,1.2038,1.3937,1.5068,1.5118,1.7167,1.8241,1.8241,1.9709,2.0436,2.0371,2.049,2.0533,2.0468,2.0468,2.0468,2.0468,2.0393,2.0248,0.8477,0.0,0.7425,0.7159,0.7066,0.6586,0.4814,0.4321,0.4225,0.393,0.393,0.3927,0.3927,0.3927,0.395,0.4027,0.4103,0.46,0.5872,0.6079,0.5917,0.5361,0.5361,0.4585,0.0,0.2694,0.2713,0.2756,0.2415,0.2333,0.2528,0.217,0.1944,0.1974,0.1975,0.1989,0.2018,0.2048,0.2078,0.2109,0.365,0.4382,0.4384,0.4023,0.4611,0.6302,0.744,0.7504,0.701,0.7576,0.7486,0.7135,0.7711,0.7856,0.7706,0.8,0.8145,0.8,0.7276,0.7276,0.7566,0.7135,0.7276,0.7711,0.8005,0.7791,0.7576,0.8424,0.7358,0.617,0.6581,0.5883,0.5464,0.7265,0.7683,0.8094,0.9896,1.0586,1.0862,1.0862,1.0862,1.0862,1.1,1.1,1.1639,1.3646,1.4044,1.3336,1.1276,1.1803,1.2518,1.3252,1.3845,1.4368,1.4859,1.6428,1.732,1.7508,1.9049,1.9854,1.9854,2.0091,2.0113,1.9876,2.0328,2.0457,2.0221,2.0221,2.0221,2.0221,1.9984,1.9994,0.9344,0.0,0.8674,0.9334,0.9076,0.8499,0.8202,0.7713,0.7316,0.7409,0.6272,0.5408,0.5866,0.5129,0.4793,0.5931,0.6199,0.6616,0.7594,0.761,0.7022,0.6028,0.5246,0.0,0.0,0.0,0.0,0.2415,0.2231,0.2505,0.3735,0.3897,0.4294,0.5053,0.5229,0.5015,0.4407,0.4816,0.504,0.5066,0.5755,0.6279,0.6621,0.6641,0.6977,0.7773,0.806,0.7935,0.7675,0.7666,0.7688,0.772,0.801,0.8005,0.8005,0.8005,0.7963,0.763,0.7693,0.786,0.786,0.7715,0.8241,0.8749,0.8188,0.8394,0.8583,0.8308,0.8413,0.8639,0.8423,0.8812,0.9336,0.9648,0.9624,0.9918,1.0962,1.1254,1.1825,1.3175,1.3238,1.3325,1.4275,1.4574,1.5055,1.6096,1.637,1.6155,1.5607,1.4868,1.4677,1.5337,1.5589,1.6064,1.6554,1.8055,1.9119,1.9181,1.9584,1.9844,1.9844,2.0233,2.0081,1.939,1.9853,1.9743,1.9212,1.9212,1.9437,2.0199,2.0113,2.0277,1.0842,1.0699,1.0485,1.0962,1.0574,1.0075,0.987,0.9485,0.9091,0.9288,0.7909,0.6688,0.7041,0.5924,0.532,0.6257,0.6525,0.715,0.8452,0.857,0.8233,0.7552,0.6937,0.5868,0.0,0.0,0.0,0.2924,0.3098,0.3864,0.4972,0.5269,0.5667,0.6154,0.6625,0.6458,0.5751,0.6201,0.6619,0.7128,0.7256,0.7799,0.8765,0.8617,0.8514,0.8594,0.8117,0.781,0.7661,0.7339,0.7464,0.7612,0.7755,0.7755,0.7898,0.8041,0.8135,0.8232,0.7916,0.8069,0.8321,0.8321,0.8834,0.9473,0.9333,0.9243,0.9285,0.9148,0.9662,1.0147,0.9918,1.0437,1.122,1.138,1.1483,1.1644,1.2547,1.2837,1.3136,1.462,1.4861,1.5147,1.6185,1.6773,1.7282,1.7662,1.776,1.7876,1.7959,1.7157,1.6816,1.7369,1.7585,1.7852,1.829,1.9239,1.9995,2.0145,2.0145,1.9995,1.9844,2.0145,1.9995,1.939,1.9693,1.9693,1.9552,1.9552,1.9778,2.0527,2.0527,2.0724,1.2657,1.3016,1.2774,1.1929,1.194,1.1628,1.0156,0.9862,0.9755,0.9714,0.8674,0.7752,0.0,0.0,0.5473,0.5312,0.5572,0.6455,0.8668,0.9146,0.9501,0.0,0.0,0.0,0.0,0.0,0.0,0.4337,0.0,0.5935,0.6014,0.6399,0.6403,0.5663,0.6509,0.6783,0.6177,0.6144,0.6864,0.8277,0.8277,0.9045,1.0455,0.9729,0.9152,0.8569,0.7746,0.7278,0.6839,0.6758,0.6725,0.6725,0.7283,0.7418,0.7557,0.798,0.8943,0.992,0.8237,0.8203,0.8799,0.8799,0.9209,0.9751,1.1131,1.0613,0.9691,1.1049,1.1073,1.0816,1.0816,1.0816,1.1219,1.2545,1.2947,1.335,1.4697,1.4969,1.51,1.5531,1.582,1.6027,1.6641,1.7462,1.7986,1.837,1.8688,1.8603,1.8086,1.8443,1.8728,1.9187,1.9585,1.9995,1.9995,1.9995,2.0145,2.0447,2.0597,2.0296,1.9844,1.9844,1.9844,1.9844,1.9833,2.0296,2.1071,2.1071,2.1071,2.1233,2.1233,2.136,1.3142,1.3735,1.4247,1.4208,1.4088,1.3896,1.3499,1.2823,1.2055,1.1271,0.9573,0.8112,0.0,0.0,0.0,0.7642,0.8488,0.0,1.086,1.1214,0.0,1.0715,0.0,0.9539,0.826,0.8691,0.0,0.0,0.7453,0.6987,0.7368,0.7755,0.8172,0.8499,0.8718,0.8915,0.9065,0.9382,0.9636,0.9827,0.9827,0.9988,1.0023,0.9787,0.9034,0.8169,0.7781,0.7314,0.6758,0.7013,0.7144,0.7279,0.8799,0.9492,0.9914,1.1134,1.1788,1.2116,1.186,1.0842,0.9625,0.9625,1.0247,1.0982,1.1254,1.168,1.1814,1.1017,1.1519,1.2281,1.2281,1.3079,1.3875,1.4268,1.4539,1.5016,1.5998,1.6479,1.685,1.7454,1.7569,1.7482,1.7962,1.7938,1.8321,1.943,1.9604,1.9488,1.9105,1.9474,1.9763,2.0098,2.053,2.0759,2.0759,2.0759,2.091,2.091,2.091,2.091,2.0759,2.106,2.0898,2.0285,2.0586,2.0436,2.0145,2.0145,2.1128,2.3104,2.3104,2.4031,1.4142,1.4676,1.5096,1.5114,1.4967,1.4754,1.4093,1.3421,1.2641,1.1339,0.9713,0.0,0.7926,0.7596,0.0,0.0,0.0,0.0,1.1573,1.1728,1.1797,0.0,1.1697,0.0,1.0391,1.0821,1.0905,0.0,0.9815,0.9207,0.9444,0.9457,0.9562,0.9638,0.9858,1.0003,1.0191,1.0345,1.0239,1.0023,1.0023,0.9879,0.959,0.9467,0.9128,0.8409,0.8248,0.7764,0.7212,0.8118,0.8402,0.8443,1.0216,1.1077,1.1413,1.2335,1.3003,1.3344,1.3157,1.2489,1.1628,1.1761,1.2015,1.2296,1.297,1.3162,1.3202,1.3062,1.3857,1.4651,1.4651,1.5381,1.5984,1.6236,1.6328,1.6604,1.712,1.7099,1.7244,1.7644,1.7994,1.8304,1.8552,1.8832,1.9333,2.005,2.0036,1.9966,2.0092,2.0329,2.0601,2.0737,2.091,2.1071,2.1071,2.1071,2.1222,2.1372,2.136,2.121,2.1048,2.1199,2.1199,2.0737,2.1625,2.2061,2.1924,2.2645,2.3548,2.4918,2.5039,2.5778,1.5351,1.5699,1.5569,1.5329,1.5286,1.479,1.3312,1.2869,1.2252,1.044,0.0,0.831,0.7935,0.7986,0.822,0.8528,0.0,1.0396,1.1745,1.1692,1.1878,1.2947,1.3258,1.3166,1.2831,1.2746,1.2603,1.2234,1.2122,1.1752,1.1269,1.105,1.05,0.9832,1.039,1.0604,1.0284,1.0114,0.9879,0.959,0.9735,0.9735,0.9585,0.9581,0.9513,0.9361,0.912,0.8736,0.8455,0.994,1.0238,1.009,1.1843,1.2751,1.3038,1.3223,1.3933,1.4782,1.413,1.425,1.4588,1.4441,1.3944,1.3831,1.5317,1.5176,1.4631,1.6004,1.6781,1.7141,1.7141,1.727,1.7532,1.7928,1.7962,1.7868,1.7879,1.7626,1.7241,1.7241,1.8112,1.8738,1.9089,1.9656,2.0238,2.0491,2.0515,2.0752,2.1266,2.1265,2.1187,2.121,2.1222,2.1222,2.1222,2.151,2.166,2.181,2.196,2.1798,2.1187,2.1325,2.1475,2.1475,2.3091,2.4275,2.4891,2.6182,2.6894,2.6742,2.7008,2.7137,1.6413,1.6441,1.6511,1.6468,1.6059,1.5245,1.3559,1.271,0.0,0.0,0.8354,0.7681,0.6837,0.7453,0.8451,0.9531,0.0,0.0,1.2638,1.2886,1.3019,0.0,1.3026,1.3447,1.4559,1.3655,0.0,0.0,1.3564,1.2475,1.139,1.1164,1.0763,1.0264,1.1228,1.1341,1.0419,1.1018,1.1031,1.0737,1.2302,1.2158,1.0731,1.172,1.1862,1.1151,1.0853,1.1247,1.1901,1.1871,1.2344,1.3027,1.4245,1.5433,1.6601,1.7834,1.8688,1.9022,1.902,1.9206,1.8953,1.6323,1.5137,1.4982,1.7066,1.7612,1.7518,1.7983,1.8035,1.8031,1.8031,1.7912,1.7792,1.7792,1.8094,1.8306,1.8505,1.8809,1.907,1.907,1.9277,1.9356,1.939,1.9498,2.0037,2.1495,2.1657,2.223,2.4219,2.2607,2.1289,2.1637,2.196,2.2109,2.2109,2.3277,2.3426,2.2259,2.3438,2.3426,2.2109,2.3277,2.4005,2.4005,2.5451,2.6328,2.6474,2.6765,2.7326,2.8287,2.835,2.9071,1.646,1.6491,1.6326,1.667,1.6263,1.5167,1.2908,0.0,0.0,0.0,0.705,0.66,0.6266,0.7051,0.0,0.9251,1.0789,0.0,1.2946,1.3265,0.0,1.3404,1.3771,1.4152,0.0,1.4867,1.4986,1.5116,1.51,1.4319,1.2264,1.1822,1.1468,1.1309,1.1482,1.1252,1.075,1.1879,1.2445,1.2158,1.4131,1.4356,1.3146,1.3846,1.3806,1.3165,1.317,1.3308,1.3692,1.4585,1.5139,1.574,1.7485,1.8561,1.9381,2.0204,2.0639,2.0663,2.1067,2.0873,2.0215,1.9279,1.8326,1.7544,1.8389,1.8816,1.8977,1.9089,1.9231,1.9312,1.9312,1.922,1.9399,2.0453,2.1603,2.2217,2.207,2.1391,2.0786,2.0626,2.0737,2.0798,2.0515,2.1245,2.2193,2.3146,2.3256,2.3721,2.5143,2.4077,2.3445,2.4024,2.3637,2.3702,2.4569,2.5318,2.5465,2.473,2.5318,2.5534,2.4972,2.5714,2.6228,2.6383,2.8015,2.8918,2.875,2.9671,3.0276,3.0144,3.0343,3.0651,1.6289,1.6361,1.6045,1.6553,1.6219,1.5008,1.2081,1.119,0.0,0.6956,0.6021,0.5772,0.5911,0.655,0.7486,0.0,1.0253,1.1695,1.2841,1.3214,1.3407,0.0,1.4265,0.0,1.5074,1.5924,0.0,1.6161,1.6857,1.623,1.406,1.3413,1.2911,1.2574,1.244,1.2022,1.1469,1.3294,1.4131,1.3998,1.5962,1.6409,1.5376,1.5856,1.5788,1.5053,1.525,1.5404,1.5524,1.7163,1.7973,1.8429,2.0102,2.1217,2.174,2.1726,2.1679,2.1535,2.2029,2.146,2.0854,2.1825,2.1162,1.9933,1.9792,1.9933,2.0086,2.0274,2.0762,2.1059,2.1196,2.1382,2.1945,2.368,2.5056,2.5814,2.5291,2.3785,2.2512,2.227,2.2445,2.2539,2.2178,2.3567,2.4701,2.5026,2.507,2.5442,2.6239,2.5751,2.5864,2.7236,2.5669,2.4994,2.6532,2.6993,2.7023,2.6808,2.723,2.7598,2.7644,2.8089,2.8432,2.8671,3.0609,3.1394,3.1134,3.2557,3.2724,3.1696,3.1902,3.1662,1.6019,1.6299,1.6286,1.6299,1.6072,1.4955,1.1841,0.0,1.0005,0.669,0.5891,0.5761,0.575,0.5954,0.6701,0.0,0.0,0.9963,0.0,0.0,0.0,1.306,0.0,0.0,1.6586,1.6279,1.6985,1.919,1.8495,1.7782,1.7246,1.6771,1.5654,1.4111,1.5728,1.5566,1.3167,1.5981,1.7107,1.6423,1.867,1.855,1.6244,1.7516,1.7684,1.6928,1.6817,1.7625,1.9048,1.8968,1.9936,2.1437,2.1365,2.2289,2.3483,2.3036,2.2847,2.2727,2.2399,2.2496,2.2657,2.2347,2.1538,2.0715,2.146,2.1618,2.1812,2.2485,2.3168,2.385,2.4131,2.4948,2.5576,2.571,2.5606,2.5502,2.5472,2.5084,2.468,2.4651,2.4665,2.468,2.4651,2.5183,2.5831,2.6753,2.7225,2.7868,2.9328,2.7964,2.781,3.0354,2.7305,2.544,2.5892,2.7168,2.7586,2.6471,2.8335,2.9121,2.7953,2.993,3.1204,3.1236,3.2674,3.3466,3.3432,3.3426,3.2861,3.2073,3.1765,3.1405,1.5856,1.6175,1.6091,1.6077,1.5325,1.3999,1.1502,0.0,0.9051,0.6642,0.5859,0.5627,0.5696,0.5631,0.5967,0.7092,0.8058,0.9152,1.0319,0.0,0.0,1.3599,1.4605,0.0,0.0,0.0,1.9582,2.0892,2.0125,1.9954,2.0799,1.8829,1.7087,1.5719,1.6787,1.6554,1.5,1.7398,1.839,1.811,2.0086,2.0287,1.8789,1.9492,1.9484,1.8688,1.8583,1.906,1.9876,2.0203,2.0895,2.1945,2.2605,2.3285,2.4062,2.3917,2.3875,2.3593,2.3413,2.3041,2.2755,2.3745,2.3259,2.2344,2.1959,2.2568,2.3549,2.3642,2.4579,2.5484,2.5637,2.6661,2.7635,2.7387,2.8048,2.8723,2.8477,2.7535,2.6604,2.6604,2.6486,2.6352,2.6352,2.713,2.8061,2.8693,2.896,2.9278,3.0054,2.9104,2.8946,3.0497,2.8471,2.774,2.9228,2.9823,3.0029,2.9612,3.0316,3.0772,3.0551,3.1861,3.2676,3.2892,3.4179,3.4744,3.4522,3.4368,3.3905,3.3152,3.2518,3.2039,1.5206,1.5695,1.5862,1.5848,1.476,1.3222,0.0,0.0,0.8355,0.6544,0.5922,0.5719,0.5728,0.5576,0.5663,0.6288,0.7257,0.8226,0.9086,0.9728,0.0,0.0,0.0,1.5716,0.0,2.0501,2.1715,2.164,2.1631,2.1943,2.2738,2.0969,1.9312,1.8089,1.8659,1.8508,1.7388,1.9495,2.0352,2.0213,2.1258,2.1526,2.0933,2.0844,2.0669,2.0081,2.0208,2.0514,2.1142,2.1176,2.1859,2.289,2.3899,2.429,2.4235,2.481,2.5051,2.4743,2.4369,2.4249,2.4394,2.5198,2.5058,2.4547,2.3601,2.4071,2.5072,2.5003,2.6235,2.7462,2.7637,2.8511,2.9265,2.8888,2.9674,3.049,3.023,2.9151,2.8246,2.8362,2.8129,2.8028,2.8126,2.906,2.9915,3.0324,3.0462,3.048,3.0857,3.0203,3.0115,3.0787,2.9888,2.9928,3.1265,3.1508,3.1559,3.1559,3.1765,3.2022,3.2278,3.3032,3.3563,3.3837,3.483,3.5172,3.4796,3.4915,3.459,3.382,3.302,3.2363,1.3526,1.4847,1.5737,1.5547,1.4458,1.3002,0.0,0.0,0.8193,0.6371,0.6105,0.6093,0.5836,0.5782,0.5903,0.632,0.6406,0.6988,0.8701,0.894,0.0,0.0,0.0,1.3975,1.6393,2.0501,2.2644,2.1723,2.2846,0.0,2.249,2.3482,2.3106,2.1145,2.2559,2.2421,2.0605,2.2832,2.3543,2.2859,2.2159,2.187,2.1977,2.1293,2.1004,2.1109,2.1488,2.2398,2.3574,2.2052,2.2835,2.5037,2.5359,2.5059,2.438,2.5805,2.6488,2.6721,2.5119,2.633,2.8315,2.6824,2.6839,2.7256,2.6618,2.6373,2.6489,2.72,2.8461,2.9877,3.071,3.0879,3.075,3.0508,3.0083,2.9822,2.9822,2.9561,2.9419,2.9813,2.9898,3.0001,3.0361,3.0737,3.1133,3.1548,3.1599,3.1683,3.2088,3.1401,3.127,3.1929,3.1709,3.1405,3.108,3.1354,3.1559,3.1559,3.2261,3.2672,3.2672,3.3426,3.3837,3.3837,3.459,3.4796,3.4402,3.4779,3.459,3.3837,3.2993,3.2325,1.1474,1.2172,1.2556,1.2539,1.1353,1.0001,0.878,0.0,0.6704,0.5826,0.5964,0.6136,0.5976,0.5933,0.609,0.6586,0.6579,0.6839,0.0,0.0,0.0,1.3291,1.7337,2.0136,0.0,0.0,2.302,2.2959,2.3554,2.3969,2.3941,2.4434,2.3952,2.2421,2.2983,2.2983,2.216,2.2859,2.3133,2.2859,2.243,2.2777,2.3609,2.342,2.3354,2.3435,2.4502,2.4797,2.4492,2.5421,2.6534,2.7605,2.8228,2.8614,2.8743,2.8996,2.8884,2.871,2.8315,2.8177,2.8392,2.9165,2.8972,2.8893,3.0145,2.9526,2.8807,3.0338,3.1114,3.1653,3.18,3.1635,3.1138,3.0879,3.0425,3.0091,2.9975,2.9898,3.0238,3.0915,3.0798,3.092,3.185,3.189,3.1929,3.2332,3.2351,3.2509,3.2914,3.2524,3.252,3.3191,3.3197,3.2999,3.2624,3.2694,3.2907,3.3195,3.289,3.2746,3.2746,3.3197,3.3443,3.3443,3.4453,3.4779,3.4385,3.4265,3.3651,3.2605,3.35,3.35,0.9366,1.029,1.0719,1.0515,0.9503,0.8328,0.7562,0.6481,0.5668,0.5609,0.5793,0.6007,0.6062,0.6142,0.6338,0.674,0.6804,0.7178,0.0,0.0,0.0,1.5508,0.0,0.0,0.0,2.296,2.3564,2.3642,2.3858,2.4216,2.4605,2.4967,2.4645,2.3816,2.3952,2.3952,2.3679,2.421,2.4409,2.4295,2.4334,2.478,2.5707,2.5469,2.5552,2.5879,2.6991,2.731,0.0,2.8113,2.9093,2.9884,3.0514,3.0611,3.055,3.0983,3.0932,3.064,3.0226,3.029,3.0545,3.1088,3.0811,3.0678,3.2147,3.1653,3.0853,3.2094,3.2422,3.2422,3.2275,3.1891,3.1506,3.112,3.0929,3.0715,3.0469,3.0645,3.099,3.1399,3.13,3.1425,3.2087,3.2022,3.1974,3.2361,3.2809,3.3157,3.3532,3.3418,3.3513,3.4034,3.4035,3.412,3.4559,3.4102,3.3933,3.4085,3.3709,3.3156,3.2715,3.3162,3.3275,3.3137,3.3971,3.445,3.4203,3.3978,3.3386,3.2748,3.4444,3.4658,0.0,0.8924,0.9935,0.933,0.8502,0.7589,0.6966,0.5858,0.0,0.5524,0.5653,0.5793,0.6116,0.6402,0.6648,0.6834,0.7039,0.7851,0.0,1.1303,0.0,0.0,1.9542,0.0,2.138,2.3074,2.3993,2.3713,2.4089,2.4446,2.4705,2.5056,2.5412,2.5412,2.5412,2.5292,2.5322,2.6604,2.7078,2.6759,2.7333,2.7843,2.8027,2.7349,2.7434,2.8122,2.8835,2.9798,3.0864,3.0215,3.0758,3.1953,3.2313,3.1598,3.051,3.2105,3.2708,3.2485,3.1566,3.2533,3.3896,3.2539,3.2275,3.2549,3.2804,3.2676,3.2422,3.2422,3.2422,3.2422,3.2147,3.2001,3.1873,3.1506,3.1433,3.1451,3.1433,3.1451,3.145,3.1439,3.1493,3.1468,3.1595,3.1666,3.1801,3.2186,3.3084,3.3879,3.4162,3.4242,3.4507,3.4808,3.4495,3.4972,3.6643,3.5705,3.4996,3.477,3.4716,3.4231,3.3054,3.3335,3.348,3.2984,3.3669,3.4027,3.4126,3.4108,3.4141,3.4039,3.5921,3.5852,0.5702,0.0,0.672,0.6554,0.6,0.5383,0.0,0.469,0.4491,0.4622,0.5178,0.5804,0.6091,0.6486,0.6905,0.7326,0.7357,0.8208,1.0971,0.0,0.0,2.2299,2.3369,2.3937,2.3959,2.4488,2.4964,2.5087,2.6461,2.6849,2.5739,2.6986,2.7751,2.7751,2.7751,2.7622,2.7387,2.7899,2.8493,2.8887,2.823,2.8465,2.9712,2.9324,2.9561,3.0395,3.1635,3.1998,3.1835,3.3369,3.4299,3.4929,3.4777,3.4528,3.4471,3.4261,3.426,3.4145,3.3917,3.395,3.4011,3.3339,3.3038,3.3165,3.3292,3.3038,3.2804,3.3038,3.3165,3.3165,3.3038,3.2657,3.2294,3.2166,3.1985,3.1824,3.1534,3.1697,3.1932,3.2308,3.2071,3.1979,3.2666,3.3387,3.3898,3.4011,3.504,3.6051,3.6415,3.6426,3.6769,3.7556,3.7428,3.7826,3.8584,3.6708,3.5869,3.6922,3.6436,3.601,3.5661,3.6258,3.6502,3.6405,3.6599,3.6658,3.6699,3.6956,3.6719,3.6239,3.7868,3.8087,0.5272,0.5431,0.5599,0.5472,0.5283,0.5058,0.4727,0.4728,0.4879,0.5103,0.5641,0.6213,0.6626,0.7214,0.764,0.0,0.8964,0.0,0.0,0.0,2.0091,2.3271,2.3917,2.444,0.0,2.5452,2.5505,2.5594,2.6454,2.6793,2.6113,2.7748,2.8631,2.8631,3.0066,3.0391,2.9553,2.9846,3.0319,3.0847,3.0391,3.0715,3.1816,3.1465,3.1604,3.2157,3.3203,3.3516,3.3315,3.5004,3.5681,3.5638,3.5524,3.5387,3.5284,3.4916,3.457,3.4414,3.4414,3.4121,3.373,3.3496,3.3418,3.3418,3.3418,3.3292,3.3165,3.3292,3.3418,3.3418,3.3418,3.3165,3.2804,3.2676,3.2504,3.2376,3.1893,3.2022,3.2169,3.2319,3.2636,3.291,3.3287,3.4211,3.4979,3.4979,3.608,3.7042,3.7192,3.7424,3.7741,3.8119,3.82,3.8595,3.9305,3.8127,3.7669,3.8447,3.8047,3.7669,3.7332,3.7826,3.798,3.7779,3.7915,3.7949,3.7746,3.8016,3.7963,3.7758,3.9385,3.9636,0.555,0.5808,0.6068,0.5356,0.5455,0.5576,0.5237,0.535,0.5646,0.6062,0.6376,0.6773,0.7387,0.8114,0.0,0.0,0.0,0.0,1.7943,1.8732,2.0247,2.3287,2.3861,0.0,2.6537,2.6679,2.6692,2.6621,2.6554,2.6628,2.7035,2.8346,2.9327,2.9506,3.2074,3.3,3.2011,3.2047,3.2363,3.2754,3.2983,3.3215,3.3699,3.3298,3.3217,3.3443,3.4007,3.4339,3.4566,3.5677,3.5799,3.5407,3.5481,3.5205,3.472,3.4662,3.4407,3.3965,3.3965,3.373,3.3418,3.3418,3.3418,3.3418,3.3418,3.3544,3.367,3.3418,3.3418,3.3418,3.3418,3.3418,3.3292,3.2912,3.2969,3.2861,3.2676,3.2676,3.2549,3.2422,3.334,3.4053,3.3737,3.486,3.5746,3.5746,3.6824,3.755,3.755,3.7923,3.8087,3.8297,3.8231,3.8699,3.9642,3.9661,3.9668,3.9668,3.9521,3.9259,3.8782,3.9135,3.9019,3.8782,3.9072,3.913,3.8729,3.8729,3.894,3.934,4.0539,4.0623,0.6249,0.7351,0.8032,0.5776,0.5392,0.5601,0.5555,0.581,0.6059,0.6021,0.6475,0.7049,0.771,0.8346,0.8955,0.0,0.0,1.8801,0.0,0.0,2.6597,2.7492,0.0,2.8443,2.9756,2.9502,2.9879,3.1269,3.0892,3.0743,3.1226,3.1482,3.2324,3.3801,3.3901,3.4523,3.5784,3.4721,3.4143,3.438,3.3798,3.3756,3.4189,3.3928,3.3921,3.4085,3.4644,3.4704,3.4269,3.5739,3.6122,3.5681,3.5963,3.5631,3.502,3.4639,3.408,3.3516,3.3516,3.3476,3.3418,3.3418,3.3418,3.3418,3.3418,3.4153,3.4757,3.3418,3.3165,3.3418,3.3418,3.3418,3.3292,3.2912,3.2944,3.3096,3.3583,3.365,3.3902,3.4757,3.4943,3.5043,3.5067,3.6215,3.7067,3.7067,3.8171,3.9049,3.9049,3.8999,3.9203,3.9756,3.9764,4.0195,4.124,4.1262,4.1271,4.1271,4.0847,4.0935,4.1663,4.173,4.173,4.1663,4.1663,4.1746,4.1678,4.1678,4.1701,4.1791,4.2048,4.1965,0.6453,0.7379,0.8346,0.8163,0.9085,1.01,0.9969,1.0852,1.1255,0.9784,0.9757,0.9716,0.884,0.0,1.2837,1.6591,0.0,2.054,2.3708,2.4603,2.54,0.0,0.0,2.8127,3.0237,3.0626,3.0858,3.1289,3.2073,3.2076,3.1229,3.2865,3.4295,3.535,3.5552,3.602,3.6983,3.6126,3.5545,3.5325,3.4539,3.4539,3.5005,3.4944,3.5086,3.5394,3.556,3.5611,3.5618,3.6995,3.6912,3.6009,3.6771,3.6165,3.4956,3.4754,3.5005,3.5458,3.4777,3.4881,3.5458,3.5129,3.5025,3.5129,3.5827,3.6194,3.6215,3.484,3.486,3.4881,3.3544,3.3524,3.3902,3.3776,3.3555,3.376,3.4548,3.4632,3.4757,3.5253,3.5924,3.6324,3.6417,3.7572,3.8432,3.8432,3.893,3.9308,3.9308,3.9308,3.94,3.9629,3.9882,4.0249,4.0709,4.1007,4.1283,4.1558,4.1339,4.1497,4.1926,4.2201,4.2339,4.2339,4.2339,4.2339,4.2339,4.2339,4.2339,4.2339,4.2339,4.2339,0.6594,0.754,0.8922,1.0325,1.1794,1.3136,1.3902,1.4911,1.5172,1.3574,1.3493,1.3058,1.105,1.283,0.0,2.1973,2.209,2.2378,2.5315,2.491,2.4927,2.6559,2.7252,2.8655,3.1391,3.1968,3.2185,3.1943,3.2819,3.3016,3.1989,3.4053,3.5588,3.6307,3.6834,3.7155,3.7247,3.7196,3.6678,3.5779,3.5439,3.5685,3.6498,3.609,3.6501,3.7406,3.6912,3.7023,3.7593,3.8656,3.8248,3.7138,3.8077,3.7493,3.5992,3.552,3.6338,3.7506,3.6581,3.6803,3.7528,3.7197,3.7054,3.6967,3.8118,3.8216,3.7648,3.6396,3.6902,3.7188,3.4007,3.4027,3.4881,3.4757,3.4507,3.4612,3.5848,3.5971,3.5992,3.646,3.7188,3.779,3.779,3.867,3.9308,3.9308,3.9308,3.9308,3.9308,3.9308,3.9308,3.9308,3.9652,3.9928,4.0043,4.041,4.08,4.1191,4.1329,4.1443,4.1558,4.1948,4.2224,4.2339,4.2339,4.2339,4.2339,4.2339,4.2339,4.2339,4.2339,4.2339,0.6943,0.8917,1.0923,1.0805,1.0447,1.099,1.4473,1.4337,1.3916,1.5496,1.6428,1.6448,0.0,1.557,1.7593,2.08,2.3369,2.5897,2.8601,0.0,3.0438,3.14,3.1922,3.3043,3.5223,3.4936,3.5135,3.6475,3.4933,3.4749,3.67,3.6148,3.64,3.752,3.7656,3.745,3.6992,3.8309,3.8044,3.6117,3.6365,3.7291,3.8735,3.7339,3.8067,4.0527,3.9304,3.9084,3.9831,4.031,4.0245,3.9803,4.0199,3.9943,3.9053,3.7265,3.7506,3.8676,3.8748,3.8535,3.8291,3.898,3.8702,3.8194,3.8761,3.9419,3.9428,3.7265,3.8957,4.0152,3.5458,3.5253,3.6135,3.5869,3.5746,3.6215,3.7768,3.7648,3.767,3.9498,3.9521,3.919,3.919,3.919,3.9308,3.9308,3.9308,3.9308,3.9308,3.9308,3.9308,3.9308,3.9331,3.9538,4.002,4.0089,4.0135,4.0158,4.0617,4.1076,4.1558,4.1604,4.1857,4.2339,4.2339,4.2339,4.2339,4.2339,4.2339,4.2339,4.2339,4.2339,0.783,1.0565,1.3179,1.2592,1.3289,1.4902,1.7933,1.9183,1.9788,1.9908,2.0874,2.1179,0.0,0.0,2.2329,2.5146,2.7531,2.9574,3.075,3.2086,3.2733,3.2313,3.3604,3.5046,3.6162,3.6649,3.6632,3.5979,3.6564,3.6725,3.625,3.6744,3.7437,3.8536,3.792,3.8248,3.9419,3.9419,3.9564,3.9878,3.9989,3.9898,3.9514,3.982,4.0548,4.1657,4.088,4.0716,4.0881,4.1692,4.145,4.0384,4.05,4.0384,3.9919,3.9193,3.9663,4.0755,4.0364,4.0387,4.0571,4.0999,4.0575,4.0199,4.1201,4.1384,4.0985,3.9499,4.0361,4.0755,3.6924,3.7045,3.8127,3.8246,3.8127,3.8365,3.9709,3.9826,3.9826,4.0571,4.0223,3.9989,4.0339,4.0106,3.9989,4.0339,4.0455,4.0455,4.0455,4.0106,3.9873,3.9873,3.9544,3.9495,4.0152,4.0176,4.0293,4.0763,4.0545,4.0433,4.0617,4.0938,4.1191,4.1397,4.1696,4.1857,4.1857,4.2178,4.2339,4.2339,4.2339,4.2339,0.8782,1.1304,1.3883,1.4202,1.5545,1.7738,2.1206,2.2385,2.2956,2.3764,2.4887,2.5179,2.3864,0.0,0.0,0.0,3.0745,3.2378,3.2674,3.3835,3.458,3.405,3.544,3.668,3.724,3.801,3.7825,3.6231,3.7645,3.7903,3.6317,3.7472,3.8251,3.8745,3.8666,3.937,4.0906,4.1189,4.1764,4.2468,4.3295,4.2721,4.1086,4.1482,4.2312,4.3526,4.2463,4.2248,4.2774,4.3361,4.2799,4.1558,4.1076,4.1076,4.1215,4.0731,4.1426,4.2648,4.2044,4.2225,4.2584,4.2725,4.2274,4.1859,4.2962,4.2887,4.2224,4.1474,4.1801,4.1759,3.951,3.9561,4.0153,4.0411,4.0294,4.0364,4.1172,4.1263,4.1148,4.1378,4.0918,4.0571,4.1033,4.0803,4.0571,4.1033,4.1148,4.1148,4.1148,4.0687,4.0455,4.0455,4.0106,3.9989,4.0455,4.0455,4.0687,4.1033,4.0669,4.036,4.0403,4.0508,4.0663,4.0823,4.1168,4.1329,4.1329,4.1696,4.1948,4.2086,4.1926,4.1948,0.9733,1.1016,1.2847,1.5542,1.6637,1.8509,2.3944,2.2754,2.186,2.686,2.7924,2.8041,2.8171,2.9438,0.0,2.9781,3.2236,3.4225,3.4159,3.5039,3.6094,3.7275,3.7748,3.8113,3.8792,3.8792,3.8607,3.808,3.821,3.821,3.7596,3.861,3.8767,3.8005,4.0119,4.1146,4.0956,4.373,4.4545,4.3488,4.5816,4.5768,4.3746,4.1928,4.2992,4.6326,4.3981,4.3919,4.5532,4.5309,4.4639,4.3789,4.21,4.2326,4.327,4.1987,4.2698,4.428,4.3968,4.3812,4.379,4.4156,4.3664,4.3087,4.3639,4.3413,4.2975,4.2955,4.3333,4.3801,4.377,4.2822,4.199,4.199,4.199,4.2055,4.207,4.1606,4.1263,4.1948,4.1606,4.1148,4.1148,4.1148,4.1148,4.1148,4.1148,4.1148,4.1148,4.1148,4.1148,4.1148,4.1148,4.1148,4.1148,4.1148,4.1148,4.1148,4.1148,4.1041,4.0975,4.0403,4.0295,4.08,4.08,4.0823,4.0823,4.0823,4.1076,4.1558,4.1053,4.1076,1.0171,1.3969,0.0,1.6917,0.0,2.375,2.5854,2.547,2.5881,3.0168,3.0308,2.9737,3.0127,3.1414,0.0,3.2347,3.421,3.5649,3.5841,3.7038,3.7796,3.7382,3.8613,3.944,3.9465,3.9581,3.921,3.834,3.8631,3.8742,3.8335,3.9611,4.047,4.055,4.2042,4.3202,4.4175,4.4864,4.5395,4.5843,4.6374,4.5901,4.467,4.4414,4.4891,4.6036,4.4917,4.4811,4.5309,4.5259,4.4748,4.4203,4.3823,4.3263,4.2544,4.2785,4.2811,4.2957,4.3588,4.3526,4.3288,4.3778,4.3551,4.3011,4.3162,4.3388,4.3589,4.3512,4.3676,4.4016,4.4736,4.4444,4.3813,4.3813,4.3813,4.3755,4.3323,4.3084,4.2985,4.2812,4.2287,4.1948,4.24,4.2061,4.1948,4.24,4.24,4.2287,4.1834,4.2152,4.2166,4.1725,4.1725,4.1958,4.2281,4.2054,4.1948,4.24,4.2061,4.1565,4.1133,4.0925,4.088,4.1022,4.1401,4.1591,4.1591,4.1466,4.1504,4.1644,4.1481,4.126,1.1762,1.5159,0.0,1.9986,2.2817,2.5994,2.8524,0.0,2.9511,3.2388,3.2653,3.2606,3.2947,3.415,0.0,3.5088,3.6178,3.7124,3.7436,3.854,3.9312,3.9393,3.9905,4.067,4.1559,4.067,3.9994,3.9973,3.955,3.9488,3.9685,4.0714,4.1672,4.2442,4.3861,4.4938,4.5727,4.6002,4.6428,4.6901,4.6692,4.6137,4.5341,4.5299,4.5565,4.6218,4.5552,4.5368,4.5502,4.518,4.4856,4.4613,4.4162,4.3573,4.284,4.2916,4.2932,4.2861,4.3313,4.3388,4.3313,4.3438,4.3237,4.2986,4.2986,4.3212,4.3564,4.4016,4.4141,4.4392,4.5522,4.5397,4.497,4.497,4.4794,4.4468,4.3915,4.3639,4.3363,4.3037,4.2737,4.2513,4.2986,4.2737,4.2625,4.2986,4.2986,4.295,4.2811,4.302,4.3177,4.3075,4.2788,4.2872,4.3218,4.2722,4.2625,4.2986,4.2625,4.2287,4.1834,4.1378,4.1148,4.1148,4.1461,4.1629,4.1629,4.1472,4.1615,4.1828,4.1615,4.1376,1.3949,1.5448,1.778,2.3824,2.5296,0.0,3.1505,3.2393,3.248,3.3542,0.0,3.5741,3.6007,3.7092,3.7866,3.7693,3.8065,3.8566,3.8969,3.9753,4.0743,4.2306,4.1498,4.1734,4.4193,4.1966,4.0927,4.2338,4.0927,4.0541,4.157,4.2084,4.276,4.4019,4.5683,4.6421,4.6242,4.726,4.7466,4.6895,4.6687,4.6179,4.5581,4.4963,4.5288,4.6319,4.5874,4.5822,4.6007,4.5154,4.5072,4.5127,4.3717,4.3496,4.3771,4.2848,4.2947,4.3702,4.3249,4.3425,4.3753,4.3137,4.3098,4.3098,4.2986,4.3011,4.3263,4.4192,4.4468,4.4719,4.5799,4.5673,4.5296,4.5372,4.4995,4.4468,4.3915,4.3413,4.3037,4.2986,4.2986,4.2986,4.2986,4.2986,4.2986,4.3037,4.3062,4.3263,4.379,4.3915,4.4141,4.4644,4.4217,4.3865,4.3865,4.3313,4.2986,4.2986,4.2986,4.2986,4.2986,4.1834,4.1263,4.1263,4.1263,4.1263,4.1263,4.1263,4.1389,4.1962,4.1365,4.1413,1.3905,1.7954,0.0,2.4746,2.795,3.1074,3.3195,3.3315,3.3313,3.4331,3.5163,3.5866,3.6504,3.6998,3.754,3.8115,3.8291,3.899,4.0434,4.0867,4.1419,4.2738,4.3003,4.3328,4.4151,4.3057,4.2913,4.4064,4.3145,4.3042,4.3936,4.523,4.6117,4.6439,4.7672,4.8339,4.8252,4.828,4.7954,4.7075,4.6974,4.6439,4.5458,4.4947,4.4854,4.5126,4.5971,4.635,4.635,4.6139,4.5928,4.5475,4.5129,4.457,4.388,4.411,4.3759,4.322,4.3551,4.3755,4.3832,4.3235,4.3321,4.3679,4.3098,4.3288,4.3589,4.3388,4.3338,4.3489,4.4166,4.394,4.374,4.4593,4.4719,4.4468,4.3915,4.3714,4.3489,4.3062,4.2986,4.2986,4.2986,4.2986,4.3112,4.3564,4.3614,4.3815,4.4367,4.4844,4.5171,4.5296,4.4794,4.4443,4.4443,4.3539,4.2986,4.2986,4.2986,4.2986,4.2986,4.2762,4.2625,4.2625,4.2625,4.2625,4.2625,4.2174,4.1883,4.2005,4.1883,4.1655,1.5508,0.0,0.0,2.6518,0.0,3.2818,3.3781,3.4674,3.5574,3.6146,3.6308,3.6621,3.7585,3.7749,3.8012,3.8574,3.8871,3.9544,4.1382,4.1923,4.2749,4.4461,4.4222,4.4566,4.6413,4.4902,4.4361,4.5568,4.4617,4.459,4.5796,4.6755,4.756,4.8338,4.9005,4.9207,4.8909,4.8467,4.7858,4.7051,4.6771,4.6097,4.4952,4.5056,4.4963,4.4773,4.5967,4.6482,4.6482,4.6482,4.635,4.6007,4.5395,4.505,4.4705,4.4411,4.4089,4.3898,4.4209,4.4313,4.4203,4.3653,4.3764,4.4203,4.3406,4.3609,4.3899,4.3371,4.3184,4.331,4.3639,4.3388,4.3299,4.4358,4.4446,4.4141,4.3865,4.3589,4.3313,4.3037,4.2986,4.2986,4.2986,4.3187,4.3564,4.4116,4.4192,4.4392,4.497,4.5296,4.5598,4.5849,4.5121,4.4618,4.4618,4.3614,4.2986,4.2986,4.2986,4.2986,4.2986,4.2986,4.2986,4.2986,4.2986,4.2986,4.2986,4.2625,4.2513,4.2513,4.2513,4.2287,1.6678,1.9396,2.2215,2.8471,3.1529,0.0,3.3939,3.5733,3.7543,3.8266,3.8061,3.8126,3.9029,3.9002,3.9029,3.9482,3.9812,4.0558,4.2398,4.3176,4.4366,4.661,4.5751,4.6135,4.9134,4.6882,4.5768,4.7207,4.5968,4.5857,4.7532,4.7574,4.8195,4.9669,4.9669,4.9444,4.8837,4.8293,4.7726,4.7038,4.6389,4.5785,4.5133,4.5686,4.5633,4.5048,4.6043,4.6665,4.695,4.6665,4.656,4.6714,4.5678,4.5472,4.5635,4.4917,4.4625,4.483,4.483,4.483,4.4722,4.4203,4.4422,4.4613,4.3848,4.3797,4.4023,4.3347,4.3136,4.3187,4.3336,4.3184,4.3144,4.4258,4.4153,4.3778,4.3778,4.3425,4.2986,4.2986,4.2986,4.2986,4.2986,4.3363,4.389,4.4518,4.4618,4.4869,4.5547,4.5623,4.5799,4.625,4.5397,4.4744,4.4644,4.3689,4.3087,4.2986,4.2986,4.2986,4.2986,4.2986,4.2986,4.2986,4.2986,4.2986,4.2986,4.2986,4.2986,4.2986,4.2986,4.2986,0.0,0.0,2.582,0.0,3.1364,3.2483,0.0,0.0,3.702,0.0,4.0375,4.0335,4.0548,4.0614,4.0935,4.1477,4.145,4.2263,4.4818,4.5327,4.6297,4.8654,4.8664,4.8763,4.9626,4.8057,4.7701,4.9202,4.7952,4.7808,4.9271,4.9193,4.9289,4.9669,4.9669,4.9407,4.876,4.8673,4.7969,4.6807,4.6143,4.6483,4.7673,4.7462,4.6899,4.6028,4.6326,4.7541,4.9092,4.726,4.7053,4.7819,4.7633,4.7074,4.6455,4.7225,4.6424,4.518,4.5395,4.5287,4.5072,4.4748,4.4856,4.4964,4.4422,4.3842,4.3325,4.2541,4.2134,4.1879,4.1667,4.2185,4.2835,4.3403,4.3727,4.3891,4.3891,4.3371,4.2986,4.2986,4.2986,4.2986,4.2986,4.3037,4.3438,4.4468,4.4618,4.4995,4.6075,4.62,4.6225,4.6301,4.5748,4.5171,4.4669,4.4041,4.3489,4.3011,4.2986,4.2986,4.2986,4.2986,4.2986,4.2986,4.2986,4.2986,4.2986,4.2986,4.2986,4.2986,4.2986,4.2986,1.6102,2.1665,2.6737,0.0,3.1476,3.242,3.4402,3.589,3.7665,4.0447,4.1572,4.2103,4.1918,4.1983,4.2268,4.3089,4.2983,4.3614,4.6111,4.6567,4.7268,4.9182,4.9228,4.9427,5.0253,4.9493,4.9107,4.953,4.8945,4.8711,4.8975,4.8899,4.8952,4.9117,4.9692,4.9545,4.874,4.9783,4.9644,4.8353,4.8083,4.8083,4.8207,4.8385,4.815,4.7577,4.8028,4.8995,5.0075,4.8738,4.8723,4.9381,4.9037,4.8596,4.8324,4.8696,4.7892,4.661,4.6714,4.661,4.6296,4.5154,4.5555,4.6296,4.4938,4.4731,4.4647,4.3154,4.2758,4.2669,4.2113,4.2293,4.3101,4.5021,4.5421,4.5502,4.6397,4.4752,4.3098,4.3432,4.3543,4.3644,4.395,4.3664,4.3815,4.4945,4.5095,4.5397,4.62,4.6301,4.6301,4.6301,4.5824,4.5246,4.4669,4.4116,4.3564,4.3011,4.2986,4.2986,4.2986,4.2986,4.2986,4.2986,4.2986,4.2986,4.2986,4.2986,4.2986,4.2986,4.2986,4.2874,0.0,0.0,2.4958,2.8769,3.0468,3.176,0.0,0.0,3.8324,0.0,4.1991,4.2942,4.2759,4.3009,4.3613,4.4509,4.4593,4.511,4.7081,4.7701,4.85,4.9646,4.945,4.9809,5.119,5.033,4.9692,4.9922,4.9789,4.9461,4.8669,4.8916,4.9119,4.9106,4.9528,4.9626,4.9345,5.0425,5.0629,4.9863,4.9572,4.9358,4.9148,4.9728,5.0035,5.01,4.9902,5.0467,5.1297,5.0311,5.03,5.0974,5.0203,4.9873,4.965,4.9873,4.9161,4.7993,4.8094,4.8094,4.7689,4.6058,4.637,4.7059,4.5633,4.5511,4.5441,4.3766,4.3614,4.3742,4.2837,4.3075,4.4197,4.6531,4.7011,4.7094,4.7881,4.5845,4.3932,4.4094,4.4203,4.4526,4.5025,4.4771,4.4934,4.6295,4.6039,4.5969,4.6773,4.6541,4.6301,4.6301,4.5949,4.5472,4.4895,4.4342,4.3765,4.3212,4.3062,4.2986,4.2986,4.2986,4.2986,4.2986,4.2986,4.2986,4.2986,4.2986,4.2986,4.2986,4.2986,4.2849,0.0,1.6695,0.0,2.5013,2.7452,2.9594,0.0,0.0,3.8254,3.9887,4.1487,4.2626,4.2626,4.3765,4.4939,4.5844,4.6368,4.705,4.8096,4.9257,5.0269,5.0674,5.0095,5.0552,5.2634,5.0206,4.9364,5.1329,5.0993,5.015,4.904,5.0092,5.0575,5.0324,4.9097,4.9345,5.1147,4.9983,4.982,5.0555,4.9408,4.9977,5.1789,5.2313,5.2947,5.3682,5.1558,5.1684,5.3407,5.1394,5.1199,5.2067,5.1285,5.0449,4.9776,5.0639,5.0228,4.9161,4.9357,4.9357,4.8964,4.8094,4.7298,4.6696,4.655,4.569,4.4747,4.4108,4.4373,4.4373,4.2971,4.4583,4.6512,4.6696,4.7715,4.8183,4.6785,4.6265,4.5899,4.4804,4.5127,4.5608,4.611,4.6137,4.6859,4.8779,4.7481,4.6725,4.8169,4.7205,4.6301,4.6301,4.6276,4.605,4.5497,4.492,4.4342,4.379,4.3263,4.2986,4.2986,4.2986,4.2986,4.2986,4.2986,4.2986,4.2986,4.2986,4.2986,4.2986,4.2986,4.2849,0.0,0.0,0.0,2.1927,2.5312,2.8491,3.1674,3.4679,3.7495,3.9999,4.0987,4.182,4.3475,4.3743,4.4301,4.6067,4.7153,4.8341,4.9881,5.1046,5.1506,5.1075,5.1623,5.1991,5.215,5.2002,5.2091,5.2255,5.2229,5.1621,5.0533,5.0882,5.1045,5.0757,5.091,5.1559,5.2828,5.0944,5.0423,5.1232,5.0609,5.1077,5.2597,5.2511,5.329,5.476,5.426,5.4443,5.4821,5.3277,5.3061,5.3647,5.2551,5.1911,5.1635,5.2002,5.1296,5.0228,5.0228,5.0228,5.0007,4.8837,4.8505,4.847,4.7795,4.7128,4.631,4.4733,4.5021,4.5581,4.4645,4.5558,4.715,4.9088,5.0461,5.0704,4.8837,4.7661,4.6943,4.7225,4.6943,4.684,4.7707,4.7476,4.7652,4.8798,4.7704,4.7166,4.7959,4.7067,4.6636,4.7416,4.7416,4.7184,4.6734,4.6501,4.5796,4.4367,4.3815,4.3514,4.3514,4.3162,4.2986,4.2986,4.2986,4.2986,4.2986,4.2986,4.2986,4.2986,4.2986,4.2849,1.1508,0.0,0.0,0.0,2.2282,2.5825,2.9571,3.2669,3.5712,3.9104,3.9951,4.0747,4.3341,4.3414,4.4089,4.7085,4.8635,4.9922,5.1334,5.2332,5.2612,5.175,5.2671,5.3132,5.2915,5.34,5.3684,5.3492,5.3477,0.0,5.1256,5.1831,5.1654,5.0455,5.1685,5.2471,5.2549,5.1304,5.0943,5.1534,5.1438,5.2005,5.3092,5.353,5.4491,5.575,5.6404,5.6278,5.5592,5.4421,5.4237,5.4513,5.3131,5.2608,5.2608,5.2698,5.2094,5.1203,5.1296,5.1296,5.1109,4.9882,4.9516,4.9397,4.8623,4.8021,4.7229,4.5881,4.639,4.7079,4.6543,4.7263,4.8711,5.102,5.2002,5.2002,5.0258,4.8865,4.7993,4.7965,4.7892,4.7993,4.8837,4.9005,4.9264,5.0398,4.9036,4.8164,4.887,4.8162,4.7665,4.8382,4.8946,4.9007,4.8519,4.788,4.696,4.5591,4.4483,4.3876,4.3815,4.3325,4.305,4.2874,4.2986,4.2961,4.2849,4.2986,4.2986,4.2986,4.2986,4.2849,0.0,0.0,0.0,0.0,0.0,0.0,2.7222,0.0,3.2809,3.708,3.8374,3.9446,4.1853,4.2708,4.4522,4.9034,5.0638,5.1486,5.2269,5.3132,5.3508,5.2977,5.3131,5.3833,5.5225,5.4214,5.3891,5.5049,5.4922,5.3665,5.1118,5.2816,5.2566,4.9611,5.1371,5.172,5.034,5.0943,5.1327,5.1327,5.1946,5.2625,5.3281,5.5447,5.6657,5.6898,5.7557,5.7059,5.5653,5.4819,5.4354,5.4202,5.2826,5.2306,5.2306,5.2608,5.2518,5.2306,5.2608,5.2518,5.2185,5.1419,5.0333,4.9254,4.9164,4.8237,4.7339,4.7703,4.8447,4.9012,4.8478,4.9757,5.1296,5.2094,5.2306,5.1911,5.0639,4.9969,4.8993,4.7053,4.7847,4.8993,4.9582,5.0603,5.1961,5.3985,5.1641,5.0122,5.1059,5.0326,4.9576,4.9144,5.0545,5.1316,5.0823,4.9193,4.7887,4.7372,4.5411,4.4095,4.3865,4.3497,4.3109,4.2562,4.2899,4.2874,4.2513,4.2874,4.2986,4.2986,4.2986,4.2849,0.8702,0.0,0.0,0.0,0.0,0.0,0.0,0.0,2.975,3.4035,3.5812,3.7889,4.1994,4.4121,4.6344,4.9403,4.9972,5.0603,5.2209,5.3632,5.4246,5.3773,5.5127,5.583,5.497,5.5629,5.6007,0.0,5.5538,5.4842,5.3486,5.2835,5.2198,5.1287,5.1348,5.1164,5.0781,5.0974,5.1308,5.1815,5.2543,5.3777,5.5335,5.6024,5.673,5.7557,5.7243,5.6839,5.6155,5.507,5.4329,5.3745,5.2582,5.2063,5.2063,5.2185,5.2185,5.2063,5.2306,5.2397,5.2306,5.2306,5.121,5.0026,5.0201,4.9169,4.797,4.7614,4.8207,4.8978,4.9917,5.0956,5.1849,5.2215,5.2246,5.1757,5.0573,5.0287,5.0066,4.965,4.9776,5.0287,5.1326,5.2213,5.2884,5.328,5.1449,5.0342,5.1468,4.9987,4.9556,5.1222,5.208,5.2373,5.2051,5.0575,4.904,4.76,4.5733,4.4724,4.4668,4.4178,4.3705,4.3159,4.3475,4.325,4.2513,4.2874,4.2986,4.2986,4.2986,4.2849,0.8326,0.9129,1.015,1.1107,0.0,0.0,0.0,0.0,0.0,0.0,3.5791,3.7924,4.2253,4.4094,4.5925,4.8791,4.909,4.9996,5.2591,5.3671,5.4285,5.4507,5.5821,5.6264,5.5493,5.6274,5.6589,5.6151,5.544,5.4552,5.3632,5.1914,5.1177,5.1575,5.0799,5.0609,5.0974,5.0974,5.148,5.2491,5.3471,5.4735,5.6189,5.6789,5.7393,5.7871,5.7556,5.6961,5.6121,5.5317,5.4575,5.3713,5.2763,5.2337,5.2155,5.2246,5.2063,5.188,5.2215,5.2215,5.2185,5.2091,5.1264,5.0289,5.0493,4.9671,4.8657,4.9042,4.9674,5.0365,5.1083,5.1695,5.2155,5.2033,5.1972,5.1509,5.0316,5.0316,5.0478,4.994,5.0162,5.0757,5.1717,5.267,5.3314,5.3462,5.1736,5.0816,5.1619,5.0455,5.0185,5.1946,5.2906,5.3318,5.2733,5.1084,4.9359,4.7679,4.659,4.5454,4.4674,4.4878,4.4577,4.3498,4.3821,4.3662,4.2885,4.2975,4.2986,4.2986,4.2986,4.2874,0.8155,0.8723,0.9441,0.9904,0.0,0.0,0.0,0.0,0.0,0.0,3.5592,3.7344,4.0891,4.1895,4.307,4.6113,4.7123,4.8767,5.2757,5.3295,5.3755,5.5059,5.5525,5.5837,5.6085,5.6015,5.5859,5.5632,5.4438,5.323,5.22,5.0466,4.9976,5.0767,5.0007,5.0007,5.0974,5.1132,5.1922,5.326,5.4616,5.5658,5.6441,5.7706,5.8182,5.7965,5.8024,5.7235,5.5799,5.5462,5.4753,5.3861,5.3241,5.2698,5.2398,5.2549,5.2185,5.1693,5.2063,5.2155,5.188,5.1544,5.0873,5.0323,5.0411,4.9778,4.9361,5.0784,5.1697,5.2124,5.1972,5.2063,5.2124,5.1665,5.1572,5.1199,4.9999,5.0316,5.0412,4.9219,4.9805,5.0714,5.1364,5.2442,5.3343,5.3884,5.2269,5.1279,5.1862,5.1461,5.1279,5.1832,5.336,5.3975,5.2911,5.1005,4.9253,4.792,4.7336,4.6239,4.4577,4.5497,4.5405,4.3826,4.3943,4.3763,4.3283,4.3125,4.2936,4.2886,4.2936,4.2936,0.0,0.0,0.0,0.0,0.0,0.0,0.0,1.6759,1.8708,0.0,2.5627,2.7833,3.1076,3.3599,3.5413,3.6135,3.9566,4.4149,4.9904,5.1592,5.2722,5.3984,5.4956,5.5216,5.4269,5.4537,5.4173,5.2902,5.2061,5.134,5.0755,4.989,4.9403,4.964,4.9595,4.9958,5.0762,5.1863,5.3036,5.4536,5.5799,5.6895,5.7587,5.8056,5.8274,5.8211,5.7073,5.6441,5.6005,5.4869,5.4072,5.3476,5.2997,5.2825,5.2763,5.2246,5.209,5.2012,5.1846,5.1665,5.1665,5.182,5.1243,5.0577,5.0788,5.0243,4.9672,5.0457,5.106,5.1509,5.1602,5.1572,5.1479,5.1572,5.1293,5.0887,5.0603,5.0537,5.0471,5.0183,5.0442,5.1001,5.1876,5.2282,5.2617,5.3278,5.1886,5.1081,5.2312,5.1571,5.1503,5.2597,5.358,5.3784,5.3174,5.1483,5.0009,4.9052,4.711,4.6064,4.6195,4.5547,4.5027,4.4734,4.3826,4.3008,4.2372,4.2812,4.2624,4.1977,4.2649,4.2735,0.0,0.0,0.0,0.9735,0.0,0.0,0.0,0.0,1.7864,2.1849,2.3689,2.5437,2.8124,3.0067,3.1634,3.2732,3.7238,4.1017,4.2138,4.7074,5.0971,5.2371,5.3263,5.3607,5.3031,5.3172,5.2625,5.1279,5.0943,5.0492,4.9657,4.9315,4.921,4.9291,4.9291,5.0059,5.1549,5.2238,5.3615,5.5681,5.643,5.7119,5.7684,5.7965,5.7776,5.7121,5.6615,5.5924,5.5234,5.4718,5.4128,5.3726,5.3465,5.333,5.316,5.316,5.3101,5.2882,5.2579,5.2457,5.2366,5.1607,5.097,5.0608,5.0789,5.0698,5.0668,5.0816,5.1146,5.1386,5.1386,5.1386,5.1386,5.1199,5.1011,5.0822,5.0632,5.0471,5.0309,5.0309,5.0375,5.0744,5.1713,5.2293,5.2695,5.2502,5.1464,5.0916,5.1927,5.1076,5.0787,5.1991,5.2292,5.2282,5.1929,5.063,4.9408,4.8479,4.792,4.7171,4.631,4.6245,4.5792,4.4973,4.401,4.3381,4.3057,4.3367,4.2775,4.132,4.1977,4.2188,0.0,0.0,0.0,0.0,0.0,1.1144,0.0,0.0,0.0,0.0,0.0,0.0,0.0,0.0,0.0,0.0,0.0,0.0,0.0,4.0127,0.0,4.8119,5.0172,5.1077,5.0248,5.0121,4.9927,4.9778,4.9421,4.9153,4.8996,4.8872,4.8922,4.9178,4.9202,5.0195,5.2293,5.2573,5.3944,5.6404,5.6715,5.7059,5.737,5.7559,5.709,5.6155,5.6093,5.5436,5.4407,5.446,5.4348,5.4017,5.4103,5.4002,5.3814,5.4006,5.4109,5.3929,5.3377,5.3254,5.307,5.1364,5.0788,5.0788,5.0788,5.115,5.1479,5.1229,5.1416,5.1479,5.1229,5.1416,5.1386,5.1011,5.0822,5.0728,5.0501,5.0279,4.999,4.999,5.0174,5.0535,5.1258,5.2062,5.2375,5.1795,5.1072,5.0778,5.1289,5.0508,5.0124,5.0947,5.0917,5.0728,5.0501,4.9779,4.8979,4.8122,4.8798,4.8397,4.6572,4.698,4.6502,4.4548,4.4135,4.3965,4.4059,4.3924,4.2782,4.0963,4.1618,4.1693,0.0,0.0,0.0,0.0,1.0454,0.0,0.0,0.0,1.2864,1.3213,0.0,0.0,0.0,0.0,0.0,0.0,0.0,0.0,2.4414,2.998,3.5027,0.0,0.0,0.0,0.0,4.2771,4.4289,4.7589,4.5329,4.5321,4.881,4.8407,4.8233,4.8687,4.947,5.0576,5.2002,5.321,5.4574,5.6123,5.6807,5.7117,5.718,5.684,5.6528,5.6404,5.5156,5.4563,5.4345,5.3752,5.3528,5.3552,5.3931,5.4568,5.4971,5.3641,5.4021,5.4874,5.2916,5.258,5.2882,5.2123,5.1666,5.1482,5.1482,5.1326,5.1229,5.1229,5.1229,5.1229,5.1229,5.1229,5.1229,5.1229,5.0852,5.0501,5.0501,5.0086,4.9766,4.9766,5.0457,5.1062,5.115,5.074,5.0661,5.1385,5.0972,5.056,5.0596,5.0632,5.0632,5.0596,5.0728,5.0728,5.0501,5.0405,5.0086,4.9863,4.9121,4.8724,4.8594,4.7136,4.545,4.3723,4.3553,4.3866,4.4502,4.3217,4.2013,4.0842,4.1966,4.1582,0.0,0.0,0.0,0.0,0.0,0.0,1.1265,0.0,1.1349,0.0,0.0,0.0,0.0,0.0,0.0,0.0,1.9622,0.0,0.0,0.0,0.0,0.0,0.0,0.0,0.0,0.0,0.0,0.0,4.5073,4.517,4.9202,4.9511,4.9427,4.922,4.9982,5.1086,5.2414,5.3312,5.4761,5.6522,5.6865,5.6772,5.6306,5.631,5.5752,5.4792,5.4235,5.383,5.3637,5.3357,5.3321,5.3377,5.364,5.3928,5.4282,5.4411,5.4882,5.538,5.4451,5.4112,5.3743,5.2213,5.1695,5.1572,5.1416,5.1323,5.1229,5.1229,5.1229,5.1229,5.1229,5.1229,5.1135,5.1011,5.0822,5.0567,5.0279,5.0086,4.9892,4.9766,5.0096,5.0496,5.0271,5.0486,5.071,5.072,5.0455,5.0309,5.0501,5.0471,5.0375,5.0279,5.0154,5.0154,5.0279,5.0279,5.0154,5.0086,4.9577,4.872,4.7334,4.6624,4.5335,4.3481,4.3912,4.4383,4.5045,4.4954,4.3929,4.2159,4.243,4.1752,1.4603,0.0,0.0,0.0,0.0,0.0,0.0,0.0,0.0,0.0,0.0,0.0,0.0,0.0,0.0,0.0,0.0,1.9213,0.0,0.0,0.0,0.0,0.0,0.0,0.0,0.0,0.0,0.0,0.0,4.4044,4.9211,4.9866,4.9812,4.9404,5.0051,5.1067,5.2421,5.3098,5.436,5.6207,5.6367,5.6089,5.5407,5.5441,5.4823,5.3714,5.3529,5.325,5.2997,5.2997,5.3055,5.3201,5.3201,5.3326,5.3606,5.4722,5.5345,5.5596,5.5348,5.473,5.3868,5.2521,5.1941,5.1695,5.1572,5.1416,5.1229,5.1229,5.1229,5.1229,5.1229,5.1229,5.1105,5.0917,5.0822,5.0728,5.0279,5.0183,5.0086,4.9892,4.999,5.0086,4.999,5.0467,5.0613,5.0048,5.0086,5.0183,5.0279,5.0183,5.0086,4.999,4.9766,4.9766,4.999,5.0233,5.035,5.035,4.993,4.8663,4.6464,4.6221,4.5512,4.3885,4.4336,4.4965,4.5962,4.6082,4.5381,4.4141,4.3342,4.2152,0.0,0.0,0.0,1.4258,0.0,0.0,0.0,0.0,1.2368,0.0,0.0,0.0,0.0,0.0,0.0,0.0,0.0,0.0,0.0,0.0,0.0,0.0,0.0,0.0,0.0,0.0,0.0,0.0,0.0,0.0,4.8593,4.853,4.8416,4.8666,4.9343,5.0359,5.1713,5.2421,5.3437,5.4791,5.4791,5.4791,5.473,5.4083,5.3775,5.3683,5.3037,5.2729,5.2698,5.2698,5.2729,5.2698,5.2698,5.3129,5.3683,5.4018,5.4946,5.5875,5.4329,5.3345,5.2849,5.3233,5.2698,5.1972,5.2215,5.1757,5.1229,5.1229,5.1229,5.1229,5.1229,5.1229,5.1229,5.1229,5.1011,5.0728,5.0501,5.0279,5.0086,5.0086,5.0086,5.0183,5.0405,5.0309,5.0019,4.9795,4.9892,4.999,4.9766,4.999,4.999,4.9766,4.9669,4.9669,4.9669,5.0446,5.0993,5.0993,5.0269,4.8844,4.6791,4.6411,4.5779,4.4582,4.4582,4.5623,4.7645,4.5597,4.532,4.6412,4.4928,4.2896,2.0156,2.0391,2.0112,1.7376,1.7456,0.0,0.0,0.0,0.0,0.0,0.0,0.0,0.0,0.0,0.0,0.0,0.0,0.0,0.0,0.0,0.0,0.0,0.0,0.0,0.0,0.0,0.0,0.0,0.0,0.0,0.0,4.8688,4.8804,4.8858,4.9818,5.0574,5.1036,5.2144,5.316,5.4052,5.4514,5.4483,5.4052,5.3837,5.3468,5.3037,5.2821,5.2698,5.2698,5.2698,5.2698,5.2698,5.2698,5.3129,5.3775,5.4329,5.5039,5.5655,5.4699,5.4052,5.3585,5.3121,5.2788,5.2577,5.2124,5.1849,5.1572,5.1323,5.1229,5.1229,5.1229,5.1229,5.1229,5.1229,5.1105,5.1011,5.0728,5.0567,5.0405,5.0405,5.0405,5.0405,5.0501,5.0405,5.0279,4.999,4.9892,4.9766,4.9669,4.9766,4.9766,4.9669,4.9669,4.9843,5.0307,5.1216,5.1491,5.1052,5.0627,4.938,4.7047,4.6509,4.5766,4.4643,4.5031,4.5681,4.681,4.6464,4.6081,4.5348,4.5132,4.373,2.2736,2.3147,2.292,1.9906,2.0381,2.0421,1.6291,0.0,1.5486,0.0,0.0,0.0,0.0,0.0,0.0,0.0,0.0,0.0,0.0,0.0,0.0,0.0,0.0,0.0,0.0,0.0,0.0,0.0,0.0,0.0,0.0,0.0,4.8257,4.8343,4.9286,4.9824,5.0069,5.1102,5.2082,5.3006,5.3437,5.356,5.3375,5.3375,5.3129,5.2698,5.2698,5.2698,5.2698,5.2698,5.2698,5.2729,5.2975,5.3498,5.4145,5.4576,5.4976,5.5284,5.4977,5.4329,5.3644,5.321,5.3055,5.2935,5.2397,5.2033,5.1757,5.1293,5.1229,5.1229,5.1229,5.1229,5.1229,5.1229,5.1229,5.1105,5.0917,5.0662,5.0501,5.0567,5.0596,5.0596,5.0692,5.0662,5.0471,5.0183,4.9892,4.9669,4.9669,4.9669,4.9669,4.9669,4.9669,4.993,5.0627,5.1437,5.1424,5.0456,5.0227,4.9076,4.7102,4.6583,4.6035,4.5245,4.5635,4.6062,4.6464,4.6855,4.6357,4.513,4.4789,4.3763]},{"header":{"parameterUnit":"m.s-1","parameterCategory":1,"la1":30.6,"la2":29.2853,"lo1":-89.7004,"lo2":-87.6739,"dx":0.0162,"dy":0.0183,"nx":112,"ny":82,"refTime":"2023-01-06T06:00:00:Z","depth":0,"parameterNumber":3,"parameterNumberName":"V-component_of_WINDS"},"data":[0.0,0.0,0.0,0.0,0.0,0.0,0.0,0.0,0.0,0.0,0.0,0.0,0.0,0.0,0.0,0.0,0.0,0.0,0.0,0.0,0.0,0.0,0.0,0.0,0.0,0.0,0.0,0.0,0.0,0.0,0.0,0.0,0.0,0.0,0.0,0.0,0.0,0.0,0.0,0.0,0.0,0.0,0.0,0.0,0.0,0.0,0.0,0.0,0.0,0.0,0.0,0.0,0.0,0.0,0.0,0.0,0.0,0.0,0.0,0.0,0.0,0.0,0.0,0.0,0.0,0.0,0.0,0.0,0.0,0.0,0.0,0.0,0.0,0.0,0.0,0.0,0.0,0.0,0.0,0.0,0.0,0.0,0.0,0.0,0.0,0.0,0.0,0.0,0.0,0.0,-3.9441,-4.0115,-4.1458,-4.2917,-4.445,-4.2804,-4.1362,-4.0607,0.0,0.0,0.0,0.0,0.0,0.0,0.0,0.0,0.0,0.0,0.0,0.0,0.0,0.0,0.0,0.0,0.0,0.0,0.0,0.0,0.0,0.0,0.0,0.0,0.0,0.0,0.0,0.0,0.0,0.0,0.0,0.0,0.0,0.0,0.0,0.0,0.0,0.0,0.0,0.0,0.0,0.0,0.0,0.0,0.0,0.0,0.0,0.0,0.0,0.0,0.0,0.0,0.0,0.0,0.0,0.0,0.0,0.0,0.0,0.0,0.0,0.0,0.0,0.0,0.0,0.0,0.0,0.0,0.0,0.0,0.0,0.0,0.0,0.0,0.0,0.0,0.0,0.0,0.0,0.0,0.0,0.0,0.0,0.0,0.0,0.0,0.0,0.0,0.0,0.0,0.0,0.0,0.0,0.0,0.0,0.0,0.0,0.0,0.0,0.0,0.0,0.0,0.0,0.0,-4.0437,-4.2591,-4.3369,-4.3754,-4.3915,-4.2743,-4.1983,-4.1845,0.0,0.0,0.0,0.0,0.0,0.0,0.0,0.0,0.0,0.0,0.0,0.0,0.0,0.0,0.0,0.0,0.0,0.0,0.0,0.0,0.0,0.0,0.0,0.0,0.0,0.0,0.0,0.0,0.0,0.0,0.0,0.0,0.0,0.0,0.0,0.0,0.0,0.0,0.0,0.0,0.0,0.0,0.0,0.0,0.0,0.0,0.0,0.0,0.0,0.0,0.0,0.0,0.0,0.0,0.0,0.0,0.0,0.0,0.0,0.0,0.0,0.0,0.0,0.0,0.0,0.0,0.0,0.0,0.0,0.0,0.0,0.0,0.0,0.0,0.0,0.0,0.0,0.0,0.0,0.0,0.0,0.0,0.0,0.0,0.0,0.0,0.0,0.0,0.0,0.0,0.0,0.0,0.0,0.0,0.0,0.0,0.0,0.0,0.0,0.0,0.0,0.0,0.0,-3.9776,-4.1886,-4.4073,-4.4124,-4.4358,-4.5339,-4.3857,-4.2825,-4.2812,-3.8877,0.0,0.0,0.0,0.0,0.0,0.0,0.0,0.0,0.0,0.0,0.0,0.0,0.0,0.0,0.0,0.0,0.0,0.0,0.0,0.0,0.0,0.0,0.0,0.0,0.0,0.0,0.0,0.0,0.0,0.0,0.0,0.0,0.0,0.0,0.0,0.0,0.0,0.0,0.0,0.0,0.0,0.0,0.0,0.0,0.0,0.0,0.0,0.0,0.0,0.0,0.0,0.0,0.0,0.0,0.0,0.0,0.0,0.0,0.0,0.0,0.0,0.0,0.0,0.0,0.0,0.0,0.0,0.0,0.0,0.0,0.0,0.0,0.0,0.0,0.0,0.0,0.0,0.0,0.0,0.0,0.0,0.0,0.0,0.0,0.0,0.0,0.0,0.0,0.0,0.0,0.0,0.0,0.0,0.0,0.0,0.0,0.0,0.0,0.0,0.0,0.0,0.0,-4.1181,-4.318,-4.5281,-4.4675,-4.4939,-4.7012,-4.5153,-4.3715,-4.3275,-3.9944,0.0,0.0,0.0,0.0,0.0,0.0,0.0,0.0,0.0,0.0,0.0,0.0,0.0,0.0,0.0,0.0,0.0,0.0,0.0,0.0,0.0,0.0,0.0,0.0,0.0,0.0,0.0,0.0,0.0,0.0,0.0,0.0,0.0,0.0,0.0,0.0,0.0,0.0,0.0,0.0,0.0,0.0,0.0,0.0,0.0,0.0,0.0,0.0,0.0,0.0,0.0,0.0,0.0,0.0,0.0,0.0,0.0,0.0,0.0,0.0,0.0,0.0,0.0,0.0,0.0,0.0,0.0,0.0,0.0,0.0,0.0,0.0,0.0,0.0,0.0,0.0,0.0,0.0,0.0,0.0,0.0,0.0,0.0,0.0,0.0,0.0,0.0,0.0,0.0,0.0,0.0,0.0,0.0,0.0,0.0,0.0,0.0,0.0,0.0,0.0,0.0,0.0,-4.1295,-4.3922,-4.6405,-4.5488,-4.5748,-4.818,-4.6364,-4.4407,-4.2824,-4.0272,0.0,0.0,0.0,0.0,0.0,0.0,0.0,0.0,0.0,0.0,0.0,0.0,0.0,0.0,0.0,0.0,0.0,0.0,0.0,0.0,0.0,0.0,0.0,0.0,0.0,0.0,0.0,0.0,0.0,0.0,0.0,0.0,0.0,0.0,0.0,0.0,0.0,0.0,0.0,0.0,0.0,0.0,0.0,0.0,0.0,0.0,0.0,0.0,0.0,0.0,0.0,0.0,0.0,0.0,0.0,0.0,0.0,0.0,0.0,0.0,0.0,0.0,0.0,0.0,0.0,0.0,0.0,0.0,0.0,0.0,0.0,0.0,0.0,0.0,0.0,0.0,0.0,0.0,0.0,0.0,0.0,0.0,0.0,0.0,0.0,0.0,0.0,0.0,0.0,0.0,0.0,0.0,0.0,0.0,0.0,0.0,0.0,0.0,0.0,0.0,0.0,0.0,-4.2603,-4.5472,-4.7682,-4.6063,-4.5874,-4.8504,-4.6572,-4.4674,-4.3471,0.0,0.0,0.0,0.0,0.0,0.0,0.0,0.0,0.0,0.0,0.0,0.0,0.0,0.0,0.0,0.0,0.0,0.0,0.0,0.0,0.0,0.0,0.0,0.0,0.0,0.0,0.0,0.0,0.0,0.0,0.0,0.0,0.0,0.0,0.0,0.0,0.0,0.0,0.0,0.0,0.0,0.0,0.0,0.0,0.0,0.0,0.0,0.0,0.0,0.0,0.0,0.0,0.0,0.0,0.0,0.0,0.0,0.0,0.0,0.0,0.0,0.0,0.0,0.0,0.0,0.0,0.0,0.0,0.0,0.0,0.0,0.0,0.0,0.0,0.0,0.0,0.0,0.0,0.0,0.0,0.0,0.0,0.0,0.0,0.0,0.0,0.0,0.0,0.0,0.0,0.0,0.0,0.0,0.0,0.0,0.0,0.0,0.0,0.0,0.0,0.0,0.0,-4.052,-4.3659,-4.669,-4.8884,-4.6871,-4.6464,-4.9158,-4.7586,-4.5524,-4.3247,0.0,0.0,0.0,0.0,0.0,0.0,0.0,0.0,0.0,0.0,0.0,0.0,0.0,0.0,0.0,0.0,0.0,0.0,0.0,0.0,0.0,0.0,0.0,0.0,0.0,0.0,0.0,0.0,0.0,0.0,0.0,0.0,0.0,0.0,0.0,0.0,0.0,0.0,0.0,0.0,0.0,0.0,0.0,0.0,0.0,0.0,0.0,0.0,0.0,0.0,0.0,0.0,0.0,0.0,0.0,0.0,0.0,0.0,0.0,0.0,0.0,0.0,0.0,0.0,0.0,0.0,0.0,0.0,0.0,0.0,0.0,0.0,0.0,0.0,0.0,0.0,0.0,0.0,0.0,0.0,0.0,0.0,0.0,0.0,0.0,0.0,0.0,0.0,0.0,0.0,0.0,0.0,0.0,0.0,0.0,0.0,0.0,0.0,0.0,0.0,0.0,0.0,-4.1047,-4.4189,-4.741,-4.9921,-4.8089,-4.7656,-5.0183,-4.9674,-4.7049,0.0,0.0,0.0,0.0,0.0,0.0,0.0,0.0,0.0,0.0,0.0,0.0,0.0,0.0,0.0,0.0,0.0,0.0,0.0,0.0,0.0,0.0,0.0,0.0,0.0,0.0,0.0,0.0,0.0,0.0,0.0,0.0,0.0,0.0,0.0,0.0,0.0,0.0,0.0,0.0,0.0,0.0,0.0,0.0,0.0,0.0,0.0,0.0,0.0,0.0,0.0,0.0,0.0,0.0,0.0,0.0,0.0,0.0,0.0,0.0,0.0,0.0,0.0,0.0,0.0,0.0,0.0,0.0,0.0,0.0,0.0,0.0,0.0,0.0,0.0,0.0,0.0,0.0,0.0,0.0,0.0,0.0,0.0,0.0,0.0,0.0,0.0,0.0,0.0,0.0,0.0,0.0,0.0,0.0,0.0,0.0,0.0,0.0,0.0,0.0,0.0,0.0,0.0,-4.28,-4.6603,-4.9548,-5.0402,-4.9831,-4.9719,-5.0427,-5.0317,-4.9067,-4.6282,0.0,0.0,0.0,0.0,0.0,0.0,0.0,0.0,0.0,0.0,0.0,0.0,0.0,0.0,0.0,0.0,0.0,0.0,0.0,0.0,0.0,0.0,0.0,0.0,0.0,0.0,0.0,0.0,0.0,0.0,0.0,0.0,0.0,0.0,0.0,0.0,0.0,0.0,0.0,0.0,0.0,0.0,0.0,0.0,0.0,0.0,0.0,0.0,0.0,0.0,0.0,0.0,0.0,0.0,0.0,0.0,0.0,0.0,0.0,0.0,0.0,0.0,0.0,0.0,0.0,0.0,0.0,0.0,0.0,0.0,0.0,0.0,0.0,0.0,0.0,0.0,0.0,0.0,0.0,0.0,0.0,0.0,0.0,0.0,0.0,0.0,0.0,0.0,0.0,0.0,0.0,0.0,0.0,0.0,0.0,0.0,0.0,0.0,0.0,0.0,0.0,0.0,-4.3825,-4.7444,-5.0291,-5.1162,-5.0966,-5.085,-5.1138,-5.1609,-5.0642,-4.7857,0.0,0.0,0.0,0.0,0.0,0.0,0.0,0.0,0.0,0.0,0.0,0.0,0.0,0.0,0.0,0.0,0.0,0.0,0.0,0.0,0.0,0.0,0.0,0.0,0.0,0.0,0.0,0.0,0.0,0.0,0.0,0.0,0.0,0.0,0.0,0.0,0.0,0.0,0.0,0.0,0.0,0.0,0.0,0.0,0.0,0.0,0.0,0.0,0.0,0.0,0.0,0.0,0.0,0.0,0.0,0.0,0.0,0.0,0.0,0.0,0.0,0.0,0.0,0.0,0.0,0.0,0.0,0.0,0.0,0.0,0.0,0.0,0.0,0.0,0.0,0.0,0.0,0.0,0.0,0.0,0.0,0.0,0.0,0.0,0.0,0.0,0.0,0.0,0.0,0.0,0.0,0.0,0.0,0.0,0.0,0.0,0.0,0.0,0.0,0.0,0.0,0.0,-4.4427,-4.7549,-5.0356,-5.2031,-5.1851,-5.1826,-5.2408,-5.3378,-5.2224,-4.8055,0.0,0.0,0.0,0.0,0.0,0.0,0.0,0.0,0.0,0.0,0.0,0.0,0.0,0.0,0.0,0.0,0.0,0.0,0.0,0.0,0.0,0.0,0.0,0.0,0.0,0.0,0.0,0.0,0.0,0.0,0.0,0.0,0.0,0.0,0.0,0.0,0.0,0.0,0.0,0.0,0.0,0.0,0.0,0.0,0.0,0.0,0.0,0.0,0.0,0.0,0.0,0.0,0.0,0.0,0.0,0.0,0.0,0.0,0.0,0.0,-2.4192,-2.0625,0.0,0.0,0.0,0.0,0.0,0.0,0.0,0.0,0.0,0.0,0.0,0.0,0.0,0.0,0.0,0.0,0.0,0.0,0.0,0.0,0.0,0.0,0.0,0.0,0.0,0.0,0.0,0.0,0.0,0.0,0.0,0.0,0.0,0.0,0.0,0.0,0.0,0.0,0.0,0.0,-4.6229,-5.01,-5.2601,-5.238,-5.4607,-5.5629,-5.4508,-5.583,-5.5469,-5.2491,-5.1025,0.0,0.0,0.0,0.0,0.0,0.0,0.0,0.0,0.0,0.0,0.0,0.0,0.0,0.0,0.0,0.0,0.0,0.0,0.0,0.0,0.0,0.0,0.0,0.0,0.0,0.0,0.0,0.0,0.0,0.0,0.0,0.0,0.0,0.0,0.0,0.0,0.0,0.0,0.0,0.0,0.0,0.0,0.0,0.0,0.0,0.0,0.0,0.0,0.0,0.0,0.0,0.0,0.0,0.0,0.0,0.0,0.0,0.0,0.0,-2.9636,-2.6041,0.0,0.0,0.0,0.0,0.0,0.0,0.0,0.0,0.0,0.0,0.0,0.0,0.0,0.0,0.0,0.0,0.0,0.0,0.0,0.0,0.0,0.0,0.0,0.0,0.0,0.0,0.0,0.0,0.0,0.0,0.0,0.0,0.0,0.0,0.0,0.0,0.0,0.0,0.0,0.0,-4.8075,-5.1074,-5.3439,-5.4329,-5.6012,-5.687,-5.6386,-5.7198,-5.6605,-5.4025,-5.259,0.0,0.0,0.0,0.0,0.0,0.0,0.0,0.0,0.0,0.0,0.0,0.0,0.0,0.0,0.0,0.0,0.0,0.0,0.0,0.0,0.0,0.0,0.0,0.0,0.0,0.0,0.0,0.0,0.0,0.0,0.0,0.0,0.0,0.0,0.0,0.0,0.0,0.0,0.0,0.0,0.0,0.0,0.0,0.0,0.0,0.0,0.0,0.0,0.0,0.0,0.0,0.0,0.0,-3.574,-3.6369,-3.6447,-3.7038,-3.7346,-3.7305,-3.5727,-3.2774,-2.8965,-2.8275,0.0,0.0,0.0,0.0,0.0,0.0,0.0,0.0,0.0,0.0,0.0,0.0,0.0,0.0,0.0,0.0,0.0,0.0,0.0,0.0,0.0,0.0,-3.6518,-4.3958,-4.6753,-4.7172,-4.5273,0.0,0.0,0.0,0.0,0.0,0.0,0.0,0.0,0.0,0.0,0.0,-4.9765,-5.157,-5.3767,-5.6328,-5.6879,-5.7387,-5.8168,-5.8128,-5.7113,-5.5005,-5.3639,-5.157,0.0,0.0,0.0,0.0,0.0,0.0,0.0,0.0,0.0,0.0,0.0,0.0,0.0,0.0,0.0,0.0,0.0,0.0,0.0,0.0,0.0,0.0,0.0,0.0,0.0,0.0,0.0,0.0,0.0,0.0,0.0,0.0,-2.5523,-2.341,0.0,0.0,0.0,0.0,0.0,0.0,0.0,0.0,0.0,0.0,0.0,0.0,0.0,-3.382,-3.4554,-3.5133,-3.5442,-3.5442,-3.8607,-4.0101,-4.0217,-4.3117,-4.4446,-4.4446,-4.42,0.0,-3.3219,-3.0289,0.0,0.0,0.0,0.0,0.0,0.0,0.0,0.0,0.0,0.0,0.0,0.0,0.0,0.0,0.0,0.0,0.0,0.0,0.0,0.0,0.0,0.0,-3.801,-4.7216,-4.9562,-4.9835,-5.0269,-4.7262,-4.4378,-4.4167,-4.3327,-4.293,0.0,0.0,0.0,0.0,0.0,0.0,-5.0805,-5.2656,-5.4528,-5.6411,-5.7894,-5.9104,-5.9963,-5.9378,-5.8792,-5.8441,-5.5513,-5.3288,-5.2078,-4.9072,0.0,0.0,0.0,0.0,0.0,0.0,0.0,0.0,0.0,0.0,0.0,0.0,0.0,0.0,0.0,0.0,0.0,0.0,0.0,0.0,0.0,0.0,0.0,0.0,0.0,0.0,0.0,0.0,0.0,-2.3072,-2.4908,-2.2851,-2.4178,-2.4476,0.0,0.0,0.0,0.0,0.0,0.0,0.0,0.0,0.0,-3.2744,-3.6074,-3.8029,-3.8466,-4.0874,-4.2047,-4.2099,-4.4098,-4.5065,-4.5104,-4.6573,-4.727,-4.727,-4.727,-4.5051,-4.121,-3.7356,-3.4378,-3.2066,0.0,0.0,0.0,0.0,-2.8538,-2.8499,-2.8625,-2.8675,-2.8652,-2.8327,0.0,0.0,0.0,0.0,0.0,0.0,0.0,-2.8368,-3.51,-3.9238,-4.3461,-5.059,-5.2273,-5.239,-5.278,-5.1357,-4.9373,-4.7391,-4.593,-4.5351,-4.6162,-4.6736,0.0,0.0,0.0,-5.1375,-5.2504,-5.3883,-5.5552,-5.7777,-5.8675,-5.9651,-6.1017,-6.0315,-5.9417,-5.8441,-5.6528,-5.4615,-5.278,-5.08,-4.8934,0.0,0.0,0.0,0.0,0.0,0.0,0.0,0.0,0.0,0.0,0.0,0.0,0.0,0.0,0.0,0.0,0.0,0.0,0.0,0.0,0.0,0.0,0.0,0.0,0.0,0.0,0.0,0.0,-2.4319,-2.5957,-2.3179,-2.5475,-2.6535,0.0,0.0,0.0,0.0,0.0,0.0,-3.0868,-3.4681,-3.6974,-3.7154,-4.0472,-4.2493,-4.2946,-4.6128,-4.7844,-4.8067,-4.874,-4.9049,-4.9049,-4.9049,-4.9049,-4.9103,-4.9103,-4.8716,-4.7787,-4.3053,-3.948,-3.6814,-3.5338,-3.4709,-3.4571,-3.3991,-3.3759,-3.3741,-3.3852,-3.3884,-3.3898,-3.393,-3.4379,-3.5008,-3.548,0.0,0.0,0.0,0.0,-3.4186,-3.9217,-4.3509,-4.7801,-5.2815,-5.399,-5.4068,-5.4264,-5.399,-5.2932,-5.0528,-4.9098,-4.8443,-4.9045,-4.9684,0.0,-5.0849,-5.2133,-5.3313,-5.4092,-5.502,-5.6528,-5.887,-5.93,-6.0041,-6.1564,-6.09,-5.9846,-5.8558,-5.7246,-5.569,-5.3734,-5.2381,-5.0976,-4.9488,0.0,0.0,0.0,0.0,0.0,0.0,0.0,0.0,0.0,0.0,0.0,0.0,0.0,0.0,0.0,0.0,0.0,0.0,0.0,0.0,0.0,0.0,0.0,0.0,0.0,0.0,0.0,0.0,0.0,-2.7147,-3.0163,0.0,0.0,0.0,0.0,-3.4737,-3.5206,-3.5311,-3.5356,-3.8531,-4.0756,-4.1633,-4.4924,-4.7417,-4.9054,-4.9319,-4.9876,-5.0687,-5.0774,-5.079,-5.079,-5.079,-5.0844,-5.0937,-5.0937,-5.099,-5.054,-4.4533,-4.1424,-4.0114,-3.689,-3.565,-3.5611,-3.5572,-3.564,-3.5755,-3.5761,-3.5761,-3.5761,-3.5783,-3.5792,-3.6153,-3.7882,-3.7656,0.0,0.0,-3.8567,-4.045,-4.4787,-4.6709,-4.8634,-5.2975,-5.399,-5.4225,-5.5044,-5.3912,-5.2975,-5.36,-5.3678,-5.3639,-5.3674,0.0,-5.3756,-5.3791,-5.3873,-5.4264,-5.5123,-5.5981,-5.7192,-5.8909,-5.9846,-6.0705,-6.1603,-6.09,-6.0354,-6.0276,-5.7773,-5.6325,-5.6328,-5.381,-5.203,-5.119,-5.0295,0.0,0.0,0.0,0.0,0.0,0.0,0.0,0.0,0.0,0.0,0.0,0.0,0.0,0.0,0.0,0.0,0.0,0.0,0.0,0.0,0.0,0.0,0.0,0.0,0.0,0.0,0.0,0.0,-3.0233,-3.2821,0.0,-3.1952,-3.2261,-3.3228,-3.4737,-3.7897,-3.996,-4.05,-4.4245,-4.6738,-4.7554,-4.8806,-4.9749,-5.04,-5.0996,-5.1438,-5.1741,-5.2298,-5.2569,-5.2569,-5.2623,-5.2661,-5.2717,-5.2758,-5.2491,-5.1852,-4.9729,-4.796,-4.6445,-4.4685,-4.4015,-4.3996,-4.3996,-4.4365,-4.4859,-4.4954,-4.5326,-4.5839,-4.6509,-4.6718,-4.6405,-4.4844,-4.4142,-4.3361,-4.0894,-4.2424,-4.532,-4.7377,-5.0608,-5.3861,-5.595,-5.6822,-5.7298,-5.7668,-5.727,-5.6918,-5.7231,-5.5044,-5.3327,-5.3912,-5.399,-5.399,-5.399,-5.4498,-5.5162,-5.602,-5.6879,-5.8246,-6.0549,-6.1056,-6.1811,-6.3198,-6.3004,-6.2577,-6.1987,-6.0475,-5.9134,-5.8094,-5.595,-5.4684,-5.4372,-5.2427,-5.0713,0.0,0.0,0.0,0.0,0.0,0.0,0.0,0.0,0.0,0.0,0.0,0.0,0.0,0.0,0.0,0.0,0.0,0.0,0.0,0.0,0.0,0.0,0.0,0.0,0.0,0.0,-3.2757,-3.2423,-3.49,-3.6172,-3.5008,-3.5676,-3.6763,-3.82,-4.1923,-4.455,-4.5413,-4.8099,-5.013,-5.1228,-5.1001,-5.131,-5.2155,-5.279,-5.321,-5.3498,-5.4116,-5.442,-5.4429,-5.4477,-5.4504,-5.4543,-5.4596,-5.4336,-5.3877,-5.3592,-5.2812,-5.1557,-5.0065,-4.9487,-4.9478,-4.9478,-4.9837,-5.0361,-5.0452,-5.0816,-5.1414,-5.2381,-5.2702,-5.2312,-5.0356,-4.977,-4.9146,-4.6225,-4.7913,-5.073,-5.1244,-5.4374,-5.7539,-5.8077,-5.8626,-5.9135,-5.9439,-5.928,-5.9244,-5.9799,-5.7171,-5.5123,-5.602,-5.6149,-5.6231,-5.6563,-5.7059,-5.7614,-5.8225,-5.8977,-6.0154,-6.1872,-6.234,-6.2968,-6.4057,-6.4452,-6.4098,-6.2836,-6.2428,-6.1463,-5.9746,-5.8487,-5.7716,-5.7431,-5.4879,-5.3169,-5.2355,0.0,0.0,0.0,0.0,0.0,0.0,0.0,0.0,0.0,0.0,0.0,0.0,0.0,0.0,0.0,0.0,0.0,0.0,0.0,0.0,0.0,0.0,0.0,-2.7179,-3.2919,-3.6223,-3.3835,-3.6503,-3.8556,-3.855,-3.934,-4.1557,-4.5748,-4.7553,-4.8904,-4.9932,-4.9838,-5.0604,-5.2369,-5.1579,-5.2271,-5.474,-5.4813,-5.5255,-5.6012,-5.6128,-5.6211,-5.6199,-5.6278,-5.6325,-5.6394,-5.6418,-5.6491,-5.6528,-5.5689,-5.5343,-5.5079,-5.2337,-5.1296,-5.1296,-5.1296,-5.1375,-5.1531,-5.1531,-5.157,-5.1687,-5.2546,-5.2823,-5.2979,-5.3834,-5.4112,-5.4119,-5.4059,-5.5234,-5.656,-5.6504,-5.7804,-5.9101,-5.9101,-5.9134,-5.9433,-6.0234,-5.9804,-5.9726,-6.1295,-6.0312,-5.9499,-6.028,-6.0387,-6.0663,-6.1559,-6.1561,0.0,-6.164,-6.2329,-6.2803,-6.2881,-6.3628,-6.4135,-6.4169,-6.4957,-6.4685,-6.2935,-6.3514,-6.3146,-6.1408,-6.1313,-6.091,-5.9968,-5.7533,-5.5874,-5.4963,0.0,0.0,0.0,0.0,0.0,0.0,0.0,0.0,0.0,0.0,0.0,0.0,0.0,0.0,0.0,0.0,0.0,0.0,0.0,0.0,0.0,0.0,-3.3423,-3.3439,-3.5587,-3.7592,-3.875,-4.0783,-4.2086,-4.2116,-4.3957,-4.5672,-4.6865,-4.8527,-5.0141,-5.1632,-5.1693,-5.2706,-5.5061,-5.432,-5.4528,-5.5869,-5.5869,-5.5981,-5.6167,-5.6218,-5.6238,-5.6199,-5.6319,-5.6377,-5.6394,-5.6491,-5.6558,-5.6567,-5.6328,-5.6241,-5.6029,-5.4033,-5.322,-5.323,-5.323,-5.3669,-5.4303,-5.4966,-5.5162,-5.5201,-5.5435,-5.5492,-5.5506,-5.574,-5.621,-5.6669,-5.6663,-5.7441,-5.8297,-5.8285,-5.9084,-6.0048,-6.067,-6.1252,-6.1944,-6.2861,-6.2869,-6.2865,-6.3321,-6.3025,-6.241,-6.1355,-6.119,-6.1264,-6.1511,-6.1534,-6.1715,-6.2397,-6.2657,-6.3277,-6.454,-6.4891,-6.5262,-6.5796,-6.6104,-6.5991,-6.5328,-6.487,-6.4394,-6.3973,-6.2664,-6.0964,-5.8895,-5.8833,-5.8005,0.0,0.0,0.0,0.0,0.0,0.0,0.0,0.0,0.0,0.0,0.0,0.0,0.0,0.0,0.0,0.0,0.0,0.0,0.0,0.0,0.0,0.0,-3.26,-3.6547,-3.8337,-3.8731,-3.9646,-4.1819,-4.2954,-4.3821,-4.457,-4.6289,-4.7539,-4.789,-4.9525,-5.1229,-5.2986,-5.271,-5.3639,-5.6211,-5.5134,-5.5049,-5.6244,-5.6301,-5.6271,-5.6239,-5.633,-5.6317,-5.6286,-5.6432,-5.647,-5.6497,-5.6523,-5.6579,-5.6582,-5.6571,-5.6571,-5.6497,0.0,0.0,0.0,0.0,-5.5396,-5.5903,-5.6419,-5.6582,-5.6546,-5.6554,-5.6757,-5.6989,-5.6989,-5.7564,-5.8246,-5.822,-5.9111,-6.0041,-6.0013,-6.0876,-6.1928,-6.2446,-6.296,-6.3467,-6.3936,-6.4067,-6.4184,-6.4528,-6.4597,0.0,-6.373,-6.3327,-6.3201,-6.3589,-6.3616,-6.3778,-6.4333,-6.4372,-6.4744,-6.5792,-6.5909,-6.6069,-6.6528,-6.6886,0.0,0.0,0.0,-6.6062,-6.6069,-6.4696,0.0,0.0,0.0,-6.0481,-5.8511,-5.8517,0.0,0.0,-5.3668,-5.3106,0.0,0.0,0.0,0.0,0.0,0.0,0.0,0.0,0.0,0.0,0.0,0.0,0.0,0.0,0.0,0.0,-3.4651,-3.799,-4.19,-4.1939,-4.2064,-4.3554,-4.4022,-4.4798,-4.6327,-4.735,-4.824,-4.9022,-5.0457,-5.2109,-5.39,0.0,0.0,0.0,0.0,-5.4609,-5.6234,-5.6285,-5.6335,-5.6308,-5.6495,-5.6534,-5.6542,-5.6777,-5.687,-5.6866,-5.6825,-5.6827,-5.6871,-5.6816,-5.6827,-5.6875,-5.6666,-5.6614,-5.6614,-5.6688,-5.6731,-5.6738,-5.6829,0.0,0.0,-5.6754,-5.7327,-5.7972,-5.7972,-5.8631,-5.9396,-5.9412,-6.0555,-6.1744,-6.1693,-6.2858,-6.4003,-6.412,-6.424,-6.432,-6.4306,-6.4354,-6.4588,-6.5324,-6.5439,-6.5673,-6.6464,-6.5932,-6.5718,-6.6472,-6.6535,-6.6528,-6.6595,-6.6543,-6.6524,-6.6567,-6.662,0.0,-6.6592,-6.7214,-6.728,-6.6433,-6.7068,-6.7432,-6.7423,-6.6651,-6.6206,-6.6185,-6.4637,-6.2856,-6.0877,-6.0814,-6.0238,-5.9197,-5.7645,-5.6659,0.0,0.0,0.0,0.0,0.0,0.0,0.0,0.0,0.0,0.0,0.0,0.0,0.0,0.0,0.0,-3.1997,-3.7148,-4.1589,-4.3124,-4.3824,-4.4282,-4.4628,-4.6498,-4.7927,-4.8269,-4.9666,-5.0647,-5.081,-5.1152,-5.2147,-5.3908,-5.2503,-5.3123,-5.6363,-5.4775,-5.4697,-5.6436,-5.6445,-5.6444,-5.638,-5.7174,0.0,-5.7484,-5.8267,-5.8629,-5.8629,-5.8594,-5.8593,-5.8633,-5.8593,-5.8591,-5.8495,-5.7148,-5.66,-5.6678,-5.7339,-5.7539,-5.7569,-5.8222,-5.8445,-5.8436,-5.8376,-5.8921,-5.965,-5.965,-6.0667,0.0,-6.1886,-6.2624,-6.3454,-6.3495,-6.3742,-6.4195,-6.4881,-6.5061,-6.5278,-6.5944,-6.61,-6.6139,-6.6309,-6.6335,-6.6413,-6.6569,-6.6425,-6.6334,-6.6491,-6.6514,-6.6538,-6.6607,-6.6581,-6.6567,-6.6607,-6.6607,-6.6581,-6.6439,-6.6571,-6.6561,-6.6264,-6.638,-6.6458,-6.6458,-6.6036,-6.5534,-6.4902,-6.4296,-6.3303,-6.2015,-6.1983,-6.1705,-6.1204,-6.003,-5.9425,0.0,0.0,0.0,0.0,0.0,0.0,0.0,0.0,0.0,0.0,0.0,-2.8251,0.0,0.0,-3.4798,-3.5226,-3.9603,-4.3425,-4.4726,-4.6044,-4.6839,-4.685,-4.8014,-4.9133,-4.9956,-5.0821,-5.1303,-5.131,-5.1369,-5.1966,-5.3269,-5.2127,-5.2785,-5.5756,-5.456,-5.4749,-5.6471,-5.6503,-5.6702,-5.7107,-5.7578,-5.8008,-5.8426,-5.8906,-5.9101,-5.9101,-5.91,-5.9098,-5.909,-5.909,-5.907,-5.902,-5.8627,-5.8176,-5.7835,-5.827,-5.8605,-5.8961,-5.9417,-5.9818,-6.0144,-6.0117,-6.0689,-6.1369,-6.1344,-6.2249,-6.3284,-6.3323,-6.3973,-6.4662,-6.4701,-6.5012,-6.5401,-6.5842,-6.5971,-6.61,-6.6504,-6.6633,-6.6645,-6.662,-6.6581,-6.6581,-6.6581,-6.6581,-6.6538,-6.6567,-6.6567,-6.6567,-6.6606,-6.6606,-6.662,-6.6594,-6.6594,-6.6567,-6.6508,-6.6794,-6.6958,-6.6883,-6.7509,-6.7841,-6.7841,-6.7906,-6.7735,-6.7352,-6.7202,-6.6559,-6.5383,-6.58,-6.5615,-6.4885,-6.4785,-6.3448,0.0,0.0,0.0,0.0,0.0,0.0,0.0,0.0,-3.0231,-3.3054,-3.3785,-3.3903,-3.3903,-3.5966,-3.7995,-3.8853,-4.1888,-4.4723,-4.6443,-4.8066,-4.9084,-4.9262,-4.9294,-4.9839,-5.1164,-5.1296,-5.1303,-5.1303,-5.1362,-5.1849,-5.2874,-5.2122,-5.283,-5.5382,-5.4624,-5.4924,-5.6485,-5.668,-5.7125,-5.7796,-5.8159,-5.867,-5.9374,-5.9522,-5.9595,-5.9595,-5.9608,-5.9682,-5.9851,-5.9837,-5.9879,-6.0097,-6.075,-6.0573,-5.9935,-5.9779,-6.0075,-6.0594,-6.0838,-6.1351,-6.1888,-6.1862,-6.2444,-6.3099,-6.3091,-6.3774,-6.4545,-6.4464,-6.5025,-6.5621,-6.5594,-6.61,-6.6606,-6.6606,-6.6657,-6.6669,-6.6645,-6.6645,-6.6657,-6.6633,-6.6581,-6.6581,-6.6581,-6.6594,-6.6581,-6.6607,-6.6607,-6.6594,-6.6606,-6.6606,-6.6645,-6.68,-6.6839,-6.6942,-6.7262,-6.7557,-6.7793,-6.7965,-6.8706,-6.9145,-6.9145,-6.961,-6.9794,-6.9641,-6.9877,-6.9471,-6.8375,-6.9056,-6.8898,-6.8002,-6.849,-6.6889,-2.0857,-2.33,-2.6955,-2.659,-2.9581,-3.259,0.0,0.0,-3.3988,-3.4407,-3.5076,-3.5623,-3.5623,-3.7734,-3.9804,-4.0664,-4.3663,-4.6537,-4.8248,-4.9301,-5.0158,-5.093,-5.1008,-5.1086,-5.1281,-5.1281,-5.1281,-5.1281,-5.1356,-5.2071,-5.3663,-5.2986,-5.3704,-5.6255,-5.5527,-5.5516,-5.6503,-5.725,-5.7703,-5.7804,-5.9355,-6.0175,-6.0264,-6.1069,-6.1412,-6.1412,-6.1402,-6.1834,-6.2563,-6.2428,-6.2859,-6.3622,-6.3581,-6.3534,-6.3366,-6.2639,-6.2316,-6.2346,-6.3192,-6.3524,-6.3541,-6.3541,-6.4178,-6.4893,-6.4843,-6.5424,-6.6123,-6.6048,-6.6195,-6.6383,-6.6373,-6.6528,-6.6702,-6.6702,-6.6702,-6.6702,-6.6669,-6.6645,-6.6633,-6.6581,-6.6581,-6.6581,-6.6581,-6.6581,-6.6607,-6.662,-6.6538,-6.6538,-6.6606,-6.6606,-6.6878,-6.7578,-6.7665,-6.8208,-6.9595,-6.8806,-6.8525,-6.922,-6.8416,-6.7897,-6.7897,-6.8403,-6.8337,-6.754,-6.8709,-6.8918,-6.8086,-6.8161,-6.8119,-6.7964,-6.7363,-6.7593,-3.0667,-3.0688,0.0,0.0,-3.5195,-3.7008,-3.6974,-3.7664,-3.8896,-4.0882,-4.1162,-4.1084,-4.1082,-4.155,-4.241,0.0,-4.5607,-4.7467,-4.924,-5.021,-5.0901,-5.125,-5.1342,-5.1342,-5.1281,-5.1289,-5.1296,-5.1296,-5.183,-5.2467,-5.3175,-5.3376,-5.4172,-5.5747,-5.5465,-5.5694,-5.6558,-5.7377,-5.805,-5.857,-5.9812,-6.067,-6.1186,-6.2076,-6.2701,-6.3107,-6.3076,-6.3238,-6.3584,-6.3565,-6.3753,-6.4051,-6.4506,-6.4658,-6.4559,-6.3759,-6.3728,-6.4067,-6.4494,-6.4959,-6.5308,-6.5325,-6.5575,-6.5885,-6.5816,-6.6123,-6.6445,-6.6338,-6.6389,-6.6407,-6.5931,-6.5816,-6.5777,-6.5294,-6.5178,-6.5178,-6.5205,-6.5154,-6.5077,-6.4885,-6.4885,-6.487,-6.4713,-6.4676,-6.4676,-6.4696,-6.5157,-6.5273,-6.4579,-6.4966,-6.5877,-6.7348,-6.7019,-6.7328,-6.8983,-6.8886,-6.8896,-6.9251,-6.948,-6.9619,-6.9619,-7.0115,-7.0173,-6.9834,-7.0379,-7.0517,-7.0142,-7.0142,-7.0142,-7.0142,-6.9804,-7.0073,-3.4391,0.0,0.0,-3.7462,-3.9792,-4.1334,-4.1388,-4.1922,-4.3117,-4.5577,-4.5586,-4.516,-4.5152,-4.4641,-4.4714,-4.6201,-4.7138,-4.8215,-4.9715,-5.0633,-5.1179,-5.1209,-5.1273,-5.1289,-5.1335,-5.131,-5.1434,-5.1674,-5.2311,-5.2908,-5.3381,-5.4011,-5.4762,-5.563,-5.5669,-5.6059,-5.6918,-5.7738,-5.8597,-5.9456,-6.0534,-6.1342,-6.2005,-6.287,-6.3561,-6.4079,-6.4042,-6.4159,-6.4387,-6.4377,-6.4488,-6.4726,-6.5312,-6.5491,-6.5386,-6.486,-6.4998,-6.5463,-6.5552,-6.5924,-6.6411,-6.6406,-6.6406,-6.6389,-6.6358,-6.6256,-6.6128,-6.6006,-6.5863,-6.5669,-6.5076,-6.4947,-6.4805,-6.4156,-6.4001,-6.3987,-6.3891,-6.3876,-6.379,-6.3536,-6.3536,-6.3497,-6.3306,-6.3261,-6.3161,-6.2809,-6.3531,-6.3907,-6.3166,-6.4218,-6.5576,-6.6945,-6.7138,-6.7705,-6.9155,-6.9276,-6.9399,-6.9628,-7.0157,-7.0531,-7.0531,-7.1068,-7.1268,-7.1043,-7.1456,-7.1606,-7.1381,-7.1381,-7.1381,-7.1381,-7.1118,-7.12,-2.6284,0.0,-3.4563,-3.8162,-4.2225,-4.5423,-4.5802,-4.593,-4.5978,-4.6083,-4.6083,-4.6044,-4.6044,-4.6044,-4.6316,-4.7211,-4.8106,-4.8886,-4.9615,-5.0416,-5.0946,-5.1008,-5.1008,-5.1123,0.0,-5.1414,-5.1765,-5.2584,-5.2679,-5.3426,-5.5137,-5.5231,-5.5669,-5.6528,-5.6567,-5.6957,-5.7777,-5.8636,-5.9495,-6.0393,-6.1885,-6.2659,-6.2698,-6.3505,-6.3935,-6.3987,-6.4061,-6.4605,-6.5328,-6.5225,-6.5708,-6.6493,-6.6389,-6.6373,-6.6351,-6.6355,-6.6338,-6.6355,-6.6439,-6.6439,-6.6406,-6.6493,-6.6439,-6.6389,-6.6394,-6.5829,-6.5225,-6.5082,-6.4582,-6.4078,-6.3959,-6.4027,-6.4064,-6.3767,-6.3718,-6.3628,-6.3373,-6.3261,-6.3214,-6.3214,-6.3214,-6.3214,-6.319,-6.319,-6.2798,-6.1552,-6.2064,-6.2739,-6.3142,-6.5269,-6.6726,-6.6624,-6.8816,-7.0623,-7.144,-7.0454,-7.0119,-7.0877,-6.9872,-6.9241,-6.9241,-7.0067,-7.0142,-6.9316,-7.0893,-7.1343,-7.0517,-7.0517,-7.0517,-7.0517,-6.9691,-6.9729,-3.1046,0.0,-3.8728,-4.2103,-4.4115,-4.5303,-4.5358,-4.5483,-4.5549,-4.5494,-4.3929,-4.2509,-4.2409,-4.2543,-4.2897,-4.3583,-4.6306,-4.8614,-4.9341,-5.0168,-5.0767,-5.0933,-5.0981,0.0,0.0,0.0,0.0,-5.2679,-5.3782,-5.463,-5.5147,-5.5723,-5.6125,-5.6336,-5.6909,-5.732,-5.7605,-5.9532,-6.065,-6.0962,-6.2627,-6.3754,-6.4348,-6.4542,-6.5017,-6.5674,-6.564,-6.5812,-6.6079,-6.6001,-6.6195,-6.6467,-6.6433,-6.6394,-6.6394,-6.6394,-6.6045,-6.5691,-6.6234,-6.6411,-6.6411,-6.6428,-6.5932,-6.5354,-6.5506,-6.485,-6.4115,-6.4191,-6.3902,-6.3477,-6.2915,-6.2704,-6.247,-6.179,-6.1636,-6.1747,-6.2166,-6.2233,-6.2286,-6.2653,-6.228,-6.2022,-6.2452,-6.2503,-6.271,-6.3378,-6.2178,-6.1911,-6.3782,-6.44,-6.5525,-6.7779,-6.8202,-6.8894,-7.0304,-6.9812,-6.9529,-6.9754,-6.9439,-6.9203,-6.9203,-6.9416,-6.946,-6.9332,-6.981,-7.0003,-6.9867,-6.9867,-7.0089,-7.0442,-7.0142,-7.0135,-3.4918,-3.7934,-4.0541,-4.3966,-4.4905,-4.4979,-4.4985,-4.5107,-4.5188,-4.5148,-4.2672,-4.0506,-4.0446,-3.9638,-3.9093,-3.9507,-4.2391,-4.514,-4.6742,-4.7991,-4.9199,-5.0532,-5.0975,-5.1503,0.0,0.0,0.0,-5.3553,-5.456,-5.5256,-5.5441,-5.6003,-5.6278,-5.6187,-5.7038,-5.7804,-5.8389,-6.0268,-6.1677,-6.2564,-6.3689,-6.4688,-6.547,-6.5451,-6.5779,-6.6399,-6.6105,-6.5985,-6.5963,-6.5685,-6.5513,-6.5536,-6.5519,-6.5519,-6.5502,-6.5485,-6.5079,-6.4713,-6.5657,-6.5717,-6.541,-6.541,-6.4909,-6.4345,-6.4366,-6.3747,-6.307,-6.309,-6.2776,-6.2304,-6.1747,-6.1543,-6.1286,-6.066,-6.0482,-6.061,-6.0988,-6.1048,-6.1144,-6.1489,-6.131,-6.1321,-6.2024,-6.2596,-6.3389,-6.4784,-6.3501,-6.2859,-6.4215,-6.4596,-6.5614,-6.777,-6.7997,-6.8412,-6.9468,-6.9374,-6.916,-6.9116,-6.9116,-6.916,-6.9203,-6.9116,-6.916,-6.9332,-6.9246,-6.9246,-6.9327,-6.9327,-6.9547,-6.9859,-6.9859,-6.9964,-3.7285,-3.9184,-4.0207,-4.3755,-4.4561,-4.4562,-4.4881,-4.4946,-4.493,-4.4739,-4.2164,-3.9879,0.0,0.0,-3.5558,-3.5543,-3.7281,-3.9634,-4.2604,-4.4459,-4.6699,0.0,0.0,0.0,0.0,0.0,0.0,-5.5103,0.0,-5.5307,-5.6045,-5.616,-5.6199,-5.6239,-5.713,-5.8396,-6.0034,-6.1019,-6.2672,-6.5061,-6.5061,-6.5393,-6.6013,-6.6084,-6.6167,-6.6205,-6.5442,-6.5141,-6.5071,-6.4294,-6.3983,-6.3983,-6.3922,-6.3867,-6.3851,-6.3839,-6.3632,-6.3527,-6.4751,-6.448,-6.3613,-6.3613,-6.3515,-6.3355,-6.3128,-6.2583,-6.206,-6.1873,-6.1233,-6.0565,-6.0565,-6.0565,-6.0531,-6.0311,-6.0265,-6.0217,-6.0064,-6.0037,-6.0004,-6.0055,-6.0626,-6.142,-6.2106,-6.3502,-6.4857,-6.5683,-6.5714,-6.5414,-6.4667,-6.5946,-6.6962,-6.6913,-6.8302,-6.916,-6.916,-6.916,-6.9116,-6.9027,-6.8983,-6.9072,-6.9203,-6.9203,-6.9203,-6.9203,-6.9166,-6.9072,-6.8921,-6.8921,-6.8921,-6.8912,-6.8912,-6.9323,-3.844,-4.0755,-4.2891,-4.3726,-4.4011,-4.4072,-4.4154,-4.4355,-4.3841,-4.1343,-3.8395,-3.5491,0.0,0.0,0.0,-3.5196,-4.0806,0.0,-4.6121,-4.7162,0.0,-5.0956,0.0,-5.2103,-5.3665,-5.4111,0.0,0.0,-5.5675,-5.5893,-5.5962,-5.6068,-5.6364,-5.6868,-5.8336,-5.965,-6.0654,-6.2779,-6.4479,-6.5754,-6.5754,-6.5848,-6.608,-6.5484,-6.5316,-6.5351,-6.4532,-6.4194,-6.4294,-6.4031,-6.3938,-6.3883,-6.3613,-6.3513,-6.3488,-6.396,-6.3604,-6.3065,-6.3988,-6.3931,-6.3454,-6.3454,-6.2921,-6.2281,-6.2233,-6.1518,-6.0776,-6.0926,-6.0674,-6.0365,-6.0365,-6.0237,-6.0099,-6.0007,-5.9982,-6.0226,-6.1306,-6.1502,-6.1807,-6.2937,-6.3351,-6.3578,-6.3687,-6.5235,-6.6628,-6.7208,-6.7809,-6.7964,-6.718,-6.7358,-6.7803,-6.8397,-6.8758,-6.8975,-6.8975,-6.8975,-6.8929,-6.8929,-6.8929,-6.8929,-6.8975,-6.8884,-6.8892,-6.9034,-6.8945,-6.899,-6.9116,-6.9116,-6.9108,-6.905,-6.905,-6.8815,-4.1071,-4.2622,-4.3841,-4.4206,-4.4091,-4.3463,-4.2119,-4.1928,-4.1026,-3.738,-3.4153,0.0,-2.9581,-3.164,0.0,0.0,0.0,0.0,-4.5988,-4.7036,-4.8669,0.0,-5.2222,0.0,-5.4089,-5.4403,-5.4824,0.0,-5.5665,-5.5768,-5.5689,-5.5766,-5.6382,-5.7597,-5.8907,-6.0586,-6.2574,-6.4409,-6.5572,-6.608,-6.608,-6.6102,-6.6144,-6.5294,-6.4948,-6.4966,-6.3726,-6.3236,-6.3301,-6.2719,-6.276,-6.307,-6.2728,-6.282,-6.3117,-6.3461,-6.3207,-6.2777,-6.3255,-6.351,-6.3514,-6.2695,-6.1812,-6.1119,-6.1019,-6.0619,-6.017,-6.0161,-6.0023,-5.9874,-5.9874,-6.0013,-6.0179,-6.0071,-6.041,-6.0902,-6.1732,-6.1657,-6.1657,-6.2559,-6.3272,-6.3834,-6.4169,-6.5674,-6.6871,-6.7149,-6.7642,-6.7947,-6.7829,-6.8084,-6.8451,-6.89,-6.8929,-6.8921,-6.8921,-6.8921,-6.8875,-6.8828,-6.8791,-6.8838,-6.8846,-6.88,-6.88,-6.89,-6.8586,-6.8405,-6.849,-6.8173,-6.7908,-6.7542,-6.7872,-6.7595,-4.3959,-4.4334,-4.3965,-4.4835,-4.4395,-4.2955,-3.9785,-3.9027,-3.7708,-3.3366,0.0,-2.8053,-2.7674,-2.8796,-3.015,-3.128,0.0,-4.0564,-4.4612,-4.6038,-4.8086,-5.1926,-5.3177,-5.3803,-5.3964,-5.4666,-5.514,-5.5183,-5.5248,-5.5288,-5.5389,-5.5552,-5.6652,-5.8753,-5.9688,-6.1713,-6.4933,-6.571,-6.6102,-6.6144,-6.6123,-6.6123,-6.6105,-6.508,-6.4616,-6.4559,-6.2897,-6.2162,-6.2123,-6.1032,-6.118,-6.1957,-6.1646,-6.1983,-6.2682,-6.2882,-6.2849,-6.2775,-6.3085,-6.3619,-6.3823,-6.1932,-6.1005,-6.051,-6.0312,-6.0307,-6.0361,-6.0254,-6.0002,-5.9778,-5.9778,-6.0229,-6.0641,-6.0525,-6.1126,-6.1805,-6.1842,-6.1468,-6.1131,-6.1131,-6.2141,-6.3259,-6.393,-6.5309,-6.6194,-6.5993,-6.6068,-6.6321,-6.6937,-6.7961,-6.8763,-6.8838,-6.8875,-6.8875,-6.8875,-6.8744,-6.8697,-6.865,-6.8602,-6.8613,-6.8763,-6.8679,-6.8633,-6.8633,-6.8023,-6.761,-6.7469,-6.6895,-6.6148,-6.5366,-6.6017,-6.5922,-4.4491,-4.4564,-4.4455,-4.4637,-4.4121,-4.2754,-3.966,-3.8544,0.0,0.0,-2.8203,-2.6568,-2.3844,-2.6876,-3.0734,-3.3515,0.0,0.0,-4.7164,-4.8513,-4.9892,0.0,-5.3234,-5.3935,-5.4333,-5.4769,0.0,0.0,-5.4912,-5.513,-5.5364,-5.6127,-5.8073,-6.1334,-6.2872,-6.432,-6.5781,-6.5842,-6.5919,-6.5928,-6.5575,-6.5601,-6.589,-6.4014,-6.3233,-6.3243,-6.155,-6.0685,-6.052,-6.0367,-6.0671,-6.1287,-6.1095,-6.133,-6.1955,-6.3236,-6.36,-6.3705,-6.5253,-6.5361,-6.45,-6.2554,-6.2449,-6.3009,-6.2598,-6.2447,-6.2635,-6.3235,-6.2895,-6.2368,-6.2368,-6.1955,-6.1542,-6.1542,-6.1576,-6.1799,-6.2473,-6.2994,-6.3364,-6.3364,-6.3547,-6.3808,-6.392,-6.4786,-6.503,-6.378,-6.4261,-6.4561,-6.3925,-6.6125,-6.8036,-6.8623,-6.8602,-6.8554,-6.8554,-6.8084,-6.8033,-6.8506,-6.807,-6.8033,-6.8554,-6.8084,-6.7789,-6.7789,-6.7176,-6.6837,-6.678,-6.6664,-6.5971,-6.467,-6.4813,-6.4536,-4.5223,-4.5003,-4.4856,-4.5187,-4.438,-4.2243,-3.7488,0.0,0.0,0.0,-2.4189,-2.3018,-2.1854,-2.5001,0.0,-3.1481,-3.7624,0.0,-4.5904,-4.8654,0.0,-5.2778,-5.3248,-5.3754,0.0,-5.4533,-5.45,-5.4505,-5.4915,-5.5366,-5.5897,-5.8106,-6.0405,-6.254,-6.4295,-6.5485,-6.6005,-6.5692,-6.5548,-6.5601,-6.5085,-6.4756,-6.4614,-6.3108,-6.2277,-6.1936,-6.0657,-6.0027,-5.99,-6.0172,-6.0719,-6.1413,-6.1996,-6.266,-6.3392,-6.4569,-6.4964,-6.5039,-6.5812,-6.6201,-6.6119,-6.4566,-6.3909,-6.3804,-6.3606,-6.3522,-6.3555,-6.393,-6.3397,-6.2678,-6.2678,-6.2379,-6.1997,-6.1575,-6.1429,-6.1459,-6.147,-6.2123,-6.2575,-6.2094,-6.2427,-6.2613,-6.2213,-6.2586,-6.2671,-6.1908,-6.2201,-6.261,-6.3021,-6.4396,-6.575,-6.6912,-6.7215,-6.7399,-6.7504,-6.7268,-6.7213,-6.7486,-6.7268,-6.7395,-6.8147,-6.787,-6.7883,-6.8283,-6.8053,-6.7716,-6.7321,-6.7433,-6.6434,-6.4645,-6.507,-6.4623,-4.5368,-4.5258,-4.4998,-4.548,-4.4562,-4.1801,-3.5336,-3.3204,0.0,-2.3484,-2.0827,-1.9964,-2.0615,-2.3032,-2.5893,0.0,-3.4892,-4.0453,-4.3699,-4.7249,-5.0476,0.0,-5.3239,0.0,-5.4355,-5.4193,0.0,-5.4123,-5.5137,-5.6138,-5.6922,-5.9883,-6.207,-6.3215,-6.4753,-6.5666,-6.5884,-6.5341,-6.5085,-6.5154,-6.462,-6.4024,-6.3436,-6.2432,-6.1603,-6.0942,-6.0047,-5.9564,-5.9492,-5.9853,-6.0675,-6.1721,-6.2798,-6.3873,-6.4975,-6.5885,-6.6229,-6.6277,-6.632,-6.704,-6.768,-6.6675,-6.5617,-6.4694,-6.4737,-6.4694,-6.4688,-6.4793,-6.3899,-6.2937,-6.2891,-6.254,-6.1971,-6.1287,-6.1245,-6.1184,-6.0683,-6.1163,-6.1435,-6.0774,-6.1251,-6.1508,-6.0933,-6.0996,-6.1136,-6.0792,-6.0901,-6.1423,-6.2573,-6.2944,-6.3615,-6.495,-6.5585,-6.5971,-6.6084,-6.5981,-6.6053,-6.6351,-6.6559,-6.7041,-6.7994,-6.8233,-6.8641,-6.9219,-6.9154,-6.8887,-6.8318,-6.8258,-6.7093,-6.4987,-6.5408,-6.4917,-4.4011,-4.4782,-4.4745,-4.4782,-4.4158,-4.1654,-3.4633,0.0,-2.9687,-2.2585,-2.0376,-1.9763,-1.9889,-2.0765,-2.2989,0.0,0.0,-3.3634,0.0,0.0,0.0,-5.1897,0.0,0.0,-5.3831,-5.4088,-5.387,-5.3083,-5.568,-5.7713,-5.869,-5.9964,-6.1637,-6.365,-6.4275,-6.4837,-6.5446,-6.4696,-6.4407,-6.4666,-6.4053,-6.3641,-6.3381,-6.2108,-6.1167,-6.0529,-5.9627,-5.9026,-5.8624,-5.8814,-6.0018,-6.1818,-6.205,-6.3382,-6.5404,-6.6432,-6.6827,-6.6951,-6.7926,-6.8222,-6.821,-6.8271,-6.7794,-6.7232,-6.704,-6.703,-6.7131,-6.7691,-6.6344,-6.4647,-6.4542,-6.293,-6.1368,-6.1312,-6.144,-6.1568,-6.1496,-6.1697,-6.186,-6.1787,-6.1824,-6.186,-6.1787,-6.2331,-6.2362,-6.1163,-6.151,-6.1864,-6.1488,-6.2078,-6.2831,-6.3639,-6.4327,-6.4584,-6.4489,-6.4004,-6.4208,-6.5518,-6.6351,-6.7374,-6.8753,-6.9663,-7.0086,-7.0157,-6.9672,-6.9382,-6.9311,-6.8533,-6.7374,-6.5759,-6.5127,-6.439,-4.3862,-4.4744,-4.4816,-4.4779,-4.2684,-3.9258,-3.4129,0.0,-2.7247,-2.2069,-1.9938,-1.9151,-1.9701,-1.9638,-2.0639,-2.4136,-2.6987,-3.041,-3.5117,0.0,0.0,-4.7425,-4.8146,0.0,0.0,0.0,-5.3439,-5.4073,-5.6441,-5.8363,-5.9559,-6.111,-6.2673,-6.4237,-6.433,-6.4592,-6.4971,-6.437,-6.4134,-6.4214,-6.3705,-6.2903,-6.1939,-6.1353,-6.0412,-5.9272,-5.8937,-5.8661,-5.8554,-5.9516,-6.0683,-6.1971,-6.3395,-6.4853,-6.6109,-6.7074,-6.7421,-6.7561,-6.7996,-6.7875,-6.7518,-6.7053,-6.6602,-6.6297,-6.7083,-6.6963,-6.65,-6.6302,-6.4875,-6.3474,-6.3454,-6.2054,-6.064,-6.0796,-6.0494,-6.0219,-6.0379,-6.0772,-6.1185,-6.1185,-6.1279,-6.1336,-6.1336,-6.1295,-6.1219,-6.1184,-6.1404,-6.1729,-6.1963,-6.2415,-6.2789,-6.2877,-6.3948,-6.4566,-6.4508,-6.4321,-6.4397,-6.4977,-6.5384,-6.599,-6.7038,-6.8327,-6.9283,-6.9742,-7.0859,-7.1236,-7.078,-7.0464,-6.9516,-6.7971,-6.6672,-6.5689,-4.2062,-4.3713,-4.4483,-4.4446,-4.1392,-3.7337,0.0,0.0,-2.5338,-2.1405,-1.9675,-1.9002,-1.9651,-1.9288,-1.9588,-2.1929,-2.4698,-2.7548,-3.043,-3.3377,0.0,0.0,0.0,-4.5321,0.0,-5.2045,-5.3411,-5.5291,-5.7094,-5.8688,-6.0017,-6.1772,-6.3168,-6.4138,-6.4016,-6.4019,-6.4332,-6.3766,-6.358,-6.3624,-6.3076,-6.2077,-6.0794,-6.0535,-5.9604,-5.8319,-5.8275,-5.8334,-5.8483,-5.9799,-6.0882,-6.2045,-6.392,-6.5401,-6.6586,-6.7249,-6.7451,-6.7523,-6.741,-6.7079,-6.657,-6.5642,-6.5278,-6.5221,-6.5735,-6.5689,-6.5314,-6.4713,-6.3336,-6.2045,-6.1711,-6.0795,-6.0001,-6.0227,-5.9844,-5.952,-5.9652,-6.01,-6.0574,-6.0822,-6.1016,-6.1148,-6.1361,-6.127,-6.1336,-6.1831,-6.2112,-6.2494,-6.2918,-6.3322,-6.3493,-6.3474,-6.4463,-6.4918,-6.4458,-6.4601,-6.4706,-6.4706,-6.5127,-6.5654,-6.6181,-6.7725,-6.8814,-6.9376,-7.1412,-7.2114,-7.1342,-7.1587,-7.092,-6.934,-6.8078,-6.7095,-3.7934,-4.1071,-4.3532,-4.36,-4.0546,-3.6462,0.0,0.0,-2.4486,-2.0518,-1.966,-1.9623,-1.9701,-1.9676,-2.0251,-2.2041,-2.2342,-2.4369,-3.0096,-3.0921,0.0,0.0,0.0,-4.1169,-4.6616,-5.0741,-5.3999,-5.6223,-5.7629,0.0,-6.0152,-6.1573,-6.2631,-6.3197,-6.2831,-6.288,-6.3416,-6.2732,-6.2552,-6.2805,-6.2144,-6.1334,-6.0382,-5.9716,-5.8906,-5.7997,-5.7857,-5.7972,-5.8347,-5.8981,-6.0272,-6.1969,-6.2766,-6.4439,-6.6533,-6.679,-6.6816,-6.6555,-6.6299,-6.5996,-6.551,-6.436,-6.4396,-6.4603,-6.3091,-6.3279,-6.395,-6.3693,-6.2453,-6.0919,-5.9627,-5.9319,-5.9386,-5.9554,-5.9683,-5.9814,-5.9814,-5.9943,-6.0317,-6.1125,-6.13,-6.1511,-6.2248,-6.3021,-6.348,-6.3275,-6.4077,-6.4602,-6.4358,-6.474,-6.5193,-6.5829,-6.6109,-6.5475,-6.3723,-6.4285,-6.4706,-6.4706,-6.6145,-6.6988,-6.6988,-6.8533,-6.9376,-6.9376,-7.092,-7.1342,-7.0534,-7.1307,-7.092,-6.9376,-6.8785,-6.8152,-3.4797,-3.6377,-3.6989,-3.6417,-3.3685,-3.0553,-2.8277,0.0,-2.1928,-2.0151,-1.9662,-1.9609,-1.9699,-1.9712,-2.0236,-2.1882,-2.221,-2.3274,0.0,0.0,0.0,-3.8058,-4.4013,-4.8612,0.0,0.0,-5.4561,-5.5772,-5.7934,-5.9325,-5.9631,-6.1243,-6.2397,-6.288,-6.2718,-6.2718,-6.3014,-6.2805,-6.2705,-6.2805,-6.2047,-6.092,-5.9553,-5.8704,-5.7804,-5.6927,-5.703,-5.737,-5.8052,-5.9526,-6.0662,-6.164,-6.303,-6.4269,-6.5323,-6.551,-6.5645,-6.5636,-6.551,-6.4803,-6.377,-6.2903,-6.2132,-6.1263,-6.0133,-6.0873,-6.1777,-6.0517,-5.9769,-5.9219,-5.8875,-5.8875,-5.9183,-5.9319,-6.0035,-6.0683,-6.0784,-6.13,-6.1656,-6.1669,-6.1771,-6.2016,-6.251,-6.2927,-6.3346,-6.3798,-6.4183,-6.4497,-6.4948,-6.5232,-6.5583,-6.6209,-6.6948,-6.6915,-6.5793,-6.5933,-6.6001,-6.5857,-6.5966,-6.6038,-6.6038,-6.7688,-6.8568,-6.8568,-7.0639,-7.1307,-7.0499,-7.0253,-6.9379,-6.7975,-6.7931,-6.7931,-3.1121,-3.2635,-3.3236,-3.3096,-3.0139,-2.7027,-2.6155,-2.3173,-2.0439,-1.9888,-1.9713,-1.9649,-1.9673,-1.9935,-2.0569,-2.1876,-2.2428,-2.3662,0.0,0.0,0.0,-3.721,0.0,0.0,0.0,-5.3441,-5.5179,-5.6037,-5.8316,-5.9562,-5.9402,-6.1028,-6.2168,-6.2449,-6.2397,-6.2397,-6.25,-6.2255,-6.1967,-6.1676,-6.061,-5.9457,-5.808,-5.7204,-5.6395,-5.5816,-5.6588,-5.7258,0.0,-5.9946,-6.0995,-6.1612,-6.2912,-6.3819,-6.4411,-6.4594,-6.4489,-6.4239,-6.4089,-6.315,-6.194,-6.1013,-6.0145,-5.9247,-5.8597,-5.9219,-5.9904,-5.8804,-5.849,-5.849,-5.8526,-5.8736,-5.8944,-5.9149,-5.9733,-6.0282,-6.045,-6.0799,-6.115,-6.1293,-6.1431,-6.1674,-6.2301,-6.2509,-6.2753,-6.317,-6.3026,-6.3021,-6.3397,-6.3854,-6.4377,-6.5031,-6.6438,-6.6965,-6.6035,-6.693,-6.7322,-6.6895,-6.6516,-6.6139,-6.5617,-6.6878,-6.7476,-6.7195,-6.9266,-6.9858,-6.8978,-6.8523,-6.8074,-6.7516,-6.7238,-6.7655,0.0,-2.9418,-3.1272,-3.2272,-2.8933,-2.5415,-2.5552,-2.2653,0.0,-1.975,-1.9713,-1.9713,-1.9697,-2.0304,-2.1086,-2.201,-2.2846,-2.5089,0.0,-3.0638,0.0,0.0,-4.3636,0.0,-4.859,-5.2752,-5.5845,-5.6897,-5.8517,-5.9384,-5.9276,-6.0865,-6.1732,-6.1732,-6.1732,-6.1823,-6.1895,-6.1185,-6.0463,-5.975,-5.8284,-5.7087,-5.6213,-5.5459,-5.5024,-5.4896,-5.6593,-5.7547,-5.8047,-6.0272,-6.1355,-6.171,-6.2404,-6.3031,-6.3608,-6.3694,-6.3167,-6.2402,-6.1953,-6.1185,-6.0217,-5.9005,-5.8526,-5.8419,-5.8277,-5.8348,-5.849,-5.849,-5.849,-5.849,-5.8597,-5.8632,-5.8702,-5.8944,-5.9116,-5.915,-5.9116,-5.915,-5.9461,-6.0393,-6.0497,-6.0773,-6.1675,-6.1814,-6.1745,-6.1501,-6.0933,-6.0495,-6.0381,-6.1143,-6.1934,-6.2795,-6.4876,-6.5773,-6.4767,-6.7152,-6.8315,-6.751,-6.7405,-6.682,-6.5578,-6.6136,-6.6063,-6.5438,-6.6799,-6.7143,-6.6259,-6.6225,-6.6647,-6.7531,-6.6505,-6.7074,-2.2451,0.0,-2.4647,-2.4894,-2.3625,-2.2208,0.0,-2.0726,-2.005,-2.002,-1.9843,-1.9913,-2.0562,-2.0728,-2.125,-2.2715,-2.3156,-2.4892,-2.9344,0.0,0.0,-4.6231,-4.927,-5.1334,-5.2271,-5.4047,-5.5418,-5.6347,-5.7397,-5.7907,-5.781,-5.8875,-5.9512,-5.9512,-5.9512,-5.9916,-6.0796,-5.983,-5.9073,-5.8577,-5.7246,-5.6168,-5.5296,-5.4574,-5.4445,-5.4834,-5.62,-5.743,-5.8633,-6.051,-6.1245,-6.1113,-6.1469,-6.1654,-6.1552,-6.1177,-6.0864,-6.0659,-6.0563,-6.0007,-5.9208,-5.8332,-5.8099,-5.8027,-5.7954,-5.8099,-5.8277,-5.8099,-5.8027,-5.8027,-5.8099,-5.8314,-5.8561,-5.8631,-5.984,-6.0809,-6.0255,-6.0566,-6.1016,-6.1084,-6.0635,-6.0462,-6.1114,-6.0857,-6.0529,-6.0421,-5.9785,-5.941,-6.0011,-6.0324,-6.0893,-6.2197,-6.2911,-6.3265,-6.3584,-6.6565,-6.7817,-6.6268,-6.5733,-6.5299,-6.5001,-6.4087,-6.3543,-6.3374,-6.3712,-6.3814,-6.3565,-6.337,-6.3599,-6.4053,-6.3967,-6.4337,-2.0948,-2.119,-2.1267,-2.1744,-2.1187,-2.0478,-2.0076,-2.0276,-2.0522,-2.0467,-2.069,-2.0974,-2.1339,-2.1559,-2.2033,0.0,-2.4797,0.0,0.0,0.0,-4.3085,-4.693,-4.931,-5.1529,0.0,-5.4894,-5.5644,-5.6162,-5.7056,-5.7458,-5.7299,-5.8174,-5.8702,-5.8702,-5.8376,-5.8692,-5.9599,-5.8577,-5.7628,-5.6814,-5.5684,-5.4566,-5.3478,-5.3685,-5.3921,-5.432,-5.6651,-5.8051,-5.8885,-6.0935,-6.1491,-6.1109,-6.1221,-6.0984,-6.0502,-6.0173,-5.9877,-5.9607,-5.9607,-5.9099,-5.8423,-5.8017,-5.7881,-5.7881,-5.7881,-5.7954,-5.8027,-5.7954,-5.7881,-5.7881,-5.7881,-5.8027,-5.8277,-5.8348,-5.9247,-5.994,-5.9667,-5.9908,-6.0184,-6.0148,-5.9487,-5.9068,-5.9439,-5.8957,-5.8504,-5.8504,-5.774,-5.7314,-5.7821,-5.8183,-5.8675,-5.9547,-6.0837,-6.1466,-6.1107,-6.4086,-6.5575,-6.4623,-6.427,-6.3949,-6.3694,-6.3265,-6.2899,-6.2564,-6.2482,-6.2232,-6.1899,-6.1733,-6.1949,-6.2531,-6.2121,-6.2517,-2.0715,-2.0766,-2.065,-2.1088,-2.0538,-1.9938,-2.007,-2.0687,-2.1255,-2.114,-2.17,-2.2152,-2.2078,-2.2446,0.0,0.0,0.0,0.0,-3.6186,-3.9494,-4.245,-4.5215,-4.7858,0.0,-5.3812,-5.5004,-5.5648,-5.5812,-5.6622,-5.7104,-5.6999,-5.7798,-5.8183,-5.8223,-5.7566,-5.7446,-5.8048,-5.7223,-5.6055,-5.4783,-5.3823,-5.2897,-5.1893,-5.303,-5.3678,-5.4044,-5.7446,-5.8882,-5.8976,-6.1177,-6.1694,-6.1018,-6.084,-6.0367,-5.9836,-5.9734,-5.9295,-5.8829,-5.8829,-5.8423,-5.7881,-5.7881,-5.7881,-5.7881,-5.7881,-5.7808,-5.7735,-5.7881,-5.7881,-5.7881,-5.7881,-5.7881,-5.7954,-5.8171,-5.8273,-5.8379,-5.8348,-5.8348,-5.8419,-5.849,-5.7746,-5.7238,-5.756,-5.6887,-5.6381,-5.6381,-5.5636,-5.5149,-5.5149,-5.5698,-5.6201,-5.6247,-5.8591,-5.9591,-5.8497,-6.0783,-6.2266,-6.2266,-6.2637,-6.2524,-6.1763,-6.2326,-6.2444,-6.1763,-6.1626,-6.1126,-6.0501,-6.0501,-6.083,-6.1455,-6.0671,-6.1085,-1.9819,-2.2131,-2.4004,-2.1746,-2.1039,-2.0903,-2.0915,-2.1494,-2.2034,-2.2085,-2.2037,-2.2188,-2.2711,-2.2777,-2.288,0.0,0.0,-3.5925,0.0,0.0,-4.823,-4.9342,0.0,-5.2386,-5.2326,-5.3498,-5.4182,-5.416,-5.4601,-5.5177,-5.5758,-5.5928,-5.5987,-5.5977,-5.5322,-5.4982,-5.5103,-5.4764,-5.4113,-5.2941,-5.2294,-5.2228,-5.2646,-5.3,-5.4022,-5.5621,-5.7658,-5.8623,-5.9059,-6.0371,-6.0415,-5.9678,-5.8685,-5.843,-5.8571,-5.7934,-5.7857,-5.8051,-5.8051,-5.7983,-5.7881,-5.7881,-5.7881,-5.7881,-5.7881,-5.7406,-5.6996,-5.7881,-5.8027,-5.7881,-5.7881,-5.7881,-5.7954,-5.8171,-5.8825,-5.9098,-5.7876,-5.7701,-5.7554,-5.6996,-5.6193,-5.5809,-5.6668,-5.6034,-5.5474,-5.5474,-5.4768,-5.4242,-5.4242,-5.4422,-5.4708,-5.5225,-5.5748,-5.6352,-5.7286,-5.7847,-5.8128,-5.8128,-5.9992,-6.0405,-5.8951,-5.9047,-5.9047,-5.8951,-5.8951,-5.8796,-5.8701,-5.8701,-5.8733,-5.886,-5.8677,-5.8832,-1.9713,-2.1131,-2.2777,-2.305,-2.4961,-2.6834,-2.6841,-2.7549,-2.7682,-2.5826,-2.5753,-2.5476,-2.3802,0.0,-2.7374,-3.1702,0.0,-3.783,-4.2552,-4.3931,-4.5589,0.0,0.0,-5.1268,-5.2636,-5.3584,-5.3991,-5.3652,-5.3643,-5.3914,-5.4364,-5.3895,-5.3832,-5.4174,-5.3714,-5.3402,-5.3311,-5.281,-5.245,-5.2126,-5.2183,-5.2183,-5.2389,-5.3553,-5.481,-5.6095,-5.7465,-5.8397,-5.8986,-5.8918,-5.8786,-5.8474,-5.7442,-5.7318,-5.7606,-5.7272,-5.6844,-5.647,-5.703,-5.692,-5.647,-5.6768,-5.6877,-5.6768,-5.6237,-5.6001,-5.6034,-5.6854,-5.6887,-5.692,-5.7808,-5.7775,-5.7554,-5.7628,-5.8118,-5.818,-5.7214,-5.7072,-5.6996,-5.6691,-5.585,-5.5404,-5.581,-5.5181,-5.4633,-5.4633,-5.4327,-5.4103,-5.4103,-5.4103,-5.4229,-5.4545,-5.4893,-5.5399,-5.6031,-5.6441,-5.6821,-5.72,-5.8223,-5.8446,-5.7706,-5.8085,-5.8274,-5.8274,-5.8274,-5.8274,-5.8274,-5.8274,-5.8274,-5.8274,-5.8274,-5.8274,-1.9707,-2.0576,-2.2221,-2.4473,-2.7287,-2.9855,-3.1225,-3.1794,-3.1454,-2.9444,-2.9438,-2.882,-2.5566,-2.7204,0.0,-3.8058,-3.8846,-4.0163,-4.4517,-4.4028,-4.4511,-4.8162,-4.9163,-5.0391,-5.2503,-5.3205,-5.3302,-5.2901,-5.2776,-5.2837,-5.3238,-5.2688,-5.2514,-5.2828,-5.2605,-5.2331,-5.1978,-5.1195,-5.1184,-5.1816,-5.2049,-5.2165,-5.2125,-5.4013,-5.5147,-5.5718,-5.6839,-5.7558,-5.7888,-5.7042,-5.6705,-5.6645,-5.5924,-5.5848,-5.6224,-5.6569,-5.5955,-5.5084,-5.5796,-5.5603,-5.5117,-5.5669,-5.5718,-5.5588,-5.4948,-5.4832,-5.5035,-5.5777,-5.549,-5.5393,-5.7446,-5.748,-5.692,-5.6996,-5.7147,-5.7039,-5.627,-5.6192,-5.6224,-5.5876,-5.5393,-5.4985,-5.4985,-5.4465,-5.4103,-5.4103,-5.4103,-5.4103,-5.4103,-5.4103,-5.4103,-5.4103,-5.4577,-5.4956,-5.5114,-5.562,-5.6157,-5.6694,-5.6884,-5.7042,-5.72,-5.7737,-5.8116,-5.8274,-5.8274,-5.8274,-5.8274,-5.8274,-5.8274,-5.8274,-5.8274,-5.8274,-1.9338,-2.2349,-2.5578,-2.5924,-2.4464,-2.4397,-2.9839,-2.9558,-2.885,-3.1252,-3.1391,-3.0451,0.0,-2.9282,-3.1739,-3.6209,-4.0273,-4.4406,-4.8798,0.0,-5.1161,-5.099,-5.1586,-5.1619,-5.0538,-5.0832,-5.1121,-5.1137,-5.1307,-5.1761,-5.2413,-5.2842,-5.2716,-5.2118,-5.2068,-5.1783,-5.115,-4.9925,-5.003,-5.1581,-5.1455,-5.1801,-5.2586,-5.3824,-5.4365,-5.4272,-5.5357,-5.5559,-5.5075,-5.4725,-5.4141,-5.3545,-5.3346,-5.349,-5.3999,-5.5247,-5.5084,-5.4221,-5.4073,-5.4274,-5.4685,-5.5155,-5.5016,-5.48,-5.5357,-5.4505,-5.3773,-5.5247,-5.4115,-5.3284,-5.647,-5.6691,-5.6179,-5.6303,-5.6381,-5.6034,-5.4952,-5.5035,-5.5067,-5.3868,-5.3899,-5.4189,-5.4189,-5.4189,-5.4103,-5.4103,-5.4103,-5.4103,-5.4103,-5.4103,-5.4103,-5.4103,-5.4134,-5.4419,-5.5083,-5.5177,-5.5241,-5.5272,-5.5904,-5.6536,-5.72,-5.7263,-5.7611,-5.8274,-5.8274,-5.8274,-5.8274,-5.8274,-5.8274,-5.8274,-5.8274,-5.8274,-2.0007,-2.2658,-2.5727,-2.6106,-2.5802,-2.7023,-3.3201,-3.443,-3.4447,-3.5188,-3.5261,-3.4392,0.0,0.0,-3.7532,-3.9281,-4.4059,-4.8261,-5.0426,-5.0608,-5.0889,-5.1711,-5.1255,-5.0518,-4.9773,-5.0675,-5.112,-5.0675,-5.1025,-5.1486,-5.2012,-5.104,-5.0825,-5.1371,-5.1246,-5.0757,-5.0002,-5.0002,-5.0187,-5.0585,-5.0498,-5.1067,-5.2199,-5.2604,-5.3082,-5.3559,-5.3517,-5.3788,-5.4251,-5.2886,-5.2579,-5.3108,-5.302,-5.3108,-5.3459,-5.3945,-5.3601,-5.2874,-5.3809,-5.3596,-5.3113,-5.3917,-5.3845,-5.3346,-5.2973,-5.2731,-5.2695,-5.3624,-5.3077,-5.2874,-5.5523,-5.5442,-5.4704,-5.4621,-5.4704,-5.4537,-5.3664,-5.3577,-5.3577,-5.3113,-5.3377,-5.3552,-5.329,-5.3465,-5.3552,-5.329,-5.3201,-5.3201,-5.3201,-5.3465,-5.364,-5.364,-5.3931,-5.4112,-5.4016,-5.4047,-5.3959,-5.3606,-5.4794,-5.5651,-5.5904,-5.6347,-5.6694,-5.6979,-5.739,-5.7611,-5.7611,-5.8053,-5.8274,-5.8274,-5.8274,-5.8274,-2.0077,-2.1948,-2.4414,-2.549,-2.6522,-2.8805,-3.4605,-3.6173,-3.6738,-3.803,-3.7959,-3.7155,-3.5214,0.0,0.0,0.0,-4.645,-5.0096,-5.0555,-5.0163,-5.008,-5.096,-5.0147,-4.9345,-4.8973,-4.976,-5.0195,-4.9868,-5.0184,-5.0528,-5.0914,-4.9727,-4.9625,-5.0723,-5.039,-4.9941,-4.9403,-4.9524,-4.9552,-4.9723,-4.9369,-5.002,-5.1422,-5.1455,-5.1787,-5.2102,-5.1512,-5.194,-5.2822,-5.122,-5.1233,-5.2245,-5.2575,-5.2575,-5.2516,-5.2843,-5.2549,-5.1967,-5.2857,-5.2612,-5.212,-5.2761,-5.2673,-5.2155,-5.1656,-5.1566,-5.191,-5.261,-5.2551,-5.2734,-5.4632,-5.4451,-5.3772,-5.3627,-5.3715,-5.3565,-5.2698,-5.2577,-5.2667,-5.2487,-5.2846,-5.3113,-5.2757,-5.2935,-5.3113,-5.2757,-5.2667,-5.2667,-5.2667,-5.3024,-5.3201,-5.3201,-5.3465,-5.3552,-5.3201,-5.3201,-5.3024,-5.2757,-5.3726,-5.4543,-5.4851,-5.55,-5.5967,-5.6189,-5.6663,-5.6884,-5.6884,-5.739,-5.7737,-5.7927,-5.7706,-5.7737,-1.9416,-2.0288,-2.181,-2.4047,-2.599,-2.8502,-3.3108,-3.3419,-3.4149,-3.9082,-3.9147,-3.8243,-3.8245,-4.0705,0.0,-4.3331,-4.6904,-4.9566,-4.947,-4.9809,-4.9679,-4.8798,-4.8533,-4.8346,-4.7904,-4.7904,-4.8103,-4.8521,-4.8469,-4.8469,-4.8996,-4.9197,-4.962,-5.0206,-4.9543,-4.9254,-4.9463,-4.8143,-4.7978,-4.8938,-4.8069,-4.8653,-5.0324,-5.0637,-5.056,-4.9896,-4.9493,-4.986,-5.0569,-4.9663,-4.9795,-5.0596,-5.1758,-5.1574,-5.0887,-5.185,-5.2027,-5.1617,-5.0803,-5.1298,-5.2187,-5.1929,-5.1578,-5.1349,-5.2007,-5.1738,-5.1443,-5.2574,-5.2567,-5.2432,-5.3572,-5.3835,-5.3745,-5.3745,-5.3745,-5.3346,-5.2185,-5.2306,-5.2577,-5.2033,-5.2306,-5.2667,-5.2667,-5.2667,-5.2667,-5.2667,-5.2667,-5.2667,-5.2667,-5.2667,-5.2667,-5.2667,-5.2667,-5.2667,-5.2667,-5.2667,-5.2667,-5.2667,-5.2667,-5.3245,-5.4376,-5.4851,-5.5462,-5.6157,-5.6157,-5.6189,-5.6189,-5.6189,-5.6536,-5.72,-5.6505,-5.6536,-2.0289,-2.3597,0.0,-2.6554,0.0,-3.3296,-3.51,-3.5379,-3.6621,-4.1333,-4.1907,-4.1308,-4.0344,-4.2648,0.0,-4.2927,-4.6022,-4.8842,-4.9331,-4.8929,-4.8594,-4.8717,-4.7897,-4.7422,-4.7452,-4.8015,-4.842,-4.8416,-4.8783,-4.9144,-4.9511,-4.8698,-4.8445,-4.9191,-4.9008,-4.8617,-4.7788,-4.8322,-4.8467,-4.8098,-4.8021,-4.8581,-4.9611,-4.8682,-4.8563,-4.8937,-4.8379,-4.8689,-4.9663,-4.9392,-4.9698,-5.0183,-5.0412,-5.0431,-5.0478,-5.099,-5.102,-5.0743,-5.1488,-5.1643,-5.1588,-5.1942,-5.1673,-5.1259,-5.1439,-5.1708,-5.1947,-5.2317,-5.2282,-5.2456,-5.3789,-5.3676,-5.3386,-5.3386,-5.3386,-5.3079,-5.2322,-5.2265,-5.2145,-5.1476,-5.1757,-5.2033,-5.1665,-5.1941,-5.2033,-5.1665,-5.1665,-5.1757,-5.2124,-5.252,-5.3009,-5.3406,-5.3406,-5.3224,-5.2917,-5.2398,-5.2033,-5.1665,-5.1941,-5.2489,-5.3124,-5.3334,-5.3517,-5.3703,-5.42,-5.4448,-5.4448,-5.5277,-5.5834,-5.6022,-5.5803,-5.6015,-2.2237,-2.548,0.0,-3.0196,-3.3044,-3.6109,-3.8372,0.0,-3.9341,-4.2209,-4.3136,-4.3074,-4.2171,-4.3908,0.0,-4.3915,-4.5892,-4.7731,-4.8132,-4.7806,-4.7478,-4.7156,-4.6929,-4.6579,-4.6156,-4.72,-4.7875,-4.7638,-4.8192,-4.8546,-4.8789,-4.7882,-4.7727,-4.861,-4.8076,-4.7771,-4.7559,-4.8054,-4.8078,-4.7726,-4.7931,-4.8195,-4.841,-4.732,-4.739,-4.828,-4.8212,-4.8439,-4.9009,-4.9305,-4.96,-4.9766,-4.9698,-4.9904,-5.0381,-5.0471,-5.0713,-5.1079,-5.1618,-5.1708,-5.1618,-5.1768,-5.1528,-5.1229,-5.1229,-5.1498,-5.1917,-5.2456,-5.2606,-5.2905,-5.4251,-5.4102,-5.3593,-5.3593,-5.3384,-5.2995,-5.2336,-5.2007,-5.1678,-5.1289,-5.1386,-5.1572,-5.1229,-5.1386,-5.1479,-5.1229,-5.1229,-5.1413,-5.1934,-5.242,-5.2846,-5.3432,-5.3312,-5.2943,-5.2661,-5.2057,-5.1479,-5.1229,-5.1479,-5.1757,-5.2124,-5.2487,-5.2667,-5.2667,-5.3067,-5.3283,-5.3283,-5.4047,-5.4479,-5.4758,-5.4479,-5.466,-2.4781,-2.6489,-2.8733,-3.4342,-3.6126,0.0,-4.2191,-4.2598,-4.2138,-4.2548,0.0,-4.394,-4.3874,-4.4599,-4.5327,-4.5725,-4.6177,-4.6371,-4.6237,-4.6545,-4.6255,-4.4776,-4.5685,-4.5945,-4.4581,-4.5999,-4.6874,-4.661,-4.7081,-4.7259,-4.7193,-4.6945,-4.7282,-4.8038,-4.6895,-4.6828,-4.8094,-4.726,-4.7053,-4.7513,-4.7717,-4.7612,-4.6995,-4.656,-4.6897,-4.7965,-4.8553,-4.871,-4.8481,-4.9277,-4.9404,-4.9248,-4.9413,-4.9816,-5.0353,-5.0169,-5.0956,-5.1852,-5.1314,-5.1523,-5.1912,-5.1409,-5.1135,-5.1135,-5.1229,-5.1259,-5.1558,-5.2665,-5.2995,-5.3294,-5.4581,-5.4431,-5.3982,-5.4072,-5.3623,-5.2995,-5.2336,-5.1738,-5.1289,-5.1229,-5.1229,-5.1229,-5.1229,-5.1229,-5.1229,-5.1289,-5.1319,-5.1558,-5.2187,-5.2336,-5.2606,-5.3204,-5.2695,-5.2276,-5.2276,-5.1618,-5.1229,-5.1229,-5.1229,-5.1229,-5.1229,-5.2124,-5.2577,-5.2577,-5.2577,-5.2577,-5.2577,-5.2577,-5.2975,-5.3469,-5.2944,-5.3006,-2.5609,-2.9588,0.0,-3.6174,-3.8647,-4.1049,-4.3066,-4.3614,-4.4008,-4.5148,-4.4603,-4.4291,-4.5483,-4.5082,-4.4937,-4.6237,-4.5837,-4.545,-4.5903,-4.5989,-4.5598,-4.4256,-4.4922,-4.5261,-4.4733,-4.6375,-4.7037,-4.6231,-4.6879,-4.6973,-4.6299,-4.6027,-4.5917,-4.6036,-4.5836,-4.5872,-4.6191,-4.6218,-4.6106,-4.6059,-4.6161,-4.6036,-4.5857,-4.614,-4.6448,-4.6729,-4.7813,-4.8207,-4.8207,-4.8409,-4.861,-4.898,-4.9034,-4.9068,-4.9164,-4.9639,-4.9897,-5.0159,-5.0544,-5.078,-5.0869,-5.1071,-5.0947,-5.0692,-5.1135,-5.1588,-5.1947,-5.1708,-5.1648,-5.1828,-5.2636,-5.2366,-5.2127,-5.3144,-5.3294,-5.2995,-5.2336,-5.2097,-5.1828,-5.1319,-5.1229,-5.1229,-5.1229,-5.1229,-5.1379,-5.1917,-5.1977,-5.2217,-5.2875,-5.3443,-5.3832,-5.3982,-5.3384,-5.2965,-5.2965,-5.1887,-5.1229,-5.1229,-5.1229,-5.1229,-5.1229,-5.1416,-5.1479,-5.1479,-5.1479,-5.1479,-5.1479,-5.1849,-5.2185,-5.2337,-5.2185,-5.2367,-2.6996,0.0,0.0,-3.8226,0.0,-4.3354,-4.483,-4.4984,-4.5125,-4.6265,-4.5239,-4.4228,-4.4594,-4.4198,-4.3921,-4.4571,-4.452,-4.45,-4.4571,-4.4761,-4.4462,-4.3312,-4.4222,-4.4761,-4.4044,-4.5693,-4.6543,-4.5968,-4.6405,-4.6377,-4.5796,-4.5547,-4.5331,-4.5076,-4.5102,-4.5287,-4.5609,-4.5395,-4.5415,-4.5635,-4.5363,-4.5103,-4.5149,-4.6252,-4.656,-4.6364,-4.76,-4.8134,-4.8134,-4.8134,-4.8207,-4.8481,-4.8467,-4.8522,-4.8787,-4.9107,-4.9397,-4.9618,-4.9969,-5.0086,-5.0183,-5.0662,-5.0567,-5.0183,-5.0822,-5.106,-5.1172,-5.1006,-5.1011,-5.116,-5.2007,-5.1708,-5.1374,-5.2167,-5.2502,-5.2606,-5.2276,-5.1947,-5.1618,-5.1289,-5.1229,-5.1229,-5.1229,-5.1468,-5.1917,-5.2576,-5.2665,-5.2905,-5.3593,-5.3982,-5.4341,-5.464,-5.3773,-5.3174,-5.3174,-5.1977,-5.1229,-5.1229,-5.1229,-5.1229,-5.1229,-5.1229,-5.1229,-5.1229,-5.1229,-5.1229,-5.1229,-5.1479,-5.1572,-5.1572,-5.1572,-5.1757,-2.7484,-3.03,-3.2935,-4.01,-4.3,0.0,-4.6076,-4.5943,-4.5544,-4.601,-4.4959,-4.3666,-4.2967,-4.2938,-4.2967,-4.2711,-4.3257,-4.3684,-4.3333,-4.3554,-4.3409,-4.2338,-4.3606,-4.4165,-4.3089,-4.4684,-4.5768,-4.5587,-4.5568,-4.5458,-4.5304,-4.5146,-4.4943,-4.4722,-4.4722,-4.4912,-4.5342,-4.4837,-4.47,-4.5029,-4.4408,-4.4022,-4.3966,-4.5686,-4.6234,-4.6042,-4.7472,-4.7903,-4.7568,-4.7903,-4.8004,-4.7745,-4.7715,-4.8127,-4.8724,-4.8379,-4.8913,-4.9571,-4.9571,-4.9571,-4.9669,-5.0183,-4.999,-4.9766,-5.0442,-5.0383,-4.9978,-5.0307,-5.0283,-5.0342,-5.119,-5.1011,-5.0738,-5.0913,-5.1469,-5.1942,-5.1942,-5.1523,-5.1229,-5.1229,-5.1229,-5.1229,-5.1229,-5.1678,-5.2306,-5.3054,-5.3174,-5.3473,-5.4281,-5.4371,-5.4581,-5.5119,-5.4102,-5.3324,-5.3204,-5.2067,-5.1349,-5.1229,-5.1229,-5.1229,-5.1229,-5.1229,-5.1229,-5.1229,-5.1229,-5.1229,-5.1229,-5.1229,-5.1229,-5.1229,-5.1229,-5.1229,0.0,0.0,-3.7046,0.0,-4.3169,-4.3898,0.0,0.0,-4.471,0.0,-4.3107,-4.2877,-4.2729,-4.2612,-4.2575,-4.3138,-4.3489,-4.3574,-4.328,-4.3202,-4.2796,-4.1554,-4.2677,-4.3332,-4.2761,-4.4229,-4.5069,-4.4888,-4.394,-4.3808,-4.4754,-4.3906,-4.3799,-4.4722,-4.4722,-4.4487,-4.4096,-4.4018,-4.3572,-4.2703,-4.2097,-4.1487,-4.1078,-4.2735,-4.3926,-4.4838,-4.7141,-4.6922,-4.5182,-4.726,-4.7466,-4.6583,-4.6605,-4.728,-4.8106,-4.7019,-4.7864,-4.9305,-4.9108,-4.9207,-4.9404,-4.9698,-4.96,-4.9502,-4.999,-4.9772,-4.9186,-4.8938,-4.8257,-4.7753,-4.8145,-4.8316,-4.8629,-4.9274,-5.0081,-5.0714,-5.0714,-5.1006,-5.1229,-5.1229,-5.1229,-5.1229,-5.1229,-5.1289,-5.1768,-5.2995,-5.3174,-5.3623,-5.491,-5.5059,-5.5089,-5.5179,-5.4521,-5.3832,-5.3234,-5.2486,-5.1828,-5.1259,-5.1229,-5.1229,-5.1229,-5.1229,-5.1229,-5.1229,-5.1229,-5.1229,-5.1229,-5.1229,-5.1229,-5.1229,-5.1229,-5.1229,-2.5034,-3.1085,-3.697,0.0,-4.3522,-4.4622,-4.5241,-4.5323,-4.5087,-4.4529,-4.3426,-4.2472,-4.2656,-4.2536,-4.2639,-4.3089,-4.336,-4.3614,-4.3567,-4.3424,-4.3124,-4.2378,-4.2982,-4.3347,-4.311,-4.3981,-4.4411,-4.3821,-4.3303,-4.3096,-4.3329,-4.2883,-4.3119,-4.4225,-4.3579,-4.345,-4.3885,-4.2518,-4.1289,-4.0215,-3.999,-3.999,-4.045,-4.1508,-4.2787,-4.4173,-4.5576,-4.5688,-4.5088,-4.5848,-4.6035,-4.5847,-4.5528,-4.5714,-4.6058,-4.5608,-4.6451,-4.7847,-4.7745,-4.7847,-4.8151,-4.9277,-4.8852,-4.8151,-4.9473,-4.8816,-4.7669,-4.7927,-4.7073,-4.6361,-4.76,-4.8014,-4.8079,-4.8068,-4.8496,-4.8795,-4.7836,-4.9484,-5.1135,-5.0852,-5.0757,-5.0876,-5.1232,-5.1578,-5.2217,-5.3563,-5.3743,-5.4102,-5.5059,-5.5179,-5.5179,-5.5179,-5.461,-5.3922,-5.3234,-5.2576,-5.1917,-5.1259,-5.1229,-5.1229,-5.1229,-5.1229,-5.1229,-5.1229,-5.1229,-5.1229,-5.1229,-5.1229,-5.1229,-5.1229,-5.1229,-5.1323,0.0,0.0,-3.3576,-3.9598,-4.1936,-4.3315,0.0,0.0,-4.4477,0.0,-4.3294,-4.2016,-4.2203,-4.245,-4.2671,-4.2982,-4.3063,-4.3372,-4.3904,-4.3519,-4.3098,-4.3156,-4.3558,-4.3682,-4.3336,-4.3559,-4.3579,-4.3016,-4.2149,-4.1872,-4.2494,-4.2149,-4.2511,-4.3828,-4.3054,-4.2761,-4.3085,-4.1016,-3.9378,-3.8262,-3.8383,-3.8911,-3.98,-4.0449,-4.1613,-4.3169,-4.4344,-4.4649,-4.4591,-4.4707,-4.4895,-4.49,-4.4416,-4.4318,-4.4509,-4.4318,-4.5048,-4.6347,-4.6242,-4.6242,-4.666,-4.8324,-4.7808,-4.6854,-4.8297,-4.7334,-4.6039,-4.6728,-4.5959,-4.5296,-4.716,-4.763,-4.7395,-4.6939,-4.7011,-4.7094,-4.6238,-4.8311,-5.0316,-5.0279,-5.0183,-5.0106,-5.0446,-5.0828,-5.1464,-5.2557,-5.3195,-5.3822,-5.4522,-5.4976,-5.5179,-5.5179,-5.476,-5.4192,-5.3503,-5.2845,-5.2157,-5.1498,-5.1319,-5.1229,-5.1229,-5.1229,-5.1229,-5.1229,-5.1229,-5.1229,-5.1229,-5.1229,-5.1229,-5.1229,-5.1229,-5.1293,0.0,-2.3406,0.0,-3.4745,-3.693,-3.8049,0.0,0.0,-4.193,-4.1849,-4.1487,-4.1164,-4.1164,-4.1896,-4.2646,-4.2938,-4.2488,-4.2551,-4.4072,-4.3008,-4.2368,-4.328,-4.4126,-4.4138,-4.3004,-4.2503,-4.2347,-4.2501,-3.9483,-3.9358,-4.3196,-4.2032,-4.2063,-4.3746,-4.4014,-4.3085,-4.0867,-3.9758,-3.8574,-3.7409,-3.7571,-3.766,-3.7973,-3.871,-4.008,-4.1753,-4.4229,-4.4142,-4.2292,-4.4479,-4.4703,-4.3689,-4.3224,-4.3661,-4.4427,-4.3441,-4.3855,-4.5048,-4.4833,-4.4833,-4.5262,-4.6242,-4.6277,-4.5888,-4.6146,-4.5293,-4.4358,-4.4885,-4.4567,-4.4567,-4.6081,-4.6167,-4.5907,-4.5888,-4.5678,-4.5924,-4.7402,-4.7909,-4.8368,-4.9542,-4.9248,-4.8696,-4.8167,-4.8195,-4.8313,-4.8779,-5.0474,-5.2122,-5.303,-5.4304,-5.5179,-5.5179,-5.5149,-5.488,-5.4221,-5.3533,-5.2845,-5.2187,-5.1558,-5.1229,-5.1229,-5.1229,-5.1229,-5.1229,-5.1229,-5.1229,-5.1229,-5.1229,-5.1229,-5.1229,-5.1229,-5.1293,0.0,0.0,0.0,-3.018,-3.3897,-3.6631,-3.894,-4.0604,-4.1826,-4.2335,-4.1708,-4.1096,-4.0897,-4.1692,-4.2409,-4.2584,-4.3019,-4.3336,-4.3361,-4.3022,-4.2837,-4.3048,-4.3125,-4.3049,-4.2609,-4.211,-4.125,-4.0278,-3.8824,-3.8723,-4.0196,-3.9753,-4.0241,-4.2027,-4.141,-4.0282,-3.8735,-3.8389,-3.7652,-3.6543,-3.6939,-3.7623,-3.839,-3.9034,-4.0339,-4.2019,-4.3354,-4.35,-4.3024,-4.3143,-4.316,-4.3057,-4.2176,-4.2037,-4.2375,-4.1923,-4.2662,-4.3855,-4.3855,-4.3855,-4.4048,-4.5342,-4.4838,-4.3834,-4.457,-4.3565,-4.2435,-4.4151,-4.3857,-4.3444,-4.5233,-4.5757,-4.5533,-4.4199,-4.3288,-4.3305,-4.5342,-4.6632,-4.7355,-4.7019,-4.7355,-4.7457,-4.6474,-4.6654,-4.7032,-4.7537,-4.9615,-5.1247,-5.211,-5.3906,-5.4845,-5.4068,-5.4068,-5.3803,-5.3055,-5.2792,-5.2682,-5.2875,-5.2217,-5.1858,-5.1858,-5.1439,-5.1229,-5.1229,-5.1229,-5.1229,-5.1229,-5.1229,-5.1229,-5.1229,-5.1229,-5.1293,-1.7304,0.0,0.0,0.0,-2.9038,-3.2466,-3.5714,-3.7748,-3.9489,-4.1568,-4.1191,-4.057,-4.0239,-4.1018,-4.1839,-4.2396,-4.2651,-4.3016,-4.365,-4.2757,-4.2225,-4.2849,-4.2463,-4.2074,-4.1528,-4.116,-4.027,-3.8686,-3.7969,0.0,-3.8624,-3.8704,-3.9457,-4.104,-3.9481,-3.8298,-3.7656,-3.7445,-3.7012,-3.6252,-3.686,-3.761,-3.8573,-3.943,-4.0691,-4.2202,-4.2697,-4.3184,-4.3433,-4.271,-4.2565,-4.2782,-4.1697,-4.1287,-4.1287,-4.1172,-4.181,-4.2774,-4.2662,-4.2662,-4.2886,-4.4131,-4.3424,-4.2189,-4.3018,-4.1929,-4.0875,-4.2785,-4.2695,-4.2577,-4.4361,-4.485,-4.444,-4.2811,-4.1923,-4.1923,-4.3881,-4.5369,-4.6347,-4.6319,-4.6451,-4.6347,-4.5342,-4.5102,-4.534,-4.5779,-4.8187,-5.0094,-5.0607,-5.256,-5.3639,-5.2569,-5.2259,-5.2095,-5.1803,-5.2023,-5.2384,-5.2911,-5.2778,-5.2522,-5.2217,-5.1862,-5.1533,-5.1323,-5.1229,-5.1199,-5.1293,-5.1229,-5.1229,-5.1229,-5.1229,-5.1293,0.0,0.0,0.0,0.0,0.0,0.0,-3.2586,0.0,-3.4725,-3.9074,-3.9564,-3.9274,-3.9371,-4.0001,-4.0976,-4.2251,-4.1373,-4.1692,-4.484,-4.2074,-4.0504,-4.2519,-4.2452,-4.1494,-3.9756,-3.9752,-3.9334,-3.7834,-3.6698,-3.6883,-3.8871,-3.9082,-3.9612,-4.0715,-3.8536,-3.7404,-3.7762,-3.7012,-3.6611,-3.6611,-3.7224,-3.7885,-3.8711,-3.9916,-4.0975,-4.2102,-4.259,-4.2997,-4.3481,-4.3216,-4.3235,-4.3114,-4.202,-4.1606,-4.1606,-4.1287,-4.1402,-4.1606,-4.1287,-4.1402,-4.1696,-4.2575,-4.2048,-4.1146,-4.1254,-4.0475,-3.9722,-4.0563,-4.1014,-4.1676,-4.365,-4.3444,-4.2662,-4.181,-4.1606,-4.2037,-4.3441,-4.4209,-4.5289,-4.7466,-4.661,-4.5289,-4.4643,-4.3602,-4.3024,-4.3135,-4.6091,-4.8191,-4.8454,-5.0326,-5.1337,-5.0668,-5.0106,-4.999,-5.0602,-5.1164,-5.1804,-5.2381,-5.3169,-5.3254,-5.2276,-5.2532,-5.2296,-5.1632,-5.1353,-5.1323,-5.1572,-5.1323,-5.1229,-5.1229,-5.1229,-5.1293,-1.3024,0.0,0.0,0.0,0.0,0.0,0.0,0.0,-3.0406,-3.5554,-3.6443,-3.7071,-3.9677,-4.043,-4.0642,-4.0906,-4.0829,-4.0795,-4.0974,-4.0598,-4.0692,-4.1635,-4.173,-4.1312,-4.0306,-3.9863,-3.8853,0.0,-3.676,-3.6818,-3.7278,-3.7861,-3.8273,-3.8648,-3.765,-3.7173,-3.7234,-3.7035,-3.7107,-3.7473,-3.8,-3.8892,-4.0203,-4.0518,-4.1406,-4.259,-4.2358,-4.2444,-4.2895,-4.2832,-4.2638,-4.2369,-4.2013,-4.1972,-4.1972,-4.1883,-4.1883,-4.1972,-4.1606,-4.1492,-4.1606,-4.1606,-4.1101,-4.033,-4.0111,-3.9462,-3.9019,-4.0667,-4.1355,-4.2017,-4.3201,-4.2947,-4.2174,-4.172,-4.1745,-4.2287,-4.3577,-4.3907,-4.41,-4.4509,-4.4427,-4.3907,-4.2687,-4.247,-4.2634,-4.2953,-4.5719,-4.7564,-4.675,-4.9337,-5.0429,-4.8396,-4.8566,-4.9053,-4.9395,-5.0575,-5.1903,-5.3331,-5.4022,-5.4255,-5.3946,-5.3592,-5.3019,-5.2356,-5.2042,-5.1772,-5.1572,-5.1323,-5.1229,-5.1229,-5.1229,-5.1293,-1.2944,-1.3159,-1.353,-1.4026,0.0,0.0,0.0,0.0,0.0,0.0,-3.7225,-3.7759,-3.9229,-3.9529,-3.9397,-3.881,-3.8873,-3.9237,-4.0354,-3.9896,-3.9986,-4.1448,-4.093,-4.0318,-3.9583,-3.9221,-3.835,-3.6465,-3.6695,-3.6969,-3.6861,-3.7201,-3.7353,-3.7471,-3.7077,-3.6939,-3.7035,-3.7035,-3.7402,-3.8137,-3.8849,-3.9767,-4.0823,-4.126,-4.189,-4.2822,-4.2395,-4.2149,-4.2099,-4.2255,-4.2067,-4.1777,-4.1595,-4.1631,-4.1859,-4.1745,-4.1972,-4.2199,-4.172,-4.172,-4.1696,-4.125,-4.0595,-4.0001,-3.9806,-3.9334,-3.9226,-4.0607,-4.1314,-4.1888,-4.2674,-4.2425,-4.1859,-4.1948,-4.2086,-4.265,-4.3932,-4.3932,-4.3687,-4.4183,-4.3991,-4.3543,-4.3012,-4.2651,-4.2598,-4.31,-4.5572,-4.6769,-4.5468,-4.7671,-4.8463,-4.616,-4.6193,-4.6553,-4.7273,-4.9331,-5.1112,-5.2261,-5.3596,-5.4411,-5.4194,-5.3721,-5.3361,-5.3239,-5.2923,-5.2497,-5.2024,-5.1443,-5.1229,-5.1229,-5.1229,-5.1323,-1.3374,-1.3432,-1.3608,-1.3324,0.0,0.0,0.0,0.0,0.0,0.0,-3.8167,-3.8168,-3.7306,-3.7065,-3.6785,-3.5705,-3.5671,-3.7252,-4.1033,-3.9616,-3.9055,-4.1302,-4.0341,-3.9097,-3.8187,-3.8498,-3.8033,-3.6474,-3.6719,-3.7099,-3.7406,-3.7003,-3.6812,-3.7054,-3.6835,-3.6835,-3.7035,-3.715,-3.7724,-3.8873,-3.9864,-4.0624,-4.1007,-4.1926,-4.2466,-4.2696,-4.2351,-4.1775,-4.1289,-4.1415,-4.1447,-4.1329,-4.0854,-4.1172,-4.1679,-4.1426,-4.1883,-4.2612,-4.1972,-4.1859,-4.2012,-4.1184,-4.0647,-4.0208,-4.0099,-3.9951,-3.9972,-4.0758,-4.1306,-4.1834,-4.2086,-4.1972,-4.1834,-4.24,-4.2513,-4.2961,-4.4235,-4.3932,-4.3823,-4.5101,-4.4453,-4.3891,-4.4454,-4.3422,-4.2812,-4.3634,-4.5437,-4.5969,-4.4294,-4.5529,-4.5969,-4.4269,-4.3597,-4.3708,-4.4991,-4.7771,-4.9685,-5.0057,-5.2572,-5.39,-5.3361,-5.3506,-5.3635,-5.388,-5.3784,-5.3326,-5.2507,-5.1623,-5.1169,-5.1109,-5.1169,-5.1169,0.0,0.0,0.0,0.0,0.0,0.0,0.0,-1.743,-1.9457,0.0,-2.6078,-2.7352,-3.0405,-3.0519,-3.0112,-2.992,-3.1331,-3.403,-3.8466,-3.9409,-3.9729,-4.0129,-4.0851,-4.0301,-3.7999,-3.8365,-3.7932,-3.5851,-3.6453,-3.713,-3.7729,-3.7255,-3.7059,-3.7068,-3.6866,-3.6967,-3.7391,-3.8202,-3.9244,-4.0171,-4.1289,-4.1908,-4.2418,-4.2374,-4.2339,-4.2293,-4.1466,-4.1007,-4.0877,-4.0048,-4.0011,-4.0481,-4.085,-4.1644,-4.2536,-4.2119,-4.2559,-4.345,-4.2549,-4.24,-4.24,-4.1963,-4.1681,-4.1323,-4.1127,-4.0868,-4.0765,-4.1409,-4.209,-4.265,-4.2538,-4.2513,-4.2625,-4.2513,-4.2849,-4.327,-4.3602,-4.3738,-4.3874,-4.4203,-4.3848,-4.3559,-4.3916,-4.3676,-4.3762,-4.4311,-4.5104,-4.5193,-4.3701,-4.4633,-4.4771,-4.3358,-4.3389,-4.3943,-4.4618,-4.6559,-4.8083,-4.8838,-5.2092,-5.3225,-5.1758,-5.4281,-5.4865,-5.3077,-5.388,-5.3586,-5.2092,-5.1476,-5.1023,-5.0697,-5.1053,-5.093,0.0,0.0,0.0,-1.3399,0.0,0.0,0.0,0.0,-1.9073,-2.3636,-2.4963,-2.5772,-2.7278,-2.7551,-2.7378,-2.6863,-2.9488,-3.1759,-3.248,-3.6121,-3.8935,-3.9286,-3.9593,-3.9127,-3.7653,-3.7927,-3.7885,-3.6746,-3.7012,-3.7362,-3.776,-3.75,-3.7251,-3.7143,-3.7143,-3.7551,-3.8494,-3.9008,-4.0036,-4.1579,-4.1947,-4.2459,-4.3075,-4.2696,-4.2557,-4.2654,-4.1893,-4.1382,-4.0871,-4.0121,-3.987,-3.9755,-4.0106,-4.0737,-4.1533,-4.1533,-4.205,-4.2823,-4.2577,-4.2479,-4.2405,-4.1977,-4.183,-4.1718,-4.1496,-4.1607,-4.1767,-4.2263,-4.2538,-4.2737,-4.2737,-4.2737,-4.2737,-4.2961,-4.3184,-4.3406,-4.3628,-4.3874,-4.4119,-4.4119,-4.3984,-4.3917,-4.4167,-4.4269,-4.4217,-4.4446,-4.4934,-4.4849,-4.3187,-4.401,-4.4344,-4.3049,-4.3298,-4.3676,-4.4156,-4.5989,-4.7298,-4.764,-4.984,-5.103,-5.076,-5.2965,-5.4331,-5.4556,-5.4835,-5.4538,-5.3647,-5.2842,-5.166,-5.0125,-5.0697,-5.0725,0.0,0.0,0.0,0.0,0.0,-1.4393,0.0,0.0,0.0,0.0,0.0,0.0,0.0,0.0,0.0,0.0,0.0,0.0,0.0,-3.093,0.0,-3.6425,-3.7465,-3.7623,-3.6173,-3.6415,-3.6944,-3.734,-3.6904,-3.6871,-3.7596,-3.7501,-3.737,-3.7227,-3.7584,-3.8342,-3.9585,-3.9797,-4.0834,-4.2697,-4.2544,-4.2802,-4.3428,-4.2981,-4.2825,-4.2895,-4.2461,-4.1774,-4.0999,-4.0667,-4.0032,-3.9426,-3.9308,-3.9777,-4.0552,-4.0881,-4.1519,-4.2324,-4.2268,-4.236,-4.2403,-4.1966,-4.1867,-4.1867,-4.1867,-4.2165,-4.2625,-4.2986,-4.2762,-4.2625,-4.2986,-4.2762,-4.2737,-4.3184,-4.3406,-4.3517,-4.3899,-4.4094,-4.4422,-4.4422,-4.439,-4.4513,-4.4755,-4.4662,-4.4535,-4.4433,-4.4789,-4.4531,-4.3037,-4.3713,-4.4152,-4.3321,-4.3295,-4.3517,-4.3899,-4.5415,-4.6276,-4.6269,-4.7537,-4.8609,-4.9291,-5.1046,-5.3259,-5.6255,-5.5735,-5.5272,-5.4896,-5.4001,-5.2362,-4.9913,-5.0487,-5.0577,0.0,0.0,0.0,0.0,-1.514,0.0,0.0,0.0,-1.5467,-1.5066,0.0,0.0,0.0,0.0,0.0,0.0,0.0,0.0,-1.9507,-2.3741,-2.7244,0.0,0.0,0.0,0.0,-3.223,-3.3526,-3.5375,-3.4158,-3.462,-3.7453,-3.7144,-3.7178,-3.7868,-3.8132,-3.8808,-3.9902,-4.083,-4.1876,-4.3065,-4.3393,-4.363,-4.3678,-4.2832,-4.2597,-4.2503,-4.1563,-4.1116,-4.0952,-4.0505,-4.0153,-3.9989,-3.9544,-4.0194,-4.1612,-4.0974,-4.2016,-4.3649,-4.247,-4.2389,-4.2823,-4.2209,-4.2213,-4.2438,-4.2438,-4.2687,-4.2986,-4.2986,-4.2986,-4.2986,-4.2986,-4.2986,-4.2986,-4.2986,-4.3432,-4.3899,-4.3899,-4.4313,-4.4613,-4.4613,-4.4837,-4.4978,-4.5055,-4.4694,-4.4428,-4.4668,-4.431,-4.3951,-4.3789,-4.3628,-4.3628,-4.3789,-4.3517,-4.3517,-4.3899,-4.401,-4.4313,-4.4505,-4.6411,-4.7052,-4.6114,-4.9671,-5.2981,-5.5712,-5.5745,-5.4901,-5.3271,-5.3368,-5.2582,-5.1117,-5.1364,-5.0668,0.0,0.0,0.0,0.0,0.0,0.0,-1.4099,0.0,-1.3525,0.0,0.0,0.0,0.0,0.0,0.0,0.0,-1.7437,0.0,0.0,0.0,0.0,0.0,0.0,0.0,0.0,0.0,0.0,0.0,-3.443,-3.4817,-3.8096,-3.8335,-3.8443,-3.8455,-3.8875,-3.9555,-4.0583,-4.1465,-4.2401,-4.3764,-4.3831,-4.376,-4.3596,-4.3014,-4.2587,-4.2233,-4.1804,-4.1305,-4.0786,-4.0574,-4.0363,-4.0223,-3.9873,-4.027,-4.0905,-4.1188,-4.1923,-4.2687,-4.2925,-4.285,-4.2749,-4.247,-4.2425,-4.2513,-4.2762,-4.2874,-4.2986,-4.2986,-4.2986,-4.2986,-4.2986,-4.2986,-4.3098,-4.3184,-4.3406,-4.3764,-4.4094,-4.4313,-4.4531,-4.4613,-4.4713,-4.4675,-4.4869,-4.4863,-4.4668,-4.448,-4.4248,-4.4119,-4.3899,-4.3874,-4.3984,-4.4094,-4.4177,-4.4177,-4.4094,-4.4094,-4.4177,-4.4313,-4.523,-4.6436,-4.7958,-4.9563,-5.2151,-5.5653,-5.4714,-5.408,-5.3683,-5.2634,-5.2121,-5.2063,-5.2397,-5.179,-2.3256,0.0,0.0,0.0,0.0,0.0,0.0,0.0,0.0,0.0,0.0,0.0,0.0,0.0,0.0,0.0,0.0,-1.7073,0.0,0.0,0.0,0.0,0.0,0.0,0.0,0.0,0.0,0.0,0.0,-3.4102,-3.8275,-3.896,-3.9093,-3.8599,-3.9104,-3.9898,-4.0956,-4.1485,-4.2471,-4.3914,-4.3644,-4.3429,-4.3289,-4.2927,-4.2449,-4.1966,-4.1822,-4.1417,-4.085,-4.085,-4.0711,-4.0455,-4.0455,-4.055,-4.0763,-4.1424,-4.1895,-4.2276,-4.2855,-4.276,-4.2276,-4.1964,-4.2061,-4.2425,-4.2513,-4.2762,-4.2986,-4.2986,-4.2986,-4.2986,-4.2986,-4.2986,-4.3073,-4.3295,-4.3406,-4.3517,-4.4094,-4.4203,-4.4313,-4.4531,-4.4422,-4.4313,-4.4422,-4.4649,-4.4779,-4.4474,-4.4313,-4.4203,-4.4094,-4.4203,-4.4313,-4.4422,-4.4613,-4.4613,-4.4422,-4.4442,-4.4546,-4.4546,-4.4957,-4.6382,-4.8963,-4.9566,-5.1216,-5.4435,-5.3308,-5.2881,-5.3107,-5.1858,-5.1748,-5.2606,-5.2812,-5.252,0.0,0.0,0.0,-1.9625,0.0,0.0,0.0,0.0,-1.5618,0.0,0.0,0.0,0.0,0.0,0.0,0.0,0.0,0.0,0.0,0.0,0.0,0.0,0.0,0.0,0.0,0.0,0.0,0.0,0.0,0.0,-3.7287,-3.8258,-3.834,-3.8022,-3.8551,-3.9345,-4.0403,-4.0956,-4.1749,-4.2808,-4.2808,-4.2808,-4.276,-4.2254,-4.2014,-4.1942,-4.1437,-4.1196,-4.1172,-4.1172,-4.1196,-4.1172,-4.1172,-4.1509,-4.1942,-4.1637,-4.2161,-4.2875,-4.2256,-4.1677,-4.1105,-4.0479,-4.1172,-4.2086,-4.172,-4.2287,-4.2986,-4.2986,-4.2986,-4.2986,-4.2986,-4.2986,-4.2986,-4.2986,-4.3184,-4.3517,-4.3899,-4.4094,-4.4313,-4.4313,-4.4313,-4.4203,-4.401,-4.4119,-4.4448,-4.4639,-4.4531,-4.4422,-4.4613,-4.4422,-4.4422,-4.4613,-4.4722,-4.4722,-4.4722,-4.5025,-4.5115,-4.5115,-4.5862,-4.6758,-4.7615,-4.9121,-5.0398,-5.1512,-5.1512,-5.1116,-5.0427,-5.1087,-5.1905,-5.2922,-5.2142,-5.2269,-3.4912,-3.5318,-3.4486,-2.6629,-2.6249,0.0,0.0,0.0,0.0,0.0,0.0,0.0,0.0,0.0,0.0,0.0,0.0,0.0,0.0,0.0,0.0,0.0,0.0,0.0,0.0,0.0,0.0,0.0,0.0,0.0,0.0,-3.9251,-3.9169,-3.9038,-3.9274,-3.9513,-3.9874,-4.0739,-4.1533,-4.223,-4.2591,-4.2567,-4.223,-4.2062,-4.1774,-4.1437,-4.1268,-4.1172,-4.1172,-4.1172,-4.1172,-4.1172,-4.1172,-4.1509,-4.2014,-4.2256,-4.2808,-4.3288,-4.2735,-4.204,-4.1303,-4.0946,-4.1057,-4.1263,-4.1834,-4.2174,-4.2513,-4.2874,-4.2986,-4.2986,-4.2986,-4.2986,-4.2986,-4.2986,-4.3073,-4.3184,-4.3517,-4.3764,-4.401,-4.401,-4.401,-4.401,-4.3899,-4.401,-4.4094,-4.4422,-4.4531,-4.4613,-4.4722,-4.4613,-4.4613,-4.4722,-4.4722,-4.4879,-4.5297,-4.5512,-4.5555,-4.5167,-4.5584,-4.6249,-4.7252,-4.8162,-4.9509,-5.1356,-5.0231,-4.9853,-4.9978,-4.9177,-5.0069,-5.2862,-5.2378,-5.3049,-4.0186,-4.112,-4.0306,-3.2011,-3.1385,-3.0563,-2.1717,0.0,-1.862,0.0,0.0,0.0,0.0,0.0,0.0,0.0,0.0,0.0,0.0,0.0,0.0,0.0,0.0,0.0,0.0,0.0,0.0,0.0,0.0,0.0,0.0,0.0,-3.978,-3.9674,-3.9379,-3.9455,-3.9649,-4.0105,-4.0691,-4.1413,-4.1749,-4.1846,-4.1701,-4.1701,-4.1509,-4.1172,-4.1172,-4.1172,-4.1172,-4.1172,-4.1172,-4.1196,-4.1389,-4.1798,-4.2303,-4.2639,-4.2952,-4.3192,-4.276,-4.2066,-4.1163,-4.083,-4.0711,-4.0803,-4.1492,-4.1948,-4.2287,-4.2849,-4.2986,-4.2986,-4.2986,-4.2986,-4.2986,-4.2986,-4.2986,-4.3073,-4.3295,-4.3653,-4.3899,-4.3764,-4.3789,-4.3789,-4.3679,-4.3653,-4.3874,-4.4203,-4.4531,-4.4722,-4.4722,-4.4722,-4.4722,-4.4722,-4.4722,-4.4957,-4.5584,-4.5909,-4.61,-4.5831,-4.6024,-4.6571,-4.7308,-4.7819,-4.8723,-5.0249,-4.9152,-4.8752,-4.9177,-4.8098,-4.9064,-5.1916,-5.221,-5.3326]}]]